Date StartTime U_cm/s V_cm/s W_cm/s Ustd_cm/s Vstd_cm/s Wstd_cm/s Uvar_(cm/s)^2 Vvar_(cm/s)^2 Wvar_(cm/s)^2 KE_(m/s)^2 TurbulentKE_(m/s)^2 HorizWindSpeed_cm/s FrictionSpeec_cm/s DragCoef SpeedOfSound_m/s SonicTemperature_C Pressure_mb 
12/16/2013  00:00:00      -38.350      -28.520        3.467       24.090       21.494       12.732      580.316      461.982      162.095        0.175        0.060       47.792       11.555        0.058      329.936       -3.013      873.610
12/16/2013  00:01:00      -19.749      -25.415        5.412       23.941       15.059       14.907      573.181      226.780      222.205        0.104        0.051       32.186       15.705        0.238      329.941       -3.005      873.619
12/16/2013  00:02:00      -44.866      -29.831        4.200       32.052       22.515       13.398     1027.329      506.945      179.503        0.232        0.086       53.878       14.507        0.072      329.994       -2.917      873.632
12/16/2013  00:03:00      -51.261      -27.305        4.653       21.331       19.247       17.531      454.997      370.449      307.337        0.226        0.057       58.080       15.160        0.068      329.890       -3.087      873.649
12/16/2013  00:04:00      -47.380      -33.236       -4.015       34.858       18.425       12.909     1215.088      339.463      166.654        0.254        0.086       57.875       13.189        0.052      329.939       -3.007      873.658
12/16/2013  00:05:00      -76.156      -41.816       -0.194       21.089       18.536       15.025      444.735      343.596      225.754        0.428        0.051       86.881       13.472        0.024      329.948       -2.992      873.663
12/16/2013  00:06:00      -88.871      -27.895       -7.102       14.231       14.350       12.476      202.509      205.914      155.644        0.465        0.028       93.146        4.505        0.002      329.970       -2.957      873.662
12/16/2013  00:07:00      -65.215      -12.953       -2.263       18.234       19.533       11.257      332.479      381.524      126.722        0.263        0.042       66.489        8.517        0.016      329.994       -2.917      873.653
12/16/2013  00:08:00      -35.821      -10.379        6.579       24.349       17.287       14.466      592.897      298.835      209.278        0.127        0.055       37.295       14.439        0.150      329.956       -2.980      873.634
12/16/2013  00:09:00      -31.551       -8.553        6.511       25.706       21.793       13.690      660.783      474.936      187.429        0.122        0.066       32.689       12.644        0.150      329.924       -3.032      873.619
12/16/2013  00:10:00      -68.944       -8.866       -3.594       39.588       21.224       16.770     1567.234      450.465      281.216        0.357        0.115       69.511       18.967        0.074      329.928       -3.026      873.612
12/16/2013  00:11:00      -91.700      -14.660       -6.066       25.564       17.886       12.783      653.535      319.919      163.395        0.490        0.057       92.864        8.214        0.008      329.854       -3.146      873.612
12/16/2013  00:12:00      -89.219      -21.023       -1.806       22.299       16.520       13.670      497.243      272.924      186.859        0.468        0.048       91.662       12.027        0.017      329.829       -3.187      873.614
12/16/2013  00:13:00      -87.186      -26.733       -8.084       20.776       23.299       12.954      431.627      542.859      167.813        0.476        0.057       91.192        9.953        0.012      329.746       -3.322      873.602
12/16/2013  00:14:00      -89.785      -28.495       -9.895       27.308       26.039       19.608      745.741      678.055      384.483        0.539        0.090       94.199       14.275        0.023      329.674       -3.442      873.598
12/16/2013  00:15:00     -104.847      -12.515       -7.606       21.951       21.296       16.064      481.834      453.503      258.057        0.620        0.060      105.591       11.529        0.012      329.656       -3.469      873.593
12/16/2013  00:16:00      -91.161      -16.417       -8.299       17.016       23.005       12.744      289.534      529.222      162.414        0.481        0.049       92.628        7.269        0.006      329.651       -3.478      873.580
12/16/2013  00:17:00      -70.690      -20.587       -2.529       47.231       23.826       19.495     2230.743      567.676      380.057        0.430        0.159       73.627       26.753        0.132      329.612       -3.542      873.567
12/16/2013  00:18:00      -81.996        0.015        1.207       39.715       27.634       18.932     1577.274      763.651      358.420        0.471        0.135       81.996       20.082        0.060      329.678       -3.434      873.552
12/16/2013  00:19:00      -97.790       10.158      -13.952       44.439       32.255       21.927     1974.797     1040.403      480.814        0.668        0.175       98.316       16.126        0.027      329.702       -3.396      873.533
12/16/2013  00:20:00      -93.683       20.517       -8.136       42.148       31.096       25.049     1776.472      966.983      627.445        0.632        0.169       95.903       24.331        0.064      329.703       -3.395      873.522
12/16/2013  00:21:00     -117.015        5.342       -6.216       47.460       45.379       27.510     2252.457     2059.246      756.799        0.941        0.253      117.137       28.460        0.059      329.694       -3.409      873.510
12/16/2013  00:22:00     -133.978       -9.771       -1.848       55.030       38.377       25.106     3028.299     1472.765      630.295        1.159        0.257      134.334       26.093        0.038      329.584       -3.588      873.499
12/16/2013  00:23:00     -138.960        4.740      -17.006       40.917       43.295       25.141     1674.208     1874.436      632.073        1.190        0.209      139.041       18.714        0.018      329.483       -3.752      873.492
12/16/2013  00:24:00      -86.162      -15.621       -5.987       50.213       29.933       24.159     2521.389      896.006      583.681        0.585        0.200       87.567       26.784        0.094      329.468       -3.776      873.483
12/16/2013  00:25:00     -104.354      -20.945      -14.090       38.213       29.749       20.946     1460.243      885.019      438.743        0.715        0.139      106.435       15.862        0.022      329.488       -3.745      873.473
12/16/2013  00:26:00      -79.633      -21.902        1.458       22.554       27.073       16.106      508.694      732.957      259.406        0.416        0.075       82.590       11.888        0.021      329.554       -3.638      873.456
12/16/2013  00:27:00     -115.477      -19.232       -1.977       47.514       31.084       23.462     2257.598      966.202      550.477        0.874        0.189      117.067       26.679        0.052      329.524       -3.687      873.445
12/16/2013  00:28:00     -129.348        5.080       -7.914       31.189       36.472       22.717      972.769     1330.190      516.084        0.982        0.141      129.448       16.646        0.017      329.471       -3.773      873.432
12/16/2013  00:29:00     -133.230        8.840      -19.391       30.708       17.899       18.909      942.962      320.366      357.550        0.991        0.081      133.523       15.613        0.014      329.510       -3.708      873.425
12/16/2013  00:30:00     -124.551        7.022      -11.859       26.424       23.147       19.755      698.214      535.805      390.262        0.866        0.081      124.749       15.694        0.016      329.552       -3.640      873.423
12/16/2013  00:31:00     -106.626      -15.624       -7.572       25.421       16.763       13.791      646.242      281.006      190.203        0.639        0.056      107.765       13.110        0.015      329.567       -3.615      873.407
12/16/2013  00:32:00      -81.171      -21.197       -3.509       20.333       19.625       13.329      413.447      385.128      177.657        0.401        0.049       83.893       11.382        0.018      329.645       -3.488      873.384
12/16/2013  00:33:00      -55.681      -15.521       -2.936       33.936       24.037       18.012     1151.648      577.776      324.450        0.270        0.103       57.804       13.939        0.058      329.647       -3.484      873.361
12/16/2013  00:34:00      -93.760        0.810       -6.742       31.385       27.861       17.458      985.028      776.257      304.784        0.545        0.103       93.763       14.911        0.025      329.661       -3.461      873.357
12/16/2013  00:35:00     -113.574      -13.528      -10.837       33.517       21.955       17.638     1123.402      482.043      311.090        0.756        0.096      114.377       17.938        0.025      329.619       -3.530      873.358
12/16/2013  00:36:00     -107.775      -36.645      -18.491       31.620       24.466       19.802      999.839      598.580      392.119        0.764        0.100      113.834       13.522        0.014      329.627       -3.517      873.358
12/16/2013  00:37:00      -50.186      -21.917      -13.128       43.507       16.432       17.816     1892.837      270.010      317.415        0.283        0.124       54.763       16.969        0.096      329.674       -3.441      873.357
12/16/2013  00:38:00      -51.371      -24.990       -9.821       20.119       24.197       16.392      404.788      585.480      268.699        0.231        0.063       57.127       12.629        0.049      329.611       -3.543      873.358
12/16/2013  00:39:00      -85.604      -21.080      -10.013       23.157       25.621       14.028      536.224      656.423      196.797        0.463        0.069       88.161       12.209        0.019      329.548       -3.648      873.366
12/16/2013  00:40:00     -102.999      -13.115      -15.291       15.160       11.619       11.888      229.832      135.004      141.324        0.576        0.025      103.831        4.021        0.001      329.541       -3.658      873.369
12/16/2013  00:41:00      -92.835      -21.941       -6.328       17.087       16.904       10.059      291.975      285.729      101.175        0.491        0.034       95.392        2.211        0.001      329.572       -3.608      873.368
12/16/2013  00:42:00      -98.719      -10.512       -3.083       20.086       14.006       13.550      403.446      196.181      183.605        0.532        0.039       99.277       11.010        0.012      329.576       -3.600      873.364
12/16/2013  00:43:00      -91.330      -28.380       -4.060       23.347       22.332       15.356      545.080      498.706      235.792        0.522        0.064       95.638       11.815        0.015      329.543       -3.656      873.362
12/16/2013  00:44:00      -61.243      -17.176       -2.786       27.843       20.748       14.431      775.246      430.463      208.267        0.273        0.071       63.606       14.517        0.052      329.552       -3.642      873.360
12/16/2013  00:45:00      -64.139      -17.198       -3.206       17.792       15.868       13.282      316.544      251.803      176.403        0.258        0.037       66.405        5.747        0.007      329.621       -3.528      873.351
12/16/2013  00:46:00      -67.435      -28.218       -9.532       23.685       23.101       15.784      561.001      533.643      249.144        0.339        0.067       73.101       11.032        0.023      329.609       -3.547      873.338
12/16/2013  00:47:00      -94.141      -12.909       -9.263       24.596       22.283       19.677      604.955      496.545      387.187        0.530        0.074       95.022       11.027        0.013      329.474       -3.766      873.322
12/16/2013  00:48:00     -102.383      -17.027      -11.323       20.412       16.600       12.908      416.631      275.544      166.607        0.588        0.043      103.789       10.233        0.010      329.410       -3.873      873.304
12/16/2013  00:49:00      -98.623       -6.536      -14.864       16.698       19.181       13.050      278.834      367.892      170.293        0.540        0.041       98.840        9.232        0.009      329.420       -3.856      873.287
12/16/2013  00:50:00      -50.731      -27.549       -7.924       20.319       17.799       12.880      412.875      316.814      165.887        0.215        0.045       57.728        9.914        0.029      329.461       -3.790      873.266
12/16/2013  00:51:00      -61.327      -13.866       -6.953       17.278       18.413       11.116      298.543      339.056      123.562        0.238        0.038       62.875        4.716        0.006      329.467       -3.776      873.240
12/16/2013  00:52:00      -49.678       -6.405      -11.408        8.422        5.863        7.787       70.933       34.374       60.640        0.140        0.008       50.090        4.527        0.008      329.449       -3.807      873.213
12/16/2013  00:53:00      -32.476      -16.072       -3.844       10.010        7.202        4.386      100.204       51.868       19.238        0.075        0.009       36.235        2.446        0.005      329.547       -3.650      873.201
12/16/2013  00:54:00      -41.490      -17.866       -7.005       15.390        7.286        7.392      236.859       53.089       54.643        0.122        0.017       45.173        4.252        0.009      329.576       -3.604      873.194
12/16/2013  00:55:00      -51.557      -11.272       -9.858        7.901        6.866        5.370       62.419       47.135       28.840        0.151        0.007       52.775        2.687        0.003      329.528       -3.679      873.195
12/16/2013  00:56:00      -71.245       -9.587       -6.336       10.331       12.564        7.788      106.720      157.848       60.656        0.277        0.016       71.887        3.074        0.002      329.375       -3.932      873.206
12/16/2013  00:57:00      -71.720      -11.576       -6.796       12.827       12.561       11.591      164.540      157.786      134.351        0.289        0.023       72.648        7.769        0.011      329.269       -4.104      873.210
12/16/2013  00:58:00      -51.535       -9.289       -8.553       16.582        9.434        7.318      274.947       89.004       53.547        0.162        0.021       52.365        5.934        0.013      329.331       -4.001      873.204
12/16/2013  00:59:00      -32.763      -12.734       -5.000        8.669        7.929        6.371       75.147       62.874       40.587        0.072        0.009       35.151        4.822        0.019      329.379       -3.923      873.197
12/16/2013  01:00:00      -11.945      -11.885        0.991        5.619        7.842        7.507       31.569       61.499       56.359        0.022        0.007       16.850        4.124        0.060      329.553       -3.639      873.190
12/16/2013  01:01:00       -6.890      -10.287       -2.122        8.789        6.683        5.513       77.250       44.661       30.397        0.016        0.008       12.381        4.250        0.118      329.568       -3.614      873.180
12/16/2013  01:02:00      -10.614      -24.390       -6.121        7.621       12.883        9.042       58.085      165.980       81.750        0.053        0.015       26.600        7.042        0.070      329.506       -3.716      873.178
12/16/2013  01:03:00       -1.035       -7.669       10.913       11.938       14.525        6.146      142.513      210.975       37.772        0.029        0.020        7.739        3.179        0.169      329.517       -3.697      873.177
12/16/2013  01:04:00       15.075       13.536        0.880        8.933       13.579       10.621       79.796      184.379      112.814        0.039        0.019       20.261        6.565        0.105      329.797       -3.239      873.172
12/16/2013  01:05:00       15.148       14.073        0.903        6.700       12.921        6.498       44.894      166.963       42.228        0.034        0.013       20.677        7.663        0.137      329.941       -3.004      873.173
12/16/2013  01:06:00       20.756       16.505        1.988        7.792        9.053        8.688       60.714       81.950       75.487        0.046        0.011       26.518        6.795        0.066      329.891       -3.085      873.179
12/16/2013  01:07:00       14.216       12.896        3.822        5.606        7.828        5.000       31.430       61.285       24.996        0.025        0.006       19.194        4.946        0.066      329.858       -3.139      873.201
12/16/2013  01:08:00        4.596       35.744       -0.867        8.153       11.728        3.450       66.470      137.554       11.899        0.076        0.011       36.038        4.217        0.014      329.938       -3.007      873.218
12/16/2013  01:09:00        2.298       41.461       -3.660       13.408       13.840        6.610      179.765      191.554       43.694        0.108        0.021       41.525        8.181        0.039      329.911       -3.053      873.238
12/16/2013  01:10:00       -7.436       17.891        4.810       11.256       13.720        6.947      126.699      188.249       48.259        0.038        0.018       19.375        5.624        0.084      329.792       -3.248      873.241
12/16/2013  01:11:00      -10.684        3.666        6.590       15.496       17.089        8.390      240.130      292.028       70.391        0.039        0.030       11.295        6.152        0.297      329.710       -3.383      873.236
12/16/2013  01:12:00      -47.900      -13.546       -8.985       10.261        8.075        8.420      105.279       65.213       70.895        0.140        0.012       49.778        3.263        0.004      329.353       -3.968      873.232
12/16/2013  01:13:00      -60.474      -19.968      -12.609       11.171       12.889        7.687      124.783      166.117       59.093        0.228        0.017       63.685        5.325        0.007      329.314       -4.030      873.222
12/16/2013  01:14:00      -52.101      -22.127       -6.268       13.111       11.611        8.894      171.901      134.805       79.103        0.181        0.019       56.605        5.847        0.011      329.464       -3.784      873.220
12/16/2013  01:15:00       -8.349      -10.206       -5.421       18.082       13.192        7.311      326.958      174.028       53.444        0.038        0.028       13.186        8.563        0.422      329.790       -3.252      873.209
12/16/2013  01:16:00       17.574        2.370       -4.270        6.377        5.404        4.254       40.669       29.201       18.098        0.021        0.004       17.733        3.158        0.032      329.882       -3.101      873.201
12/16/2013  01:17:00       17.006        3.269        2.983        6.684        5.124        6.381       44.673       26.259       40.717        0.021        0.006       17.318        4.154        0.058      329.987       -2.930      873.194
12/16/2013  01:18:00        6.536        4.610        6.732       10.141        5.644        6.795      102.836       31.852       46.171        0.015        0.009        7.999        5.469        0.468      330.001       -2.905      873.184
12/16/2013  01:19:00       -3.013        0.274        8.877        3.104        4.136        3.813        9.634       17.110       14.536        0.006        0.002        3.026        2.366        0.612      329.942       -3.001      873.184
12/16/2013  01:20:00       -7.235        1.739        7.391        7.236        7.774        7.525       52.356       60.441       56.632        0.014        0.008        7.441        5.929        0.635      329.879       -3.105      873.193
12/16/2013  01:21:00      -10.684        1.685       -0.556        8.409        7.045        4.095       70.712       49.631       16.767        0.013        0.007       10.816        2.956        0.075      329.824       -3.196      873.207
12/16/2013  01:22:00      -26.160       -1.907       -4.490       10.347        5.879        4.833      107.050       34.567       23.355        0.044        0.008       26.230        3.030        0.013      329.791       -3.249      873.222
12/16/2013  01:23:00      -45.558       -8.451       -2.204        9.336        5.516        4.692       87.156       30.423       22.012        0.115        0.007       46.336        2.120        0.002      329.566       -3.618      873.234
12/16/2013  01:24:00      -41.179       -7.722       -3.560        6.965        6.589        5.498       48.513       43.413       30.232        0.095        0.006       41.897        1.546        0.001      329.484       -3.753      873.241
12/16/2013  01:25:00      -49.146       -9.468       -2.362        7.378        7.515        4.583       54.435       56.472       21.004        0.132        0.007       50.050        1.971        0.002      329.570       -3.611      873.247
12/16/2013  01:26:00      -52.930      -13.383      -11.018        6.612        6.885        6.724       43.717       47.401       45.209        0.162        0.007       54.596        3.697        0.005      329.483       -3.753      873.254
12/16/2013  01:27:00      -51.188      -15.312      -11.274        5.911        7.072        5.677       34.934       50.017       32.227        0.155        0.006       53.429        1.747        0.001      329.487       -3.746      873.263
12/16/2013  01:28:00      -61.251       -1.917       -5.574       15.046       10.271        7.888      226.370      105.486       62.214        0.209        0.020       61.281        6.081        0.010      329.423       -3.853      873.275
12/16/2013  01:29:00      -79.741       -0.701       -9.077       11.704        7.751        9.870      136.978       60.072       97.418        0.337        0.015       79.744        7.692        0.009      329.512       -3.706      873.285
12/16/2013  01:30:00      -73.041      -16.202       -7.445        6.125        6.875        5.899       37.515       47.266       34.797        0.289        0.006       74.816        3.946        0.003      329.564       -3.621      873.296
12/16/2013  01:31:00      -67.551      -26.296       -9.614        9.208        7.199        4.821       84.779       51.830       23.241        0.275        0.008       72.489        2.046        0.001      329.598       -3.566      873.310
12/16/2013  01:32:00      -47.263      -25.177       -8.861       17.693       12.603       10.456      313.049      158.829      109.327        0.176        0.029       53.551        2.114        0.002      329.529       -3.677      873.322
12/16/2013  01:33:00      -50.835      -15.114       -9.408       16.412       12.369        7.876      269.366      152.990       62.024        0.169        0.024       53.034        4.504        0.007      329.434       -3.832      873.340
12/16/2013  01:34:00      -56.267      -16.380       -5.810       13.157       12.786        8.598      173.097      163.478       73.923        0.194        0.021       58.603        6.266        0.011      329.443       -3.817      873.361
12/16/2013  01:35:00      -68.263      -10.348      -11.720       10.602       11.273       10.360      112.393      127.075      107.327        0.263        0.017       69.043        6.320        0.008      329.452       -3.802      873.369
12/16/2013  01:36:00      -61.223      -19.915      -14.889       10.060       11.413        9.499      101.194      130.247       90.233        0.234        0.016       64.381        7.057        0.012      329.481       -3.754      873.375
12/16/2013  01:37:00      -59.285      -19.635       -7.921        8.555       10.235        6.996       73.191      104.765       48.946        0.209        0.011       62.452        4.761        0.006      329.438       -3.826      873.381
12/16/2013  01:38:00      -70.640       -7.636      -11.910       10.107       17.197        7.456      102.151      295.747       55.586        0.282        0.023       71.051        3.051        0.002      329.512       -3.706      873.397
12/16/2013  01:39:00      -66.383       -0.932      -13.301       11.894        7.544        7.279      141.475       56.910       52.987        0.242        0.013       66.389        3.516        0.003      329.510       -3.710      873.404
12/16/2013  01:40:00      -92.423      -15.622      -12.103       16.471        8.825        8.973      271.284       77.878       80.521        0.468        0.021       93.734        6.288        0.005      329.367       -3.944      873.407
12/16/2013  01:41:00      -66.912      -33.492       -5.104       19.590       19.414       12.697      383.769      376.889      161.206        0.327        0.046       74.826        7.186        0.009      329.433       -3.835      873.400
12/16/2013  01:42:00      -65.439      -31.012      -11.913       20.532       19.596       16.480      421.559      384.017      271.595        0.323        0.054       72.415       11.611        0.026      329.393       -3.902      873.388
12/16/2013  01:43:00      -68.997      -28.204       -9.107       16.565       15.526       15.951      274.403      241.062      254.420        0.320        0.038       74.539       12.912        0.030      329.342       -3.984      873.387
12/16/2013  01:44:00      -83.608      -19.691       -6.927       19.923       15.372        9.643      396.916      236.302       92.984        0.408        0.036       85.896        6.267        0.005      329.282       -4.081      873.383
12/16/2013  01:45:00      -98.907      -19.025      -10.257       18.724       15.218       13.244      350.572      231.574      175.400        0.550        0.038      100.720       11.247        0.012      329.266       -4.108      873.380
12/16/2013  01:46:00     -111.745      -20.151      -10.723       22.631       17.682       14.301      512.179      312.640      204.525        0.702        0.051      113.548       10.854        0.009      329.224       -4.176      873.371
12/16/2013  01:47:00      -98.647      -20.511       -5.335       24.034       18.635       14.511      577.627      347.255      210.556        0.566        0.057      100.757       12.808        0.016      329.205       -4.207      873.358
12/16/2013  01:48:00      -99.161      -17.680       -8.822       22.298       15.640       16.523      497.184      244.605      273.010        0.562        0.051      100.725       14.724        0.021      329.244       -4.143      873.347
12/16/2013  01:49:00      -93.413      -11.533       -5.717       20.909       14.224       12.678      437.172      202.318      160.722        0.485        0.040       94.122       10.517        0.012      329.325       -4.011      873.344
12/16/2013  01:50:00     -115.649       -4.424      -12.195       21.719       11.246        8.943      471.699      126.462       79.984        0.711        0.034      115.734        9.277        0.006      329.362       -3.952      873.346
12/16/2013  01:51:00     -119.548       -8.798      -11.499       24.976       16.184       12.870      623.795      261.920      165.639        0.778        0.053      119.872       11.749        0.010      329.337       -3.993      873.345
12/16/2013  01:52:00     -119.597      -18.239       -9.691       16.726       15.606       12.723      279.750      243.536      161.867        0.771        0.034      120.980       10.768        0.008      329.303       -4.049      873.348
12/16/2013  01:53:00      -98.289      -16.356       -9.301       21.740       19.698       16.962      472.619      388.025      287.699        0.558        0.057       99.641       10.928        0.012      329.204       -4.209      873.347
12/16/2013  01:54:00      -73.625       -6.352        1.793       25.816       28.624       19.369      666.442      819.335      375.145        0.366        0.093       73.898       10.596        0.021      329.222       -4.178      873.342
12/16/2013  01:55:00      -85.820       -3.192       -1.225       34.654       24.464       17.919     1200.915      598.500      321.097        0.475        0.106       85.880       13.020        0.023      329.173       -4.259      873.333
12/16/2013  01:56:00      -99.108      -17.349       -4.089       28.682       17.077       15.318      822.660      291.620      234.633        0.574        0.067      100.615       14.666        0.021      329.172       -4.261      873.334
12/16/2013  01:57:00     -122.949      -18.060      -11.657       31.815       22.203       19.273     1012.171      492.995      371.458        0.873        0.094      124.268       20.152        0.026      329.095       -4.387      873.334
12/16/2013  01:58:00      -99.280      -22.764       -1.765       29.333       31.057       19.032      860.453      964.559      362.228        0.628        0.109      101.856       11.350        0.012      329.133       -4.325      873.335
12/16/2013  01:59:00     -100.176        0.606       -6.868       32.468       18.375       17.197     1054.147      337.623      295.734        0.588        0.084      100.177       16.486        0.027      329.053       -4.456      873.332
12/16/2013  02:00:00     -143.383       -0.396       -7.984       31.558       21.651       24.610      995.886      468.772      605.660        1.135        0.104      143.384       23.765        0.027      329.002       -4.538      873.336
12/16/2013  02:01:00     -132.612       -0.353       -6.043       33.379       22.023       20.241     1114.163      484.998      409.717        0.982        0.100      132.612       17.293        0.017      329.053       -4.455      873.344
12/16/2013  02:02:00     -102.093      -12.851       -3.323       26.920       15.952       20.542      724.689      254.473      421.978        0.600        0.070      102.899       19.097        0.034      329.062       -4.440      873.339
12/16/2013  02:03:00      -85.281      -11.881       -4.517       24.267       21.725       15.680      588.881      471.962      245.847        0.437        0.065       86.104       13.870        0.026      329.115       -4.354      873.338
12/16/2013  02:04:00      -74.658      -31.604       -6.145       28.493       27.302       13.232      811.828      745.397      175.097        0.417        0.087       81.071       14.402        0.032      329.197       -4.221      873.336
12/16/2013  02:05:00      -74.491      -37.864       -2.188       18.683       19.302       12.848      349.063      372.572      165.061        0.394        0.044       83.561        7.480        0.008      329.266       -4.107      873.335
12/16/2013  02:06:00      -84.310      -37.371       -8.478       10.934       10.309        7.772      119.548      106.282       60.405        0.443        0.014       92.222        5.467        0.004      329.263       -4.113      873.347
12/16/2013  02:07:00      -99.745      -32.634       -8.382        8.298        8.879        7.614       68.850       78.831       57.978        0.564        0.010      104.948        5.840        0.003      329.316       -4.028      873.343
12/16/2013  02:08:00      -86.008      -40.370       -3.531       12.429        9.076        6.845      154.484       82.374       46.854        0.466        0.014       95.011        4.775        0.003      329.313       -4.033      873.339
12/16/2013  02:09:00      -79.462      -17.477       -9.587       10.759       12.028        7.429      115.746      144.662       55.189        0.351        0.016       81.362        2.653        0.001      329.300       -4.051      873.344
12/16/2013  02:10:00      -79.927      -13.192       -9.314       21.396       16.359       11.505      457.810      267.633      132.359        0.375        0.043       81.008        7.148        0.008      329.349       -3.973      873.356
12/16/2013  02:11:00      -98.661      -10.298       -8.081       27.447       12.737       15.058      753.331      162.222      226.735        0.552        0.057       99.197       16.605        0.028      329.246       -4.140      873.376
12/16/2013  02:12:00      -97.006      -15.715       -8.396       19.838       14.966       13.539      393.536      223.976      183.301        0.526        0.040       98.271       13.534        0.019      329.237       -4.156      873.390
12/16/2013  02:13:00      -78.601      -24.532       -3.399       11.622       17.913       11.275      135.075      320.873      127.121        0.369        0.029       82.340        6.999        0.007      329.252       -4.131      873.393
12/16/2013  02:14:00      -77.972      -10.951      -10.483       13.507       15.199        9.815      182.442      230.996       96.339        0.341        0.025       78.737        5.321        0.005      329.210       -4.199      873.388
12/16/2013  02:15:00      -80.400      -14.775      -12.529       15.526       14.576        8.845      241.068      212.448       78.229        0.369        0.027       81.746        7.135        0.008      329.216       -4.189      873.389
12/16/2013  02:16:00      -89.854      -12.769       -9.026       15.576       13.416        9.353      242.606      179.980       87.482        0.441        0.026       90.757        2.812        0.001      329.193       -4.228      873.405
12/16/2013  02:17:00      -97.815      -21.470      -13.572       12.955       13.944        8.005      167.824      194.447       64.077        0.532        0.021      100.143        4.967        0.002      329.139       -4.316      873.416
12/16/2013  02:18:00     -112.229      -31.376      -12.790       19.651       20.069       13.263      386.169      402.746      175.902        0.735        0.048      116.533        7.145        0.004      329.082       -4.408      873.432
12/16/2013  02:19:00     -107.825      -39.303      -11.657       19.710       23.119       13.469      388.496      534.489      181.417        0.721        0.055      114.765        8.607        0.006      329.003       -4.536      873.443
12/16/2013  02:20:00      -65.201      -28.941       -0.609       36.678       25.724       16.348     1345.254      661.730      267.271        0.368        0.114       71.336        9.492        0.018      328.949       -4.626      873.449
12/16/2013  02:21:00      -36.434       -5.522       -0.927       55.033       30.165       23.671     3028.609      909.926      560.303        0.293        0.225       36.850       22.727        0.380      329.039       -4.479      873.445
12/16/2013  02:22:00      -86.454       -2.237       -7.377       33.476       29.822       22.465     1120.609      889.338      504.676        0.502        0.126       86.483       14.143        0.027      329.022       -4.506      873.438
12/16/2013  02:23:00      -83.752      -16.300      -10.152       37.921       32.088       21.740     1438.007     1029.613      472.635        0.516        0.147       85.323       18.936        0.049      328.930       -4.657      873.436
12/16/2013  02:24:00      -81.137      -33.996        4.749       24.129       35.118       21.337      582.228     1233.287      455.267        0.502        0.114       87.972       16.096        0.033      328.939       -4.641      873.430
12/16/2013  02:25:00      -79.895      -10.715       -4.780       31.097       34.219       18.784      967.013     1170.924      352.832        0.451        0.125       80.610       11.370        0.020      328.886       -4.730      873.417
12/16/2013  02:26:00      -74.468      -22.190       -5.894       33.318       24.189       21.098     1110.060      585.099      445.141        0.411        0.107       77.704       14.558        0.035      328.839       -4.804      873.408
12/16/2013  02:27:00      -74.529      -29.811       -7.667       30.601       27.411       16.862      936.413      751.388      284.335        0.424        0.099       80.270        8.034        0.010      328.851       -4.785      873.395
12/16/2013  02:28:00     -109.461      -23.216      -12.157       31.021       21.526       12.327      962.299      463.361      151.946        0.712        0.079      111.896        8.859        0.006      328.791       -4.882      873.384
12/16/2013  02:29:00     -120.820      -23.002      -15.418       31.756       23.198       15.787     1008.465      538.167      249.245        0.858        0.090      122.990       11.195        0.008      328.784       -4.894      873.371
12/16/2013  02:30:00     -110.356      -24.113      -10.616       19.564       26.670       19.801      382.760      711.311      392.093        0.718        0.074      112.959       15.338        0.018      328.823       -4.832      873.358
12/16/2013  02:31:00      -91.199      -22.777       -6.452       27.255       24.300       16.128      742.859      590.481      260.104        0.524        0.080       94.001        6.844        0.005      328.842       -4.798      873.345
12/16/2013  02:32:00      -87.227      -23.581      -12.487       19.908       21.113       14.364      396.324      445.742      206.333        0.468        0.052       90.358        9.629        0.011      328.881       -4.738      873.337
12/16/2013  02:33:00      -91.269      -20.404       -8.225       20.283       20.748       13.423      411.387      430.475      180.182        0.492        0.051       93.522       10.243        0.012      328.927       -4.663      873.327
12/16/2013  02:34:00      -90.469       -9.819      -14.654       22.812       13.678       14.529      520.375      187.090      211.091        0.471        0.046       91.000        6.210        0.005      328.926       -4.663      873.324
12/16/2013  02:35:00      -89.118      -24.209      -13.637       15.321       15.520       12.911      234.725      240.880      166.697        0.468        0.032       92.348        7.588        0.007      328.971       -4.590      873.322
12/16/2013  02:36:00      -96.938      -30.412      -10.331       15.592       20.916       12.923      243.103      437.494      166.993        0.564        0.042      101.596       10.612        0.011      329.033       -4.488      873.326
12/16/2013  02:37:00      -87.203      -23.275       -7.602       24.330       17.659       13.876      591.960      311.840      192.536        0.465        0.055       90.256       11.853        0.017      328.993       -4.554      873.324
12/16/2013  02:38:00     -105.335      -18.944      -14.234       15.211       14.745       11.932      231.374      217.403      142.383        0.612        0.030      107.025        5.909        0.003      328.983       -4.571      873.312
12/16/2013  02:39:00      -76.067      -37.856       -9.324       16.090       24.416       12.770      258.878      596.143      163.069        0.416        0.051       84.967        7.834        0.009      329.070       -4.428      873.302
12/16/2013  02:40:00      -65.061       -1.949       -8.709       12.417       25.131       15.701      154.192      631.554      246.513        0.267        0.052       65.091        9.994        0.024      329.062       -4.440      873.303
12/16/2013  02:41:00      -87.836      -38.632      -14.856       13.863       17.002       12.003      192.178      289.085      144.077        0.503        0.031       95.956       10.176        0.011      329.052       -4.456      873.308
12/16/2013  02:42:00      -77.322      -39.222       -9.018       23.159       15.968       14.957      536.338      254.965      223.698        0.431        0.051       86.701       15.153        0.031      329.000       -4.542      873.316
12/16/2013  02:43:00      -80.072      -18.942       -9.638       15.312       17.763       13.422      234.459      315.519      180.161        0.380        0.037       82.282        6.439        0.006      329.064       -4.437      873.319
12/16/2013  02:44:00      -91.287       -7.688      -17.641       17.683       17.747       14.882      312.699      314.939      221.474        0.478        0.042       91.611       10.805        0.014      328.971       -4.590      873.313
12/16/2013  02:45:00     -101.924      -17.175      -16.341       24.312       22.483       16.899      591.073      505.499      285.562        0.617        0.069      103.361        4.951        0.002      328.948       -4.628      873.315
12/16/2013  02:46:00     -155.127      -23.167      -16.205       24.014       20.367       17.546      576.690      414.801      307.847        1.308        0.065      156.847       12.726        0.007      328.838       -4.808      873.323
12/16/2013  02:47:00     -119.212      -26.169      -15.452       27.008       23.470       15.254      729.426      550.849      232.671        0.832        0.076      122.050        9.958        0.007      328.835       -4.811      873.320
12/16/2013  02:48:00     -114.546      -16.891      -11.613       27.296       25.760       16.015      745.058      663.560      256.493        0.760        0.083      115.785       12.096        0.011      328.834       -4.812      873.319
12/16/2013  02:49:00     -109.517       -8.024      -22.120       25.241       23.732       15.185      637.088      563.224      230.595        0.699        0.072      109.811        9.850        0.008      328.857       -4.776      873.316
12/16/2013  02:50:00     -135.131        5.446      -20.320       20.344       24.969       16.407      413.858      623.428      269.181        1.000        0.065      135.241       10.427        0.006      328.811       -4.851      873.313
12/16/2013  02:51:00     -143.044      -14.312      -18.014       26.921       20.073       19.318      724.719      402.942      373.172        1.125        0.075      143.758       17.425        0.015      328.795       -4.877      873.301
12/16/2013  02:52:00     -140.307      -11.296       -9.872       35.976       25.227       23.966     1294.305      636.407      574.383        1.121        0.125      140.761       25.051        0.032      328.749       -4.953      873.291
12/16/2013  02:53:00     -142.680      -14.658      -14.105       23.074       20.145       19.947      532.397      405.831      397.883        1.105        0.067      143.431       14.049        0.010      328.706       -5.021      873.274
12/16/2013  02:54:00     -121.423       -9.410      -14.591       24.749       20.209       15.858      612.523      408.401      251.483        0.816        0.064      121.787       10.656        0.008      328.720       -5.000      873.254
12/16/2013  02:55:00     -125.709       -9.999      -13.550       25.192       14.414       15.503      634.625      207.752      240.331        0.858        0.054      126.106       10.134        0.006      328.736       -4.974      873.240
12/16/2013  02:56:00     -101.015      -19.583      -17.821       13.283       17.228       11.643      176.435      296.787      135.550        0.576        0.030      102.896        5.644        0.003      328.774       -4.912      873.242
12/16/2013  02:57:00      -78.446      -12.925      -11.773       17.133       14.845       11.611      293.545      220.387      134.810        0.355        0.032       79.503        9.614        0.015      328.775       -4.911      873.242
12/16/2013  02:58:00      -61.423       -9.734      -12.754       10.774        9.369        6.772      116.077       87.770       45.865        0.214        0.012       62.189        5.281        0.007      328.831       -4.818      873.238
12/16/2013  02:59:00      -49.195      -22.926      -13.137       12.575        9.649        8.632      158.130       93.098       74.514        0.172        0.016       54.274        2.153        0.002      328.901       -4.704      873.232
12/16/2013  03:00:00      -32.902      -17.260       -9.530       12.984        6.936        8.523      168.587       48.108       72.643        0.088        0.014       37.154        3.736        0.010      329.000       -4.542      873.234
12/16/2013  03:01:00      -17.104      -25.963       -6.236       13.893       13.497       10.754      193.027      182.172      115.648        0.075        0.025       31.090        4.474        0.021      329.082       -4.409      873.238
12/16/2013  03:02:00       -7.547      -14.215       -8.668       11.202       11.681       11.554      125.476      136.454      133.491        0.036        0.020       16.095        4.417        0.075      329.030       -4.493      873.237
12/16/2013  03:03:00      -10.225       -9.670       -7.570       11.936       14.614       10.276      142.472      213.564      105.589        0.036        0.023       14.074        6.297        0.200      329.256       -4.124      873.233
12/16/2013  03:04:00       -0.864       -3.098        7.113        4.175        4.434        3.907       17.431       19.662       15.266        0.006        0.003        3.216        1.885        0.343      329.079       -4.413      873.226
12/16/2013  03:05:00       19.772        1.138        0.089       11.619        6.178        5.207      134.994       38.162       27.115        0.030        0.010       19.804        2.283        0.013      329.295       -4.060      873.215
12/16/2013  03:06:00       10.454        3.507        6.625       11.152        5.050        6.572      124.369       25.505       43.197        0.018        0.010       11.027        5.865        0.283      329.366       -3.944      873.204
12/16/2013  03:07:00       -4.386        6.217       17.582        4.584        6.794        4.716       21.015       46.159       22.239        0.023        0.004        7.608        2.788        0.134      329.289       -4.070      873.183
12/16/2013  03:08:00       -1.095        3.871       12.690        5.769        6.324        4.472       33.285       39.997       19.995        0.014        0.005        4.023        2.762        0.471      329.296       -4.058      873.171
12/16/2013  03:09:00       -1.369        8.145       12.938        6.430        7.036        4.701       41.351       49.505       22.099        0.017        0.006        8.259        3.102        0.141      329.271       -4.099      873.157
12/16/2013  03:10:00        5.010        6.761        7.031        6.211        5.929        5.633       38.577       35.156       31.731        0.011        0.005        8.415        3.617        0.185      329.327       -4.009      873.150
12/16/2013  03:11:00       32.048       12.134        5.127        5.977        6.300        5.151       35.721       39.690       26.530        0.065        0.005       34.268        3.629        0.011      329.373       -3.934      873.147
12/16/2013  03:12:00       22.662       15.292        4.688        7.208        6.993        5.632       51.961       48.898       31.724        0.045        0.007       27.339        2.724        0.010      329.339       -3.989      873.131
12/16/2013  03:13:00       25.690       17.104       -0.272        7.812        6.197        5.844       61.025       38.406       34.158        0.054        0.007       30.863        3.954        0.016      329.346       -3.978      873.108
12/16/2013  03:14:00       22.786       17.660        1.549        7.896        7.127        6.911       62.344       50.787       47.764        0.050        0.008       28.829        5.279        0.034      329.328       -4.008      873.088
12/16/2013  03:15:00       34.594       15.848        1.152        9.583        8.484        7.918       91.835       71.972       62.696        0.084        0.011       38.051        4.580        0.014      329.290       -4.066      873.069
12/16/2013  03:16:00       30.740        4.566        0.757        8.438        6.325       10.005       71.196       40.007      100.100        0.059        0.011       31.077        4.715        0.023      329.260       -4.116      873.052
12/16/2013  03:17:00       21.914       11.361        0.966        6.231        6.713        7.842       38.821       45.064       61.504        0.038        0.007       24.684        4.176        0.029      329.299       -4.053      873.047
12/16/2013  03:18:00       12.242        6.688       10.136        7.806        8.815        7.771       60.927       77.700       60.390        0.025        0.010       13.950        6.359        0.208      329.258       -4.120      873.042
12/16/2013  03:19:00        5.504        4.951        9.681       10.341        5.148        6.899      106.944       26.504       47.590        0.016        0.009        7.403        6.122        0.684      329.236       -4.156      873.035
12/16/2013  03:20:00       -3.058        8.889       10.960        8.874        5.941        5.510       78.757       35.295       30.358        0.018        0.007        9.400        2.188        0.054      329.106       -4.371      873.034
12/16/2013  03:21:00      -26.938       -3.134        0.707        6.509        5.370        4.189       42.366       28.837       17.552        0.041        0.004       27.120        2.173        0.006      328.927       -4.663      873.017
12/16/2013  03:22:00      -27.137      -10.567       -3.923        8.010        6.218        5.117       64.167       38.660       26.179        0.050        0.006       29.122        3.276        0.013      328.899       -4.705      873.008
12/16/2013  03:23:00      -24.515       -5.720       -4.665        6.389        5.901        6.055       40.816       34.820       36.664        0.038        0.006       25.174        3.755        0.022      328.899       -4.707      872.997
12/16/2013  03:24:00      -30.695       -1.966       -9.365        7.280        5.220        4.201       52.996       27.251       17.648        0.057        0.005       30.758        2.894        0.009      328.927       -4.662      872.987
12/16/2013  03:25:00      -39.546      -11.848       -5.871       10.450        8.529        7.303      109.201       72.745       53.335        0.099        0.012       41.283        3.108        0.006      328.848       -4.791      872.985
12/16/2013  03:26:00      -39.216      -27.690       -6.117       17.812       11.130        9.437      317.256      123.884       89.053        0.144        0.027       48.007        5.643        0.014      328.826       -4.826      872.970
12/16/2013  03:27:00      -83.170      -17.866       -9.138       14.983       13.307        8.025      224.491      177.076       64.407        0.389        0.023       85.068        6.537        0.006      328.699       -5.033      872.960
12/16/2013  03:28:00      -73.732      -10.019       -6.562       18.668       14.593       11.617      348.478      212.961      134.959        0.314        0.035       74.410        8.083        0.012      328.712       -5.013      872.955
12/16/2013  03:29:00      -55.449        0.951       -4.957       15.752        9.525       11.628      248.133       90.724      135.204        0.179        0.024       55.457       10.304        0.035      328.770       -4.917      872.944
12/16/2013  03:30:00      -58.652       -7.572       -4.010       14.792       12.089       11.001      218.796      146.147      121.026        0.200        0.024       59.139        9.286        0.025      328.813       -4.845      872.942
12/16/2013  03:31:00      -65.661      -12.972       -6.588       15.864       13.720       13.007      251.674      188.231      169.193        0.257        0.030       66.930        8.947        0.018      328.762       -4.930      872.938
12/16/2013  03:32:00      -49.285      -15.827       -0.560       11.022       10.725        9.218      121.486      115.027       84.969        0.150        0.016       51.764        6.480        0.016      328.763       -4.928      872.929
12/16/2013  03:33:00      -40.792      -13.065        0.094        7.244       11.102        7.590       52.475      123.248       57.609        0.103        0.012       42.833        2.070        0.002      328.845       -4.794      872.924
12/16/2013  03:34:00      -30.479       -6.001       -1.705       10.959       13.166        8.419      120.092      173.332       70.875        0.067        0.018       31.064        6.726        0.047      328.889       -4.725      872.920
12/16/2013  03:35:00      -23.465        5.012      -11.096        7.399       11.655        7.091       54.749      135.833       50.277        0.047        0.012       23.994        5.993        0.062      328.891       -4.720      872.915
12/16/2013  03:36:00      -42.420        2.366       -7.176       12.673        7.317        6.984      160.594       53.540       48.781        0.106        0.013       42.486        5.599        0.017      328.907       -4.696      872.901
12/16/2013  03:37:00      -34.552       -2.811       -3.940        7.886        6.399        6.713       62.183       40.950       45.067        0.068        0.007       34.666        5.429        0.025      328.933       -4.652      872.880
12/16/2013  03:38:00      -35.615       -0.574       -4.808        6.939        4.405        4.956       48.146       19.405       24.563        0.069        0.005       35.620        2.818        0.006      328.933       -4.652      872.866
12/16/2013  03:39:00      -21.369        0.180        1.292        6.091        5.175        7.237       37.096       26.784       52.379        0.029        0.006       21.370        2.358        0.012      328.967       -4.596      872.860
12/16/2013  03:40:00      -18.022       -6.065       -4.204        7.987        4.962        6.220       63.787       24.622       38.691        0.025        0.006       19.015        6.059        0.102      328.950       -4.623      872.867
12/16/2013  03:41:00      -13.225        0.089       -0.216        7.245        3.081        3.038       52.495        9.494        9.232        0.012        0.004       13.226        1.191        0.008      328.966       -4.598      872.883
12/16/2013  03:42:00       -9.795       12.136        0.003        7.996        9.063        5.348       63.943       82.139       28.600        0.021        0.009       15.595        6.574        0.178      329.005       -4.537      872.898
12/16/2013  03:43:00      -26.318       -7.656       -0.057        8.407        7.189        5.872       70.680       51.678       34.476        0.045        0.008       27.409        3.871        0.020      328.869       -4.757      872.911
12/16/2013  03:44:00      -19.132       -3.282       -3.528        6.838        4.697        5.418       46.762       22.061       29.356        0.024        0.005       19.412        2.517        0.017      328.754       -4.945      872.919
12/16/2013  03:45:00      -17.606      -12.927       -3.548        7.497        6.385        6.142       56.209       40.767       37.722        0.031        0.007       21.842        3.337        0.023      328.698       -5.037      872.933
12/16/2013  03:46:00       -6.665       18.079       -3.740       18.029       16.722        4.923      325.054      279.639       24.239        0.051        0.031       19.269        6.616        0.118      328.887       -4.728      872.949
12/16/2013  03:47:00       17.499       16.757       -3.694        9.879       20.748        7.212       97.604      430.463       52.008        0.059        0.029       24.228        6.918        0.082      328.944       -4.633      872.962
12/16/2013  03:48:00       30.731       15.712       -1.838       10.388        7.681        6.667      107.910       58.995       44.445        0.070        0.011       34.515        4.502        0.017      328.973       -4.589      872.969
12/16/2013  03:49:00       10.836       11.374        2.848        7.305        4.577        5.123       53.356       20.945       26.250        0.018        0.005       15.709        2.479        0.025      328.937       -4.646      872.976
12/16/2013  03:50:00        1.028        9.345       -1.674        7.033        7.781        6.453       49.468       60.550       41.644        0.012        0.008        9.401        4.646        0.244      328.929       -4.658      872.967
12/16/2013  03:51:00       10.420       29.882       -6.094        7.248        8.225        6.103       52.535       67.650       37.243        0.060        0.008       31.647        5.378        0.029      328.918       -4.677      872.961
12/16/2013  03:52:00      -12.854        6.058       -1.072       11.956       16.978        7.639      142.942      288.267       58.355        0.035        0.024       14.210        8.806        0.384      328.865       -4.761      872.954
12/16/2013  03:53:00      -45.636      -17.140       -8.456       14.841        7.319        5.829      220.259       53.567       33.980        0.138        0.015       48.749        4.869        0.010      328.594       -5.204      872.945
12/16/2013  03:54:00      -75.601      -14.841      -10.804       13.335       12.682       10.132      177.824      160.833      102.653        0.325        0.022       77.044        5.623        0.005      328.398       -5.525      872.936
12/16/2013  03:55:00      -86.552        1.168       -5.408       27.282       20.506       16.418      744.332      420.506      269.567        0.448        0.072       86.559       14.238        0.027      328.311       -5.665      872.934
12/16/2013  03:56:00      -71.050        7.768       -6.749       37.435       17.853       22.771     1401.354      318.715      518.506        0.370        0.112       71.473       25.511        0.127      328.332       -5.632      872.923
12/16/2013  03:57:00      -69.078       -5.899       -6.080       26.998       23.540       14.057      728.875      554.132      197.594        0.316        0.074       69.330       11.866        0.029      328.317       -5.655      872.915
12/16/2013  03:58:00      -96.724       -8.055      -12.218       28.613       19.532       14.794      818.707      381.488      218.866        0.549        0.071       97.059       13.908        0.021      328.293       -5.695      872.910
12/16/2013  03:59:00      -41.673        2.177       -3.657       29.214       25.949       20.032      853.449      673.363      401.280        0.184        0.096       41.730       15.901        0.145      328.296       -5.692      872.897
12/16/2013  04:00:00      -47.504        4.796       -8.448       33.476       34.790       24.036     1120.662     1210.350      577.717        0.263        0.145       47.746       15.659        0.108      328.398       -5.524      872.877
12/16/2013  04:01:00      -73.687        4.282      -10.923       38.784       38.484       25.808     1504.204     1481.049      666.062        0.461        0.183       73.812       16.860        0.052      328.374       -5.563      872.853
12/16/2013  04:02:00      -66.087       -4.391       -4.691       43.488       27.899       19.599     1891.233      778.376      384.106        0.373        0.153       66.233       22.926        0.120      328.379       -5.555      872.835
12/16/2013  04:03:00      -38.475      -18.461      -12.717       21.676       21.572       10.639      469.829      465.369      113.179        0.152        0.052       42.675        6.922        0.026      328.406       -5.511      872.807
12/16/2013  04:04:00      -59.932      -28.926       -9.161       19.342       19.075       13.896      374.124      363.845      193.106        0.272        0.047       66.547        9.762        0.022      328.394       -5.531      872.780
12/16/2013  04:05:00      -77.923      -30.789      -21.938       13.926       20.322       16.561      193.938      412.988      274.258        0.419        0.044       83.786        9.605        0.013      328.403       -5.516      872.762
12/16/2013  04:06:00      -69.563      -28.649      -19.415       23.038       16.734       14.873      530.741      280.038      221.217        0.353        0.052       75.232       10.001        0.018      328.399       -5.522      872.746
12/16/2013  04:07:00      -56.818      -27.811      -11.339       24.266       18.515       14.638      588.815      342.795      214.265        0.264        0.057       63.259       12.781        0.041      328.395       -5.530      872.748
12/16/2013  04:08:00      -56.276      -24.612       -9.703       26.814       17.321       13.352      719.000      300.023      178.282        0.253        0.060       61.422        7.040        0.013      328.358       -5.590      872.739
12/16/2013  04:09:00      -77.309       -7.334       -8.682       24.638       16.677       13.131      607.040      278.122      172.415        0.358        0.053       77.656       11.463        0.022      328.305       -5.676      872.728
12/16/2013  04:10:00      -78.067      -12.084      -15.324       17.779       11.486        9.203      316.095      131.930       84.693        0.350        0.027       78.996        5.214        0.004      328.304       -5.676      872.729
12/16/2013  04:11:00      -64.431      -12.138       -7.885       15.304       20.028       11.524      234.205      401.139      132.812        0.256        0.038       65.564        6.182        0.009      328.354       -5.595      872.724
12/16/2013  04:12:00      -61.412      -18.353       -7.748       20.773       17.657       10.888      431.518      311.754      118.545        0.251        0.043       64.096        4.781        0.006      328.473       -5.402      872.732
12/16/2013  04:13:00      -70.509      -12.598       -9.703       17.321       11.722       11.446      300.014      137.408      131.003        0.290        0.028       71.626       10.770        0.023      328.535       -5.302      872.741
12/16/2013  04:14:00      -62.146      -18.704       -2.533       22.579       14.830       15.411      509.832      219.939      237.512        0.259        0.048       64.900       11.628        0.032      328.545       -5.283      872.738
12/16/2013  04:15:00      -72.541      -11.288       -8.463       14.156       15.803       13.238      200.379      249.740      175.242        0.304        0.031       73.414       11.815        0.026      328.568       -5.246      872.725
12/16/2013  04:16:00      -70.864      -13.506       -7.874       12.073       10.142       12.608      145.751      102.851      158.971        0.284        0.020       72.140        8.439        0.014      328.596       -5.200      872.717
12/16/2013  04:17:00      -88.385       -9.016       -9.179       11.589       13.860       13.623      134.311      192.098      185.576        0.424        0.026       88.844        4.797        0.003      328.588       -5.213      872.715
12/16/2013  04:18:00      -81.460       -6.026      -11.396       16.583       14.369       12.057      274.997      206.458      145.370        0.371        0.031       81.682        9.722        0.014      328.563       -5.255      872.727
12/16/2013  04:19:00      -96.642       -1.501      -15.488       13.720       12.391       13.281      188.247      153.537      176.376        0.505        0.026       96.653        5.767        0.004      328.535       -5.301      872.733
12/16/2013  04:20:00     -105.858       -8.162      -13.933       19.393       10.355       11.888      376.097      107.218      141.322        0.605        0.031      106.172        8.687        0.007      328.573       -5.239      872.737
12/16/2013  04:21:00      -99.000      -11.832      -12.830       17.303       15.972       11.319      299.402      255.112      128.124        0.539        0.034       99.705        6.312        0.004      328.599       -5.196      872.732
12/16/2013  04:22:00      -67.003      -27.143      -11.190       15.469       14.653        8.908      239.276      214.701       79.344        0.294        0.027       72.292        4.510        0.004      328.639       -5.132      872.722
12/16/2013  04:23:00      -85.321      -21.652      -15.866       19.189       16.902       13.165      368.228      285.669      173.330        0.441        0.041       88.026       12.894        0.021      328.571       -5.241      872.707
12/16/2013  04:24:00      -75.514      -29.988      -13.847       12.216       16.242        9.622      149.223      263.815       92.583        0.365        0.025       81.250        5.414        0.004      328.549       -5.279      872.704
12/16/2013  04:25:00      -81.447      -17.106       -9.447       37.389       22.892       17.113     1397.972      524.033      292.868        0.461        0.111       83.224       20.568        0.061      328.497       -5.362      872.697
12/16/2013  04:26:00      -79.079        4.248       -1.594       36.779       27.213       16.560     1352.694      740.550      274.219        0.432        0.118       79.193       17.169        0.047      328.480       -5.391      872.690
12/16/2013  04:27:00      -67.898      -22.805      -11.673       22.801       20.744       11.572      519.894      430.303      133.912        0.318        0.054       71.625        7.277        0.010      328.423       -5.484      872.688
12/16/2013  04:28:00      -94.472      -23.892      -14.042       22.475       20.232       16.205      505.147      409.338      262.599        0.543        0.059       97.446        7.287        0.006      328.374       -5.562      872.680
12/16/2013  04:29:00      -92.675      -28.477      -12.292       27.080       21.098       17.912      733.327      445.108      320.843        0.552        0.075       96.952       14.734        0.023      328.356       -5.593      872.676
12/16/2013  04:30:00      -62.400      -27.645       -7.025       23.119       21.317       13.772      534.485      454.409      189.668        0.294        0.059       68.250       10.510        0.024      328.243       -5.777      872.676
12/16/2013  04:31:00      -59.175      -13.933       -9.129       19.207       18.101       11.821      368.909      327.646      139.728        0.231        0.042       60.793       12.524        0.042      328.290       -5.700      872.679
12/16/2013  04:32:00      -90.315      -23.828      -11.517       16.775       16.860       11.851      281.417      284.244      140.438        0.478        0.035       93.406        5.904        0.004      328.308       -5.669      872.679
12/16/2013  04:33:00     -111.569       -7.031      -10.142       24.297       18.508       15.233      590.349      342.542      232.033        0.688        0.058      111.790        5.470        0.002      328.285       -5.708      872.681
12/16/2013  04:34:00      -91.184       -6.501      -13.822       12.139       16.859       10.035      147.363      284.242      100.695        0.454        0.027       91.416        3.823        0.002      328.258       -5.752      872.681
12/16/2013  04:35:00      -59.932        0.326       -9.891       11.479        9.776       10.513      131.762       95.566      110.527        0.201        0.017       59.933        6.472        0.012      328.311       -5.666      872.676
12/16/2013  04:36:00      -44.911       -7.367       -2.673        9.128        8.389        9.961       83.318       70.369       99.225        0.117        0.013       45.511        6.251        0.019      328.619       -5.164      872.678
12/16/2013  04:37:00      -26.171      -24.744        2.137       14.553        8.837       12.314      211.791       78.098      151.629        0.087        0.022       36.017        6.508        0.033      328.585       -5.221      872.675
12/16/2013  04:38:00       -7.473      -15.529       -4.621       10.995       11.335        7.807      120.893      128.473       60.951        0.031        0.016       17.234        4.663        0.073      328.501       -5.357      872.682
12/16/2013  04:39:00        5.177      -19.779       -5.091        8.085        9.733        5.753       65.363       94.738       33.092        0.032        0.010       20.446        4.290        0.044      328.538       -5.297      872.673
12/16/2013  04:40:00        1.355      -13.377        5.653        5.350       12.510        6.951       28.622      156.491       48.312        0.022        0.012       13.445        5.857        0.190      328.669       -5.082      872.655
12/16/2013  04:41:00       -0.417        5.878       10.156        7.259        6.184        4.898       52.697       38.239       23.991        0.013        0.006        5.893        2.518        0.183      328.699       -5.035      872.635
12/16/2013  04:42:00       13.846       11.917        7.831        6.361        8.865        7.437       40.465       78.584       55.309        0.028        0.009       18.268        3.939        0.046      328.731       -4.981      872.621
12/16/2013  04:43:00        0.095        0.140        6.779        5.158        5.289        4.208       26.607       27.978       17.705        0.006        0.004        0.169        1.325       61.547      328.732       -4.980      872.618
12/16/2013  04:44:00      -22.759       -6.883       -5.052       10.291        7.623       10.699      105.911       58.103      114.461        0.043        0.014       23.777        9.287        0.153      328.518       -5.329      872.615
12/16/2013  04:45:00      -39.585      -15.870       -6.484        9.207        9.114        8.493       84.765       83.057       72.125        0.105        0.012       42.648        3.027        0.005      328.462       -5.422      872.605
12/16/2013  04:46:00      -30.812      -20.001       -4.726        8.971        8.545        8.362       80.483       73.015       69.928        0.080        0.011       36.734        6.211        0.029      328.401       -5.519      872.591
12/16/2013  04:47:00      -47.044      -21.733       -4.226       14.839       10.762        9.194      220.207      115.817       84.523        0.156        0.021       51.821        4.617        0.008      328.401       -5.519      872.589
12/16/2013  04:48:00      -55.614      -21.237      -10.000        6.712        7.422        6.795       45.048       55.089       46.174        0.190        0.007       59.531        4.798        0.006      328.386       -5.544      872.582
12/16/2013  04:49:00      -67.387      -13.570      -11.074       11.587       16.635        9.322      134.252      276.716       86.907        0.267        0.025       68.740        8.100        0.014      328.379       -5.554      872.576
12/16/2013  04:50:00      -68.101       -5.408      -11.181       10.200        8.492        7.012      104.031       72.122       49.169        0.251        0.011       68.316        4.232        0.004      328.396       -5.527      872.564
12/16/2013  04:51:00      -39.783      -13.939       -3.563        8.169        7.696        7.514       66.728       59.234       56.457        0.099        0.009       42.154        2.289        0.003      328.482       -5.389      872.566
12/16/2013  04:52:00      -28.703      -17.876       -4.733        9.219        4.743        6.022       84.984       22.500       36.262        0.065        0.007       33.815        1.487        0.002      328.497       -5.366      872.572
12/16/2013  04:53:00      -59.231      -11.460       -9.963       14.821        6.559        5.034      219.660       43.019       25.338        0.201        0.014       60.330        1.326        0.000      328.629       -5.146      872.594
12/16/2013  04:54:00      -50.154       -4.319       -5.589       11.789        6.342        7.411      138.975       40.221       54.925        0.140        0.012       50.340        6.045        0.014      328.617       -5.167      872.605
12/16/2013  04:55:00      -37.000       -2.756       -2.712        6.607        5.354        4.793       43.650       28.663       22.968        0.074        0.005       37.102        2.550        0.005      328.601       -5.193      872.613
12/16/2013  04:56:00      -49.143      -10.258       -3.348        6.567        6.157        6.841       43.129       37.908       46.805        0.133        0.006       50.203        2.769        0.003      328.649       -5.115      872.616
12/16/2013  04:57:00      -36.237      -18.105       -9.229        8.032        5.515        6.080       64.519       30.418       36.970        0.093        0.007       40.508        3.697        0.008      328.616       -5.166      872.620
12/16/2013  04:58:00      -41.332      -11.305       -4.945        7.299        5.549        5.124       53.272       30.790       26.260        0.099        0.006       42.850        3.262        0.006      328.575       -5.234      872.619
12/16/2013  04:59:00      -31.821       -0.635       -5.978       10.867        5.347        6.142      118.093       28.587       37.730        0.062        0.009       31.827        6.797        0.046      328.541       -5.288      872.616
12/16/2013  05:00:00      -23.600       -5.266        1.012        9.755        5.540        4.742       95.161       30.696       22.485        0.037        0.007       24.180        3.810        0.025      328.561       -5.259      872.617
12/16/2013  05:01:00      -26.884       -4.010       -6.341        5.647       12.327        6.568       31.883      151.948       43.141        0.050        0.011       27.181        5.020        0.034      328.493       -5.371      872.617
12/16/2013  05:02:00      -11.435        9.539        1.474       16.377       12.529        8.799      268.192      156.964       77.417        0.036        0.025       14.892        5.605        0.142      328.569       -5.246      872.610
12/16/2013  05:03:00      -36.585        4.204       -8.083       12.010       17.255        7.222      144.232      297.724       52.163        0.096        0.025       36.826        6.797        0.034      328.480       -5.390      872.610
12/16/2013  05:04:00      -52.982      -17.005       -8.104       11.173        8.362        8.666      124.841       69.927       75.105        0.172        0.013       55.644        6.195        0.012      328.338       -5.623      872.605
12/16/2013  05:05:00      -42.685       -5.436       -2.891       26.887        8.983       12.461      722.885       80.703      155.276        0.141        0.048       43.029       15.292        0.126      328.203       -5.841      872.606
12/16/2013  05:06:00      -37.549       -7.664       -7.932        8.057        6.869        5.539       64.919       47.189       30.684        0.084        0.007       38.323        1.353        0.001      328.181       -5.877      872.609
12/16/2013  05:07:00        0.342        9.158       -2.353       13.030       21.019       10.412      169.794      441.793      108.403        0.040        0.036        9.164       10.580        1.333      328.607       -5.185      872.615
12/16/2013  05:08:00       11.085       16.140       -1.546       15.284       17.070       11.682      233.603      291.373      136.472        0.052        0.033       19.580        6.226        0.101      328.847       -4.792      872.632
12/16/2013  05:09:00       17.476        6.271       10.605       11.462        9.411        7.639      131.373       88.572       58.349        0.037        0.014       18.567        6.185        0.111      328.811       -4.850      872.637
12/16/2013  05:10:00      -17.693      -18.309        2.383       14.301       10.769       11.699      204.526      115.979      136.857        0.056        0.023       25.461        6.024        0.056      328.485       -5.382      872.636
12/16/2013  05:11:00      -32.886       -8.666       -7.371        7.677        6.654        5.442       58.936       44.277       29.618        0.067        0.007       34.008        2.051        0.004      328.386       -5.544      872.632
12/16/2013  05:12:00      -24.243        0.951       -4.236        7.508        4.166        9.407       56.373       17.351       88.491        0.038        0.008       24.262        5.232        0.047      328.438       -5.458      872.643
12/16/2013  05:13:00       15.413       27.519       -0.203       13.267       12.020        8.985      176.019      144.469       80.726        0.070        0.020       31.541       10.089        0.102      328.642       -5.127      872.678
12/16/2013  05:14:00       24.875       21.921        0.012        7.566       12.866        8.059       57.239      165.535       64.949        0.069        0.014       33.156        7.575        0.052      328.637       -5.135      872.708
12/16/2013  05:15:00       27.375       41.361       -6.303       10.679       18.137        6.875      114.044      328.966       47.268        0.149        0.025       49.600        6.956        0.020      328.688       -5.051      872.719
12/16/2013  05:16:00       21.190       42.546       -4.306       10.203       20.722        7.722      104.100      429.418       59.635        0.144        0.030       47.531        8.398        0.031      328.682       -5.062      872.715
12/16/2013  05:17:00       22.935       57.739       -6.947       10.946       14.967        7.014      119.813      224.023       49.203        0.215        0.020       62.127        6.638        0.011      328.739       -4.970      872.706
12/16/2013  05:18:00       23.234       62.830       -6.766       11.206       16.033        7.128      125.579      257.053       50.808        0.248        0.022       66.988        7.304        0.012      328.802       -4.864      872.704
12/16/2013  05:19:00       22.196       62.082       -7.895       13.257       20.307       10.488      175.739      412.361      109.992        0.255        0.035       65.930        7.007        0.011      328.776       -4.909      872.714
12/16/2013  05:20:00       19.096       41.440       -8.779       14.827       27.296       11.952      219.833      745.088      142.850        0.163        0.055       45.628       12.023        0.069      328.774       -4.911      872.736
12/16/2013  05:21:00       11.350       51.426       -7.676       15.532       21.376       10.965      241.235      456.935      120.230        0.183        0.041       52.664        7.573        0.021      328.802       -4.867      872.771
12/16/2013  05:22:00       -2.176       61.031       -5.234       11.287       14.842        7.609      127.405      220.295       57.892        0.208        0.020       61.070        5.471        0.008      328.900       -4.705      872.800
12/16/2013  05:23:00      -41.877       -2.878       -5.687       15.954       21.475        9.035      254.531      461.180       81.629        0.130        0.040       41.976        5.651        0.018      328.337       -5.624      872.812
12/16/2013  05:24:00      -47.880      -10.533       -4.335       12.447       13.028        8.012      154.929      169.734       64.196        0.141        0.019       49.025        4.837        0.010      328.109       -5.995      872.823
12/16/2013  05:25:00      -48.034       -1.816       -9.783        9.585       10.192       10.087       91.863      103.870      101.740        0.135        0.015       48.068        8.306        0.030      328.088       -6.030      872.831
12/16/2013  05:26:00      -70.023      -21.816       -3.719       13.996       16.648       11.343      195.889      277.156      128.657        0.300        0.030       73.343       11.480        0.025      328.333       -5.629      872.837
12/16/2013  05:27:00      -55.473      -10.614       -8.119       11.923       11.395        8.997      142.155      129.841       80.942        0.180        0.018       56.479        6.464        0.013      328.346       -5.609      872.851
12/16/2013  05:28:00      -24.388      -29.806       -7.716       13.963        8.190        6.135      194.956       67.072       37.632        0.092        0.015       38.513        4.471        0.013      328.652       -5.109      872.873
12/16/2013  05:29:00      -45.560      -22.298       -9.778       10.359       10.538        6.428      107.311      111.042       41.322        0.146        0.013       50.724        3.900        0.006      328.458       -5.427      872.891
12/16/2013  05:30:00      -57.618      -18.629       -7.392        6.541        6.757        8.427       42.779       45.660       71.020        0.194        0.008       60.554        5.634        0.009      328.391       -5.535      872.903
12/16/2013  05:31:00      -66.300       -9.432      -10.184        8.477        9.661        9.203       71.867       93.344       84.702        0.242        0.012       66.968        5.049        0.006      328.367       -5.573      872.912
12/16/2013  05:32:00      -69.545      -11.645       -7.970       18.585       13.065        7.849      345.396      170.701       61.611        0.281        0.029       70.513        7.362        0.011      328.429       -5.474      872.923
12/16/2013  05:33:00      -89.404       -9.260       -7.570       13.444       11.189        9.131      180.730      125.202       83.370        0.426        0.019       89.882        8.054        0.008      328.445       -5.447      872.934
12/16/2013  05:34:00      -96.231       -9.230      -14.243       25.521        9.666       13.783      651.302       93.433      189.982        0.524        0.047       96.672       11.360        0.014      328.490       -5.374      872.957
12/16/2013  05:35:00      -43.216      -12.458       -6.987       12.604       11.842        8.296      158.857      140.240       68.817        0.122        0.018       44.976        7.314        0.026      328.541       -5.292      872.982
12/16/2013  05:36:00      -21.823      -22.258       -5.384        8.430        7.395        5.576       71.060       54.681       31.090        0.058        0.008       31.172        3.388        0.012      328.732       -4.981      872.996
12/16/2013  05:37:00        2.936      -13.184       -1.971       12.586        9.575        5.712      158.407       91.671       32.624        0.023        0.014       13.507        2.660        0.039      328.868       -4.758      873.012
12/16/2013  05:38:00       27.594        8.672        4.125       11.820        6.486        7.797      139.723       42.072       60.786        0.055        0.012       28.925        3.896        0.018      329.043       -4.472      873.017
12/16/2013  05:39:00        0.886       -6.976        7.796       14.229       14.236        9.214      202.455      202.670       84.898        0.030        0.025        7.032       10.993        2.444      329.026       -4.500      873.020
12/16/2013  05:40:00      -24.725      -15.125       -0.233       12.986        6.896        7.036      168.643       47.558       49.504        0.055        0.013       28.984        6.616        0.052      328.864       -4.765      873.026
12/16/2013  05:41:00      -23.517      -18.534       -3.544        9.201        6.571        5.036       84.656       43.175       25.359        0.053        0.008       29.942        3.963        0.018      328.726       -4.989      873.026
12/16/2013  05:42:00      -27.636      -16.930       -6.046        8.090        8.330        5.851       65.453       69.391       34.231        0.063        0.008       32.410        2.548        0.006      328.810       -4.853      873.025
12/16/2013  05:43:00      -16.015      -24.449        4.979        7.396       10.396        7.797       54.700      108.069       60.800        0.055        0.011       29.227        4.624        0.025      328.965       -4.600      873.024
12/16/2013  05:44:00        3.908      -14.368        5.530        7.976       11.000        6.693       63.622      121.004       44.796        0.024        0.011       14.891        5.080        0.116      328.951       -4.624      873.034
12/16/2013  05:45:00       -3.204      -18.317        5.722       13.119        9.877        7.996      172.121       97.548       63.929        0.036        0.017       18.595        5.356        0.083      328.966       -4.598      873.042
12/16/2013  05:46:00      -41.153      -12.599       -6.251        6.940        8.763        4.653       48.168       76.791       21.654        0.102        0.007       43.039        2.675        0.004      328.577       -5.233      873.041
12/16/2013  05:47:00      -44.504      -13.824       -3.918       12.977       10.592        8.545      168.404      112.193       73.014        0.127        0.018       46.601        7.303        0.025      328.622       -5.158      873.036
12/16/2013  05:48:00      -22.399       -5.101       -1.384        9.789        6.701        5.718       95.829       44.899       32.698        0.035        0.009       22.973        2.074        0.008      328.717       -5.002      873.036
12/16/2013  05:49:00      -24.962      -10.665       -6.359        9.095        4.672        3.492       82.714       21.824       12.195        0.045        0.006       27.145        2.125        0.006      328.699       -5.032      873.031
12/16/2013  05:50:00       -4.253      -19.794       -0.398       10.903        9.394        6.111      118.879       88.241       37.343        0.033        0.012       20.245        1.912        0.009      328.955       -4.615      873.029
12/16/2013  05:51:00       13.513      -31.247        8.687       12.423       14.452       14.477      154.327      208.865      209.583        0.090        0.029       34.043        9.332        0.075      329.004       -4.536      873.039
12/16/2013  05:52:00       -1.890      -40.170        0.089       18.348       10.704       14.294      336.643      114.571      204.316        0.114        0.033       40.215        9.179        0.052      329.027       -4.499      873.049
12/16/2013  05:53:00      -12.078      -14.582       11.900       13.307       17.966       21.851      177.072      322.781      477.474        0.074        0.049       18.935        9.430        0.248      329.004       -4.534      873.047
12/16/2013  05:54:00      -12.202        6.601       19.414       21.207       17.156       11.883      449.741      294.326      141.206        0.073        0.044       13.873       12.716        0.840      329.089       -4.397      873.043
12/16/2013  05:55:00      -17.224       19.414       10.942       12.137       12.851       11.071      147.312      165.161      122.576        0.061        0.022       25.953        7.264        0.078      328.943       -4.636      873.053
12/16/2013  05:56:00      -13.851       -6.408        3.238       13.083       17.928       10.350      171.157      321.414      107.121        0.042        0.030       15.261        9.054        0.352      328.700       -5.032      873.067
12/16/2013  05:57:00      -40.402       -8.022       -4.364        8.254        8.823       10.087       68.124       77.849      101.756        0.098        0.012       41.191        4.374        0.011      328.654       -5.105      873.091
12/16/2013  05:58:00      -23.931        2.558        0.720       10.040        8.139        7.629      100.797       66.251       58.205        0.040        0.011       24.068        3.551        0.022      328.711       -5.013      873.111
12/16/2013  05:59:00      -35.996       -0.251       -7.171       14.135        7.910        8.080      199.809       62.563       65.280        0.084        0.016       35.997        2.330        0.004      328.681       -5.062      873.119
12/16/2013  06:00:00      -45.144       -4.200        1.261       19.718       16.523        9.769      388.806      272.999       95.438        0.141        0.038       45.339        8.716        0.037      328.567       -5.248      873.122
12/16/2013  06:01:00      -47.216      -48.130        2.207       39.717       31.560       26.814     1577.451      996.039      718.971        0.392        0.165       67.423       19.703        0.085      328.696       -5.037      873.120
12/16/2013  06:02:00      -42.935      -60.755        0.361       63.544       29.765       30.470     4037.853      885.975      928.441        0.569        0.293       74.395       12.051        0.026      328.747       -4.956      873.120
12/16/2013  06:03:00      -52.118      -49.994        5.658       61.191       37.975       27.090     3744.399     1442.091      733.870        0.558        0.296       72.220       22.979        0.101      328.671       -5.080      873.113
12/16/2013  06:04:00      -89.202      -62.399        4.190       63.535       42.796       36.274     4036.707     1831.518     1315.800        0.952        0.359      108.860       33.199        0.093      328.604       -5.188      873.104
12/16/2013  06:05:00      -88.119      -80.120       -8.318       45.589       40.416       25.997     2078.372     1633.462      675.861        0.932        0.219      119.097       11.410        0.009      328.658       -5.100      873.098
12/16/2013  06:06:00     -102.061      -89.337       -3.610       34.141       45.661       24.789     1165.604     2084.956      614.505        1.114        0.193      135.637       16.644        0.015      328.638       -5.133      873.090
12/16/2013  06:07:00      -72.863      -55.515        2.197       35.312       34.057       19.114     1246.968     1159.912      365.363        0.558        0.139       91.602       15.092        0.027      328.653       -5.109      873.102
12/16/2013  06:08:00      -56.989      -44.851        0.268       30.854       28.355       17.612      951.963      803.994      310.171        0.366        0.103       72.521       18.173        0.063      328.623       -5.157      873.125
12/16/2013  06:09:00      -37.145      -35.359        2.814       36.998       22.292       15.802     1368.825      496.955      249.701        0.238        0.106       51.284       15.544        0.092      328.602       -5.191      873.156
12/16/2013  06:10:00      -59.806      -26.335       -2.061       30.349       21.418       11.039      921.036      458.745      121.865        0.289        0.075       65.347        8.694        0.018      328.545       -5.285      873.191
12/16/2013  06:11:00      -54.869      -34.096        1.326       37.009       23.135       17.237     1369.677      535.242      297.102        0.319        0.110       64.600       17.290        0.072      328.527       -5.314      873.214
12/16/2013  06:12:00      -59.325      -37.489        1.826       52.752       20.797       19.015     2782.766      432.525      361.559        0.425        0.179       70.178       22.081        0.099      328.563       -5.255      873.233
12/16/2013  06:13:00      -72.989      -37.522       -5.704       37.514       19.669       19.326     1407.315      386.871      373.498        0.447        0.108       82.069       14.577        0.032      328.564       -5.254      873.255
12/16/2013  06:14:00      -85.616      -55.921        2.126       28.533       23.359       18.544      814.154      545.628      343.883        0.608        0.085      102.260       16.916        0.027      328.498       -5.360      873.289
12/16/2013  06:15:00     -100.836      -56.375        2.158       30.830       36.603       19.097      950.494     1339.805      364.713        0.800        0.133      115.525       15.146        0.017      328.482       -5.388      873.308
12/16/2013  06:16:00      -98.638      -60.576        2.558       31.009       24.272       18.818      961.569      589.121      354.120        0.765        0.095      115.754       12.833        0.012      328.467       -5.413      873.325
12/16/2013  06:17:00      -88.975      -50.986       -7.401       29.286       25.813       17.274      857.682      666.319      298.401        0.620        0.091      102.548        8.267        0.006      328.460       -5.423      873.342
12/16/2013  06:18:00     -137.038      -45.955       -4.889       20.447       21.926       13.673      418.062      480.743      186.940        1.100        0.054      144.538       11.275        0.006      328.474       -5.399      873.345
12/16/2013  06:19:00      -93.022      -58.658       -3.494       39.602       20.945       17.980     1568.305      438.712      323.279        0.722        0.117      109.972       15.551        0.020      328.484       -5.384      873.351
12/16/2013  06:20:00      -94.166      -38.295       -5.184       26.433       22.921       13.577      698.703      525.388      184.339        0.588        0.070      101.655       10.074        0.010      328.543       -5.288      873.355
12/16/2013  06:21:00      -75.754      -45.252        2.520       31.011       22.404       17.863      961.660      501.928      319.077        0.479        0.089       88.241       17.996        0.042      328.498       -5.361      873.369
12/16/2013  06:22:00      -86.094      -22.786       -1.744       17.093       27.169       14.497      292.171      738.128      210.171        0.459        0.062       89.059        8.918        0.010      328.526       -5.317      873.385
12/16/2013  06:23:00      -69.568      -15.366        1.862       26.634       20.197       15.192      709.368      407.935      230.795        0.321        0.067       71.245       14.751        0.043      328.473       -5.402      873.398
12/16/2013  06:24:00     -116.324       -7.196       -7.238       35.851       21.010       15.724     1285.278      441.416      247.250        0.780        0.099      116.547       17.845        0.023      328.365       -5.578      873.404
12/16/2013  06:25:00      -73.194      -28.096        2.767       35.115       27.890       19.885     1233.077      777.835      395.419        0.428        0.120       78.401       20.137        0.066      328.329       -5.636      873.414
12/16/2013  06:26:00      -75.506      -12.307        1.167       41.942       20.189       15.655     1759.165      407.593      245.085        0.413        0.121       76.502       17.684        0.053      328.331       -5.634      873.419
12/16/2013  06:27:00      -93.707       -0.426        0.151       41.902       23.991       18.748     1755.763      575.569      351.490        0.573        0.134       93.708       20.565        0.048      328.261       -5.747      873.423
12/16/2013  06:28:00     -112.025      -15.505       -4.708       37.219       24.845       14.416     1385.243      617.264      207.820        0.751        0.111      113.093       13.508        0.014      328.275       -5.724      873.430
12/16/2013  06:29:00     -100.987      -27.115       -1.297       23.276       21.627       15.528      541.763      467.747      241.112        0.609        0.063      104.564       12.385        0.014      328.368       -5.574      873.444
12/16/2013  06:30:00      -80.375      -16.308        0.913       36.394       25.648       17.072     1324.501      657.810      291.464        0.450        0.114       82.013       16.152        0.039      328.357       -5.592      873.461
12/16/2013  06:31:00     -114.588        4.464       -9.916       33.145       21.055       15.957     1098.592      443.325      254.624        0.752        0.090      114.675       16.216        0.020      328.205       -5.839      873.481
12/16/2013  06:32:00     -103.424       -7.625       -6.773       43.291       21.002       16.349     1874.124      441.099      267.284        0.669        0.129      103.705       18.985        0.034      328.269       -5.734      873.507
12/16/2013  06:33:00      -83.323       -5.815       -1.944       27.312       21.357       15.781      745.948      456.122      249.028        0.422        0.073       83.526       14.378        0.030      328.274       -5.727      873.514
12/16/2013  06:34:00      -88.268      -11.376       -4.941       29.180       17.043       17.175      851.453      290.464      294.969        0.469        0.072       88.998       15.334        0.030      328.304       -5.677      873.527
12/16/2013  06:35:00      -76.775       -9.953       -6.047       33.916       16.206       16.321     1150.275      262.623      266.362        0.385        0.084       77.418       19.984        0.067      328.337       -5.623      873.539
12/16/2013  06:36:00     -110.444       -0.244      -10.355       20.854       15.650       12.933      434.876      244.915      167.260        0.658        0.042      110.445       10.250        0.009      328.409       -5.507      873.551
12/16/2013  06:37:00     -105.547        7.865       -9.132       29.289       18.944       15.373      857.861      358.859      236.320        0.637        0.073      105.839       13.528        0.016      328.450       -5.440      873.566
12/16/2013  06:38:00     -126.265        7.825      -16.813       18.019       16.719       10.009      324.688      279.521      100.185        0.850        0.035      126.507        6.317        0.002      328.448       -5.442      873.587
12/16/2013  06:39:00      -98.916        7.165       -9.115       23.025       14.451       13.843      530.167      208.844      191.619        0.542        0.047       99.176       11.785        0.014      328.433       -5.467      873.606
12/16/2013  06:40:00      -76.521       -7.655       -9.376       25.119       20.654       13.590      630.979      426.593      184.676        0.362        0.062       76.903       11.125        0.021      328.468       -5.411      873.626
12/16/2013  06:41:00      -58.615      -36.269       -2.621       17.008       20.574       13.952      289.277      423.307      194.658        0.283        0.045       68.929        7.112        0.011      328.429       -5.472      873.633
12/16/2013  06:42:00      -65.435      -26.609       -0.942       19.610       18.485       10.725      384.565      341.691      115.025        0.292        0.042       70.638        7.901        0.013      328.507       -5.347      873.642
12/16/2013  06:43:00      -75.061      -18.322       -5.676       12.478       15.660       10.042      155.700      245.234      100.841        0.325        0.025       77.265        8.278        0.011      328.436       -5.463      873.641
12/16/2013  06:44:00      -66.969        0.027       -4.200       18.210       10.032       11.721      331.592      100.640      137.375        0.254        0.028       66.969        7.987        0.014      328.467       -5.412      873.640
12/16/2013  06:45:00      -43.850       -0.307       -6.911       16.515        8.280        7.434      272.739       68.559       55.263        0.118        0.020       43.851        5.964        0.019      328.602       -5.192      873.643
12/16/2013  06:46:00      -26.674      -10.867       -4.066        6.015        6.372        6.367       36.180       40.604       40.543        0.048        0.006       28.803        4.230        0.022      328.683       -5.059      873.638
12/16/2013  06:47:00      -11.199       -5.923        3.730       10.951        5.535        8.492      119.914       30.636       72.120        0.020        0.011       12.669        8.448        0.445      328.751       -4.948      873.625
12/16/2013  06:48:00       -1.213       -6.253        0.909        4.015        4.329        5.570       16.117       18.742       31.025        0.005        0.003        6.369        1.981        0.097      328.749       -4.952      873.619
12/16/2013  06:49:00        1.161      -22.433        5.650       11.937       10.966        8.762      142.497      120.257       76.778        0.044        0.017       22.463        5.651        0.063      328.839       -4.804      873.622
12/16/2013  06:50:00      -24.367      -16.162       -3.003       11.177        5.785        8.557      124.926       33.462       73.220        0.055        0.012       29.240        8.432        0.083      328.725       -4.993      873.640
12/16/2013  06:51:00      -41.979      -13.353       -4.007        7.525        7.774        4.053       56.622       60.435       16.423        0.105        0.007       44.051        2.478        0.003      328.679       -5.067      873.647
12/16/2013  06:52:00      -40.107      -20.175       -3.260        8.123        6.296        5.181       65.988       39.638       26.844        0.108        0.007       44.896        4.608        0.011      328.643       -5.125      873.655
12/16/2013  06:53:00       -7.978      -14.234       -2.959       13.071       11.769        5.818      170.843      138.519       33.845        0.031        0.017       16.318        1.465        0.008      328.635       -5.138      873.654
12/16/2013  06:54:00       24.082        7.300        1.909       12.773        8.822        8.710      163.162       77.824       75.861        0.048        0.016       25.164        4.384        0.030      328.714       -5.010      873.652
12/16/2013  06:55:00       32.101       23.583        3.097        7.460        8.281        7.399       55.655       68.578       54.740        0.089        0.009       39.833        4.751        0.014      328.675       -5.073      873.673
12/16/2013  06:56:00       29.240       20.480       -0.902       11.096        8.442        7.862      123.119       71.267       61.805        0.077        0.013       35.699        7.505        0.044      328.709       -5.017      873.696
12/16/2013  06:57:00       24.165        7.819       -0.637       10.633        8.740        7.535      113.071       76.379       56.770        0.045        0.012       25.399        6.151        0.059      328.794       -4.877      873.715
12/16/2013  06:58:00       -1.522       -8.553        5.152        3.778        6.706        4.453       14.270       44.971       19.830        0.009        0.004        8.687        2.302        0.070      328.865       -4.762      873.714
12/16/2013  06:59:00       -1.588       -3.142        5.819        3.698        5.514        4.187       13.677       30.401       17.530        0.005        0.003        3.520        0.820        0.054      328.827       -4.824      873.715
12/16/2013  07:00:00        7.962       16.002        7.198       12.852        7.264        5.648      165.169       52.773       31.900        0.031        0.012       17.873        3.573        0.040      328.782       -4.895      873.712
12/16/2013  07:01:00       23.541       21.741       14.024        5.551        5.289        5.736       30.811       27.976       32.900        0.066        0.005       32.044        4.309        0.018      328.783       -4.897      873.719
12/16/2013  07:02:00       22.643       21.926        7.259        7.404        6.025        7.395       54.822       36.304       54.686        0.060        0.007       31.519        4.932        0.024      328.752       -4.946      873.737
12/16/2013  07:03:00        5.498       29.974       -3.665       10.177        7.523        4.681      103.561       56.598       21.915        0.056        0.009       30.474        3.972        0.017      328.710       -5.016      873.760
12/16/2013  07:04:00      -30.319       18.277       -0.785       19.238       15.324       10.998      370.117      234.822      120.957        0.099        0.036       35.402        5.697        0.026      328.558       -5.264      873.772
12/16/2013  07:05:00      -56.809      -10.818       -6.298        7.064       10.882        6.120       49.905      118.412       37.454        0.179        0.010       57.829        3.966        0.005      328.374       -5.565      873.778
12/16/2013  07:06:00      -84.465      -13.526      -10.532       20.719       18.771       11.053      429.290      352.332      122.163        0.417        0.045       85.541        7.874        0.008      328.277       -5.722      873.784
12/16/2013  07:07:00      -69.292       -7.827       -6.012       14.352       13.838       11.530      205.993      191.484      132.941        0.271        0.027       69.733        7.062        0.010      328.217       -5.819      873.792
12/16/2013  07:08:00      -81.623       -7.372      -10.505       18.338       12.780       11.251      336.282      163.316      126.593        0.373        0.031       81.955        7.443        0.008      328.242       -5.778      873.810
12/16/2013  07:09:00      -76.946      -14.116       -7.429       13.619       11.592        7.227      185.478      134.380       52.233        0.327        0.019       78.230        3.926        0.003      328.220       -5.815      873.819
12/16/2013  07:10:00      -69.883      -18.143       -7.155       15.590       16.041       10.574      243.043      257.308      111.815        0.294        0.031       72.200        8.101        0.013      328.239       -5.783      873.820
12/16/2013  07:11:00      -70.580      -16.931       -9.459       11.240       11.539        7.847      126.329      133.152       61.583        0.284        0.016       72.583        4.374        0.004      328.193       -5.859      873.813
12/16/2013  07:12:00      -81.352      -10.265       -8.644       15.048       16.299       12.205      226.430      265.645      148.959        0.372        0.032       81.997        9.292        0.013      328.161       -5.910      873.807
12/16/2013  07:13:00      -73.566        8.937       -6.166       18.483       21.869       16.611      341.634      478.263      275.913        0.331        0.055       74.107       14.361        0.038      328.138       -5.948      873.801
12/16/2013  07:14:00      -68.876       -5.883       -7.681       19.064       11.560        8.989      363.454      133.631       80.801        0.271        0.029       69.127        8.448        0.015      328.293       -5.695      873.810
12/16/2013  07:15:00      -77.250       -7.709       -5.745       15.647       12.804       11.344      244.844      163.950      128.685        0.330        0.027       77.633        9.921        0.016      328.262       -5.746      873.800
12/16/2013  07:16:00      -62.618      -14.741       -4.196       14.462       14.631       10.110      209.144      214.077      102.203        0.234        0.026       64.330        7.963        0.015      328.331       -5.634      873.798
12/16/2013  07:17:00      -61.879      -14.647       -1.783       13.424       11.502        8.696      180.210      132.295       75.622        0.222        0.019       63.589        2.522        0.002      328.348       -5.604      873.787
12/16/2013  07:18:00      -57.881      -17.641       -5.567       11.421       12.354        8.058      130.434      152.631       64.929        0.202        0.017       60.509        4.824        0.006      328.300       -5.684      873.784
12/16/2013  07:19:00      -26.751      -22.003        1.111       23.099       12.041       12.110      533.572      144.995      146.649        0.101        0.041       34.637       14.157        0.167      328.385       -5.546      873.784
12/16/2013  07:20:00      -31.419       -7.820       -1.162       15.684       13.199        9.940      245.999      174.203       98.800        0.078        0.026       32.377        9.139        0.080      328.414       -5.499      873.788
12/16/2013  07:21:00      -56.468        8.433       -3.647       23.747        8.803        8.728      563.944       77.485       76.182        0.200        0.036       57.094       10.189        0.032      328.388       -5.541      873.793
12/16/2013  07:22:00      -55.588        9.835       -6.428       10.749        7.302        7.283      115.535       53.320       53.041        0.172        0.011       56.451        5.367        0.009      328.417       -5.492      873.794
12/16/2013  07:23:00      -54.677        3.547       -7.770        7.228        7.448        6.514       52.247       55.471       42.433        0.161        0.008       54.792        2.011        0.001      328.460       -5.424      873.782
12/16/2013  07:24:00      -47.189        1.656       -2.701       12.879        7.205        7.314      165.861       51.917       53.492        0.125        0.014       47.218        6.803        0.021      328.493       -5.372      873.775
12/16/2013  07:25:00      -36.621      -17.931       -2.351       12.670       14.013        6.221      160.520      196.360       38.704        0.103        0.020       40.775        5.603        0.019      328.452       -5.436      873.773
12/16/2013  07:26:00      -36.998      -11.116       -7.175        8.529        6.765        6.163       72.736       45.765       37.987        0.085        0.008       38.631        3.594        0.009      328.410       -5.506      873.773
12/16/2013  07:27:00      -24.834       -0.726       -3.989        7.825        9.387        5.478       61.228       88.111       30.006        0.041        0.009       24.845        5.235        0.044      328.436       -5.461      873.787
12/16/2013  07:28:00      -25.959        6.879       -8.342        6.574        6.638        5.927       43.216       44.063       35.135        0.046        0.006       26.855        4.236        0.025      328.522       -5.324      873.805
12/16/2013  07:29:00      -38.048       10.044       -6.414        6.185        6.295        4.791       38.250       39.623       22.955        0.085        0.005       39.352        2.040        0.003      328.483       -5.386      873.827
12/16/2013  07:30:00      -28.931       -5.467       -7.397       15.795        8.486        7.094      249.491       72.006       50.321        0.065        0.019       29.443        5.666        0.037      328.654       -5.106      873.848
12/16/2013  07:31:00      -15.377        3.741        4.309        9.019        6.408        7.796       81.349       41.063       60.771        0.023        0.009       15.826        4.968        0.099      328.673       -5.075      873.877
12/16/2013  07:32:00        9.841        8.994       11.298       11.060        7.801        8.553      122.315       60.863       73.152        0.028        0.013       13.331        5.620        0.178      328.642       -5.125      873.901
12/16/2013  07:33:00       38.343       17.772        6.660       12.897       11.746        9.761      166.337      137.960       95.277        0.111        0.020       42.261        5.336        0.016      328.574       -5.238      873.922
12/16/2013  07:34:00       48.006       25.722        0.376       24.316       17.882       15.572      591.258      319.773      242.472        0.206        0.058       54.462       12.365        0.052      328.473       -5.402      873.943
12/16/2013  07:35:00       32.119       12.895        5.700       22.154       14.551       13.793      490.791      211.723      190.252        0.106        0.045       34.611        7.036        0.041      328.460       -5.422      873.952
12/16/2013  07:36:00       53.143       21.688        3.495       11.850       11.347       10.991      140.416      128.751      120.795        0.185        0.019       57.398        2.698        0.002      328.434       -5.466      873.955
12/16/2013  07:37:00       28.902       22.336       10.966       17.380       13.956       15.206      302.072      194.766      231.231        0.109        0.036       36.527        9.952        0.074      328.466       -5.412      873.963
12/16/2013  07:38:00       34.539       22.025        9.138       14.725       13.494        9.531      216.812      182.077       90.841        0.113        0.024       40.964        5.337        0.017      328.449       -5.441      873.974
12/16/2013  07:39:00       14.723       25.967       -0.704       12.566       14.432        8.153      157.909      208.294       66.476        0.066        0.022       29.851        3.616        0.015      328.412       -5.501      873.974
12/16/2013  07:40:00       32.682       22.781        4.658       17.018       11.695       11.428      289.598      136.779      130.610        0.108        0.028       39.838        9.512        0.057      328.421       -5.488      873.985
12/16/2013  07:41:00       54.686       20.777        7.984       10.547       12.119       11.040      111.229      146.863      121.873        0.193        0.019       58.500        3.605        0.004      328.473       -5.401      873.996
12/16/2013  07:42:00       46.802       30.335       15.885       13.873       16.187       15.370      192.456      262.021      236.229        0.203        0.035       55.773        9.624        0.030      328.487       -5.381      874.005
12/16/2013  07:43:00       62.037       38.107        9.044       11.461       10.501       12.054      131.343      110.263      145.302        0.288        0.019       72.806        7.031        0.009      328.434       -5.464      874.001
12/16/2013  07:44:00       44.116       37.813        4.689       15.163        8.136       11.827      229.931       66.193      139.879        0.192        0.022       58.104        4.256        0.005      328.507       -5.346      873.997
12/16/2013  07:45:00        2.328       -2.878       19.903        9.218       11.454        6.804       84.978      131.202       46.294        0.034        0.013        3.702        5.621        2.305      328.730       -4.983      874.006
12/16/2013  07:46:00       11.684       14.789        9.067       12.786       10.057        8.483      163.479      101.146       71.955        0.039        0.017       18.848        7.773        0.170      328.618       -5.165      874.019
12/16/2013  07:47:00       49.361       33.117       -0.958       13.448       11.587       10.456      180.852      134.250      109.325        0.198        0.021       59.441        9.196        0.024      328.475       -5.399      874.029
12/16/2013  07:48:00       32.535       42.881        1.658       15.476       14.742       14.067      239.514      217.340      197.879        0.178        0.033       53.827       11.415        0.045      328.448       -5.444      874.028
12/16/2013  07:49:00       24.664       50.817        2.828       15.080       17.955       15.641      227.414      322.387      244.655        0.200        0.040       56.486       13.416        0.056      328.409       -5.505      874.034
12/16/2013  07:50:00       68.554       40.568       -4.745       19.542       20.125       15.072      381.883      405.030      227.160        0.369        0.051       79.658        8.915        0.013      328.370       -5.571      874.036
12/16/2013  07:51:00       83.449       40.500        2.598       32.195       16.926       26.546     1036.525      286.490      704.696        0.532        0.101       92.757        9.867        0.011      328.329       -5.638      874.041
12/16/2013  07:52:00       56.379       21.310       -1.395       23.884       17.661       20.112      570.457      311.923      404.479        0.246        0.064       60.272       12.035        0.040      328.305       -5.676      874.039
12/16/2013  07:53:00       37.920       47.753        0.037       19.513       23.075       17.052      380.747      532.463      290.763        0.246        0.060       60.978       15.713        0.066      328.301       -5.683      874.050
12/16/2013  07:54:00       53.686       51.927       -5.293       20.853       12.933       13.483      434.846      167.271      181.790        0.320        0.039       74.690        6.633        0.008      328.291       -5.698      874.069
12/16/2013  07:55:00       72.259       40.640       -2.984       21.456       18.632       13.975      460.372      347.160      195.299        0.394        0.050       82.904        8.576        0.011      328.303       -5.679      874.081
12/16/2013  07:56:00       93.082       48.110        9.505       28.763       28.165       24.807      827.315      793.285      615.380        0.665        0.112      104.780       16.930        0.026      328.260       -5.749      874.106
12/16/2013  07:57:00       76.935       37.737        1.678       32.392       25.721       21.877     1049.225      661.563      478.601        0.477        0.109       85.692        5.517        0.004      328.269       -5.733      874.132
12/16/2013  07:58:00       67.455       55.595       10.174       38.575       34.741       26.946     1488.060     1206.969      726.110        0.558        0.171       87.412       23.883        0.075      328.289       -5.702      874.132
12/16/2013  07:59:00       59.954       44.409        2.817       38.611       27.394       22.006     1490.797      750.450      484.245        0.415        0.136       74.610       14.354        0.037      328.325       -5.642      874.149
12/16/2013  08:00:00       94.173       48.414        5.583       21.909       24.661       22.678      480.021      608.173      514.278        0.642        0.080      105.889       11.575        0.012      328.261       -5.746      874.156
12/16/2013  08:01:00       48.850       22.554       -2.547       23.995       22.668       19.683      575.744      513.847      387.436        0.219        0.074       53.805       15.784        0.086      328.372       -5.567      874.153
12/16/2013  08:02:00       75.971       40.859       19.260       22.356       20.280       18.409      499.795      411.285      338.893        0.453        0.062       86.261        6.641        0.006      328.303       -5.679      874.156
12/16/2013  08:03:00       51.338       61.108       18.729       19.243       12.837       17.271      370.307      164.787      298.271        0.378        0.042       79.811        5.841        0.005      328.342       -5.615      874.153
12/16/2013  08:04:00       51.416       52.783       25.367       26.956       19.580       29.671      726.612      383.383      880.349        0.403        0.100       73.686       14.069        0.036      328.473       -5.402      874.135
12/16/2013  08:05:00       63.569       41.766       30.563       28.980       26.090       29.022      839.867      680.706      842.291        0.454        0.118       76.062       13.845        0.033      328.530       -5.309      874.137
12/16/2013  08:06:00       89.595       54.354        9.716       24.196       21.836       23.698      585.466      476.823      561.588        0.635        0.081      104.793       17.198        0.027      328.430       -5.472      874.131
12/16/2013  08:07:00       82.920       59.871       23.259       32.336       20.397       23.387     1045.636      416.052      546.934        0.650        0.100      102.276       18.130        0.031      328.438       -5.460      874.154
12/16/2013  08:08:00      113.303       79.421        2.300       28.174       20.208       20.775      793.794      408.360      431.602        1.039        0.082      138.366       14.636        0.011      328.390       -5.538      874.160
12/16/2013  08:09:00      123.961       62.801       10.629       27.215       22.707       27.894      740.633      515.595      778.076        1.073        0.102      138.961        7.305        0.003      328.423       -5.484      874.177
12/16/2013  08:10:00       98.045       53.583        1.819       28.992       19.020       20.590      840.512      361.757      423.944        0.706        0.081      111.731       12.117        0.012      328.483       -5.386      874.177
12/16/2013  08:11:00       42.308       36.122       -1.256       20.426       20.714       23.137      417.205      429.088      535.306        0.224        0.069       55.631       16.516        0.088      328.597       -5.198      874.195
12/16/2013  08:12:00       56.654       64.739       -3.310       45.401       22.193       19.445     2061.257      492.533      378.096        0.517        0.147       86.028       16.293        0.036      328.581       -5.227      874.216
12/16/2013  08:13:00       74.448       58.208       -0.502       30.939       13.852       21.603      957.228      191.877      466.689        0.527        0.081       94.502       11.437        0.015      328.585       -5.220      874.232
12/16/2013  08:14:00       66.034       44.649        3.683       19.636       24.977       21.619      385.588      623.868      467.377        0.392        0.074       79.712       12.112        0.023      328.651       -5.112      874.228
12/16/2013  08:15:00       49.080       53.330      -11.073       23.773       20.922       17.644      565.132      437.719      311.311        0.334        0.066       72.477       15.724        0.047      328.639       -5.133      874.237
12/16/2013  08:16:00       25.500       40.157       -3.278       23.131       17.868       13.420      535.063      319.278      180.107        0.165        0.052       47.570        8.883        0.035      328.733       -4.977      874.239
12/16/2013  08:17:00       34.187       33.479        3.381       28.993       10.479       16.267      840.568      109.800      264.615        0.176        0.061       47.849       10.281        0.046      328.789       -4.888      874.248
12/16/2013  08:18:00       38.650       27.637        0.279       26.238       16.637       12.844      688.418      276.801      164.967        0.169        0.057       47.514        6.659        0.020      328.766       -4.925      874.266
12/16/2013  08:19:00       29.717       35.798       -1.830       19.139       13.936       15.086      366.283      194.198      227.577        0.148        0.039       46.525        8.662        0.035      328.837       -4.807      874.284
12/16/2013  08:20:00       43.417       50.313       -3.545       19.672       14.409       14.424      386.981      207.606      208.065        0.262        0.040       66.456        7.313        0.012      328.801       -4.866      874.301
12/16/2013  08:21:00       39.725       34.265        0.155       15.950       12.173       14.935      254.410      148.171      223.042        0.169        0.031       52.461        9.103        0.030      328.845       -4.795      874.304
12/16/2013  08:22:00       34.151       20.582        0.691       12.368       11.404        9.728      152.979      130.049       94.640        0.098        0.019       39.874        7.223        0.033      328.884       -4.732      874.304
12/16/2013  08:23:00       18.519       18.964        6.273       13.174       12.513       15.681      173.543      156.567      245.884        0.066        0.029       26.507       10.892        0.169      328.989       -4.559      874.307
12/16/2013  08:24:00       26.609       16.998        7.441        9.939       10.419       10.580       98.784      108.564      111.936        0.069        0.016       31.575        3.695        0.014      328.961       -4.606      874.302
12/16/2013  08:25:00       22.286       20.568        6.826       12.450        8.482        9.398      154.999       71.936       88.331        0.064        0.016       30.326        4.748        0.025      329.083       -4.406      874.313
12/16/2013  08:26:00       33.842       23.993        3.074       15.675       10.628        9.333      245.703      112.948       87.097        0.109        0.022       41.484        6.635        0.026      329.069       -4.430      874.323
12/16/2013  08:27:00       15.818       19.828        1.195       11.478       12.354        9.324      131.741      152.611       86.937        0.051        0.019       25.365        5.842        0.053      329.139       -4.316      874.325
12/16/2013  08:28:00       19.640       21.856        3.879       12.679        8.396       13.031      160.756       70.486      169.818        0.064        0.020       29.384        8.798        0.090      329.220       -4.182      874.321
12/16/2013  08:29:00       15.597       11.915        6.419       12.434       12.832       10.130      154.612      164.669      102.609        0.042        0.021       19.627        9.102        0.215      329.377       -3.925      874.314
12/16/2013  08:30:00        5.154       12.561       12.230        7.915       13.849       11.945       62.648      191.794      142.672        0.037        0.020       13.577        9.603        0.500      329.546       -3.651      874.318
12/16/2013  08:31:00       35.348       26.159       13.514       13.283       13.480       16.299      176.433      181.712      265.667        0.137        0.031       43.975       12.762        0.084      329.348       -3.973      874.336
12/16/2013  08:32:00       52.863       31.103        2.964       10.279       10.135        9.380      105.654      102.725       87.985        0.203        0.015       61.335        4.567        0.006      329.260       -4.118      874.359
12/16/2013  08:33:00       32.755       27.633       12.138       20.314       13.022       18.780      412.660      169.579      352.707        0.146        0.047       42.854        9.841        0.053      329.443       -3.820      874.376
12/16/2013  08:34:00       31.061       17.873        2.542       20.605       10.756       15.798      424.585      115.696      249.585        0.104        0.039       35.836       11.017        0.095      329.485       -3.751      874.389
12/16/2013  08:35:00       38.825       35.508       -1.785       19.259       16.463       14.258      370.917      271.022      203.278        0.181        0.042       52.614        8.382        0.025      329.506       -3.716      874.397
12/16/2013  08:36:00       18.181       20.105        8.938       21.665       18.506       16.415      469.391      342.465      269.443        0.095        0.054       27.107       11.444        0.178      329.640       -3.496      874.392
12/16/2013  08:37:00        4.457       29.822        2.328        9.082       18.499       16.427       82.482      342.209      269.831        0.080        0.035       30.154       12.902        0.183      329.687       -3.420      874.393
12/16/2013  08:38:00       -1.808       11.529       14.246       12.900        8.801       11.939      166.404       77.465      142.539        0.036        0.019       11.669        4.975        0.182      329.884       -3.098      874.399
12/16/2013  08:39:00      -13.959       17.645       12.126       11.368        8.604       13.118      129.241       74.023      172.090        0.051        0.019       22.499        9.166        0.166      329.721       -3.363      874.399
12/16/2013  08:40:00        4.709       16.729        0.378       12.507       11.974       16.628      156.423      143.378      276.493        0.044        0.029       17.380       11.876        0.467      329.869       -3.121      874.399
12/16/2013  08:41:00        7.497        3.683       14.822       10.925        7.725       14.807      119.366       59.669      219.252        0.034        0.020        8.353        6.377        0.583      330.149       -2.663      874.396
12/16/2013  08:42:00        3.508       10.300        1.433       16.265       13.602       15.034      264.541      185.026      226.035        0.040        0.034       10.881       10.665        0.961      329.899       -3.070      874.391
12/16/2013  08:43:00        1.985       31.744        7.239       15.092       19.926       14.438      227.756      397.061      208.444        0.095        0.042       31.806       10.818        0.116      330.051       -2.824      874.390
12/16/2013  08:44:00       13.849       12.846       12.350       16.414       11.797       14.078      269.410      139.174      198.199        0.056        0.030       18.890       10.881        0.332      330.076       -2.782      874.390
12/16/2013  08:45:00        7.806       22.227       25.814       12.049       16.541       11.285      145.170      273.599      127.346        0.088        0.027       23.558        5.660        0.058      330.149       -2.663      874.401
12/16/2013  08:46:00        7.915        5.248       29.902       15.804       20.871       17.587      249.752      435.607      309.317        0.099        0.050        9.497       18.578        3.827      330.122       -2.707      874.433
12/16/2013  08:47:00       27.186       24.485        8.498       13.497       20.655       15.371      182.164      426.621      236.276        0.113        0.042       36.587        7.652        0.044      329.821       -3.200      874.452
12/16/2013  08:48:00      -34.947       -3.016       -8.036       20.759       12.048        7.350      430.952      145.153       54.018        0.096        0.032       35.076        6.002        0.029      329.766       -3.291      874.468
12/16/2013  08:49:00      -36.582      -19.517       -5.604       11.896        7.288        5.447      141.509       53.121       29.672        0.099        0.011       41.463        3.578        0.007      329.738       -3.335      874.481
12/16/2013  08:50:00       21.963       21.925        4.454       24.184       23.459       15.667      584.852      550.308      245.452        0.118        0.069       31.034       10.720        0.119      330.022       -2.871      874.484
12/16/2013  08:51:00       40.541       32.877       -2.824       20.657       10.927       15.387      426.718      119.410      236.766        0.176        0.039       52.196        8.682        0.028      329.908       -3.058      874.500
12/16/2013  08:52:00       60.382       33.394        3.476       21.281       17.787       22.443      452.892      316.392      503.678        0.302        0.064       69.001       11.233        0.027      329.934       -3.015      874.512
12/16/2013  08:53:00       71.071       46.722        5.419       25.223       16.799       19.689      636.203      282.199      387.671        0.428        0.065       85.053       10.588        0.015      329.898       -3.074      874.520
12/16/2013  08:54:00       40.049       43.688        0.325       32.359       28.426       17.138     1047.112      808.057      293.720        0.283        0.107       59.267       14.953        0.064      330.034       -2.851      874.518
12/16/2013  08:55:00       65.587       48.605       -0.593       26.061       34.519       20.343      679.175     1191.554      413.831        0.447        0.114       81.634       15.040        0.034      330.025       -2.865      874.521
12/16/2013  08:56:00       78.778       38.302        4.303       25.159       17.369       22.002      632.983      301.683      484.101        0.455        0.071       87.596       13.692        0.024      329.888       -3.091      874.526
12/16/2013  08:57:00       43.574       29.355       10.853       19.481       19.936       18.823      379.511      397.455      354.307        0.200        0.057       52.540       11.810        0.051      330.090       -2.760      874.540
12/16/2013  08:58:00       55.752       62.547        0.693       18.691       16.293       20.209      349.338      265.465      408.403        0.402        0.051       83.788        8.930        0.011      330.161       -2.643      874.541
12/16/2013  08:59:00       40.257       51.137       -9.296       23.496       17.643       18.072      552.070      311.278      326.586        0.276        0.059       65.082       11.430        0.031      330.143       -2.672      874.532
12/16/2013  09:00:00       16.234       30.943       13.366       36.149       22.911       31.846     1306.782      524.926     1014.173        0.212        0.142       34.943       12.575        0.130      330.286       -2.437      874.531
12/16/2013  09:01:00       63.964       42.690       -4.677       16.786       19.624       14.962      281.757      385.118      223.850        0.341        0.045       76.901        5.464        0.005      330.048       -2.829      874.523
12/16/2013  09:02:00       35.665       46.216       12.247       26.934       29.283       19.100      725.444      857.477      364.820        0.275        0.097       58.378        6.897        0.014      330.377       -2.289      874.524
12/16/2013  09:03:00       26.399       20.754       12.774       26.429       19.020       23.942      698.495      361.752      573.202        0.146        0.082       33.581       14.780        0.194      330.408       -2.239      874.530
12/16/2013  09:04:00       -9.188        6.057       23.738       12.505       20.260       13.899      156.367      410.461      193.171        0.072        0.038       11.005       11.913        1.172      330.661       -1.824      874.536
12/16/2013  09:05:00      -18.607       -3.149       14.835       14.156       21.508       13.973      200.399      462.615      195.248        0.072        0.043       18.872       14.209        0.567      330.579       -1.959      874.541
12/16/2013  09:06:00       -7.440      -23.815        3.385       11.900       10.722       10.762      141.604      114.971      115.828        0.050        0.019       24.950        7.622        0.093      330.463       -2.149      874.553
12/16/2013  09:07:00      -18.471      -17.506       -4.164       11.431       12.239       11.993      130.678      149.802      143.826        0.054        0.021       25.448        5.294        0.043      330.357       -2.322      874.565
12/16/2013  09:08:00      -28.749      -25.474       -4.533       13.909       12.913       13.414      193.463      166.749      179.948        0.102        0.027       38.411        9.808        0.065      330.332       -2.362      874.577
12/16/2013  09:09:00        9.464      -18.501        9.565        9.892       16.653       12.962       97.853      277.317      168.016        0.053        0.027       20.782        8.676        0.174      330.515       -2.063      874.593
12/16/2013  09:10:00      -11.696       -0.330       13.388       18.102       12.366       14.512      327.692      152.912      210.609        0.050        0.035       11.701       13.199        1.272      330.676       -1.798      874.591
12/16/2013  09:11:00        2.092       15.240        2.047       23.146        8.350       11.734      535.720       69.718      137.694        0.049        0.037       15.383        4.189        0.074      330.337       -2.356      874.592
12/16/2013  09:12:00       -0.439        5.284       11.041       17.800       17.242       13.606      316.857      297.298      185.127        0.047        0.040        5.302       11.389        4.615      330.748       -1.680      874.583
12/16/2013  09:13:00       -9.171       -5.542        5.068       11.332        7.089        6.986      128.408       50.249       48.804        0.018        0.011       10.716        6.192        0.334      330.737       -1.699      874.577
12/16/2013  09:14:00       -0.667        2.139       17.947       15.532       21.528       11.436      241.253      463.461      130.784        0.058        0.042        2.240       12.000       28.688      331.041       -1.199      874.576
12/16/2013  09:15:00       -7.819       20.167       32.037       11.748       15.229       13.465      138.016      231.937      181.311        0.102        0.028       21.630        7.268        0.113      331.112       -1.084      874.586
12/16/2013  09:16:00      -10.292        5.425       25.116       13.337       16.790       17.484      177.889      281.889      305.674        0.077        0.038       11.634       13.716        1.390      331.159       -1.006      874.569
12/16/2013  09:17:00       -7.548      -11.339        5.491       17.444       14.784       16.457      304.309      218.552      270.837        0.050        0.040       13.622        9.879        0.526      330.831       -1.544      874.544
12/16/2013  09:18:00        6.045       25.547       16.194       16.479       28.601       23.599      271.544      818.039      556.932        0.130        0.082       26.252       21.018        0.641      330.802       -1.591      874.521
12/16/2013  09:19:00       11.649       35.836       41.851       13.840       16.513       14.218      191.541      272.665      202.160        0.192        0.033       37.681        8.992        0.057      330.762       -1.658      874.506
12/16/2013  09:20:00       16.645       20.324       20.843       12.371       20.413       16.744      153.029      416.697      280.359        0.099        0.043       26.270       12.851        0.239      330.621       -1.889      874.506
12/16/2013  09:21:00        0.514       10.543        2.646       22.182       21.107       16.225      492.020      445.517      263.260        0.066        0.060       10.555       14.933        2.001      330.795       -1.604      874.516
12/16/2013  09:22:00        2.397       -4.655        0.210       32.249       19.540       16.890     1040.020      381.820      285.274        0.087        0.085        5.236        9.996        3.645      330.937       -1.369      874.521
12/16/2013  09:23:00      -58.331      -28.646       -2.969       18.527       19.942       11.692      343.232      397.679      136.692        0.255        0.044       64.985        9.505        0.021      330.550       -2.006      874.517
12/16/2013  09:24:00      -46.617       -5.723        2.204       20.487       16.532       10.839      419.698      273.322      117.483        0.151        0.041       46.967        8.234        0.031      330.632       -1.871      874.529
12/16/2013  09:25:00       21.648        5.549       29.711       20.101       12.021       14.239      404.053      144.514      202.736        0.107        0.038       22.348        4.433        0.039      331.203       -0.934      874.536
12/16/2013  09:26:00       -1.056       13.101       19.645       16.657       15.008       14.530      277.467      225.230      211.131        0.064        0.036       13.143       12.246        0.868      331.435       -0.550      874.555
12/16/2013  09:27:00       48.160       53.729        1.181       29.093       25.573       26.008      846.431      653.994      676.432        0.369        0.109       72.154       18.578        0.066      330.748       -1.681      874.570
12/16/2013  09:28:00       43.740       53.048       31.336       30.855       27.968       27.405      952.056      782.222      751.060        0.410        0.124       68.755       15.639        0.052      330.915       -1.406      874.582
12/16/2013  09:29:00       49.913       39.260        8.765       41.363       31.895       23.675     1710.922     1017.269      560.516        0.370        0.164       63.503       14.269        0.050      330.862       -1.493      874.580
12/16/2013  09:30:00       71.695       55.895        9.952       27.691       25.604       33.618      766.814      655.582     1130.156        0.546        0.128       90.909       20.740        0.052      330.789       -1.614      874.576
12/16/2013  09:31:00       54.084       57.874       29.281       31.137       19.191       30.911      969.531      368.306      955.477        0.471        0.115       79.211       11.129        0.020      330.759       -1.662      874.562
12/16/2013  09:32:00       37.373       49.919       19.651       38.349       38.571       29.043     1470.663     1487.720      843.516        0.404        0.190       62.359       17.378        0.078      330.904       -1.425      874.539
12/16/2013  09:33:00       37.249       25.930       20.444       32.624       20.093       36.924     1064.353      403.724     1363.380        0.265        0.142       45.385       15.560        0.118      330.930       -1.382      874.525
12/16/2013  09:34:00       39.335       48.626       63.753       30.970       31.558       26.191      959.136      995.904      685.976        0.531        0.132       62.544       16.972        0.074      330.947       -1.354      874.515
12/16/2013  09:35:00       45.406       54.468       44.745       31.826       24.713       28.896     1012.910      610.746      835.001        0.474        0.123       70.912       19.758        0.078      331.010       -1.251      874.501
12/16/2013  09:36:00       17.968       25.721       49.489       26.791       32.131       22.056      717.739     1032.374      486.448        0.283        0.112       31.376       19.784        0.398      331.200       -0.939      874.498
12/16/2013  09:37:00       12.753       49.834       55.227       27.906       26.036       20.442      778.767      677.859      417.876        0.378        0.094       51.440       14.191        0.076      331.200       -0.938      874.488
12/16/2013  09:38:00       30.199       52.676       57.921       28.234       25.103       13.783      797.165      630.185      189.976        0.433        0.081       60.718       10.055        0.027      330.960       -1.332      874.474
12/16/2013  09:39:00       -1.112       30.960       61.497       21.541       31.296       25.133      463.997      979.432      631.671        0.341        0.104       30.980       24.353        0.618      331.485       -0.468      874.471
12/16/2013  09:40:00       16.741       71.181       86.404       26.506       33.253       15.788      702.586     1105.782      249.262        0.743        0.103       73.123       18.014        0.061      331.226       -0.897      874.462
12/16/2013  09:41:00       36.397       50.015       46.215       32.215       23.763       20.974     1037.797      564.667      439.889        0.400        0.102       61.857       14.209        0.053      331.089       -1.120      874.446
12/16/2013  09:42:00       -1.669       -7.528       29.338       20.482       31.776       31.191      419.499     1009.731      972.847        0.166        0.120        7.711       28.301       13.471      331.319       -0.742      874.436
12/16/2013  09:43:00      -25.856      -14.325       11.236       21.864       25.831       14.929      478.051      667.243      222.881        0.118        0.068       29.559       12.146        0.169      331.308       -0.759      874.418
12/16/2013  09:44:00      -34.415       15.021       41.763       29.493       31.987       28.804      869.831     1023.165      829.642        0.294        0.136       37.550       24.935        0.441      331.398       -0.613      874.407
12/16/2013  09:45:00       18.283      -79.480       -8.378       55.093       37.552       23.804     3035.241     1410.156      566.618        0.587        0.251       81.555       27.013        0.110      331.040       -1.202      874.401
12/16/2013  09:46:00       27.291      -29.492        0.380       29.499       40.130       37.415      870.199     1610.432     1399.917        0.275        0.194       40.182       33.009        0.675      331.238       -0.875      874.408
12/16/2013  09:47:00       96.051       71.673       42.101       55.177       29.053       34.611     3044.553      844.053     1197.915        1.061        0.254      119.846       34.125        0.081      330.889       -1.448      874.400
12/16/2013  09:48:00       44.009       55.059       12.775       35.052       29.972       33.509     1228.677      898.312     1122.839        0.419        0.162       70.486       18.554        0.069      331.033       -1.211      874.406
12/16/2013  09:49:00       75.528      106.921       84.283       44.830       37.136       42.432     2009.731     1379.092     1800.485        1.471        0.259      130.907       30.643        0.055      331.067       -1.157      874.396
12/16/2013  09:50:00       52.940       83.945       81.121       51.464       43.867       29.510     2648.501     1924.326      870.811        1.094        0.272       99.244       23.530        0.056      331.145       -1.029      874.393
12/16/2013  09:51:00       30.163       66.676       80.590       38.390       57.136       32.485     1473.767     3264.511     1055.259        0.882        0.290       73.181       34.523        0.223      331.354       -0.685      874.386
12/16/2013  09:52:00       46.390       72.317       68.792       62.622       47.597       52.557     3921.575     2265.456     2762.264        1.053        0.447       85.918       48.238        0.315      331.412       -0.589      874.377
12/16/2013  09:53:00       90.595       85.178       76.040       66.423       56.758       36.270     4412.038     3221.468     1315.519        1.510        0.447      124.349       28.892        0.054      331.212       -0.918      874.386
12/16/2013  09:54:00      109.634       72.277       32.763       43.461       30.375       33.179     1888.835      922.654     1100.835        1.111        0.196      131.315       18.987        0.021      331.017       -1.240      874.380
12/16/2013  09:55:00       45.048       20.536       22.866       36.997       28.827       28.908     1368.800      830.970      835.692        0.300        0.152       49.508       22.869        0.213      331.234       -0.883      874.380
12/16/2013  09:56:00       62.878       38.225       35.425       48.138       38.195       32.894     2317.229     1458.877     1082.006        0.576        0.243       73.586       30.422        0.171      331.366       -0.666      874.362
12/16/2013  09:57:00       49.334       53.726       34.778       43.216       36.290       35.106     1867.603     1316.931     1232.462        0.547        0.221       72.941       20.978        0.083      331.525       -0.404      874.346
12/16/2013  09:58:00       60.190       44.509       36.494       41.338       51.070       41.875     1708.863     2608.136     1753.521        0.650        0.304       74.859       38.373        0.263      331.322       -0.737      874.325
12/16/2013  09:59:00       46.057       55.111       66.993       43.170       37.897       25.263     1863.656     1436.198      638.194        0.679        0.197       71.823        9.280        0.017      331.464       -0.504      874.305
12/16/2013  10:00:00       25.731      -43.721       27.832       33.153       65.990       41.717     1099.119     4354.705     1740.294        0.527        0.360       50.731       36.916        0.530      331.707       -0.104      874.302
12/16/2013  10:01:00       41.726       -8.977       32.844       51.144       69.392       36.935     2615.747     4815.209     1364.193        0.585        0.440       42.681       47.439        1.235      331.557       -0.351      874.309
12/16/2013  10:02:00       51.712       45.179       74.792       53.443       45.512       46.135     2856.196     2071.376     2128.416        0.868        0.353       68.668       34.362        0.250      331.608       -0.267      874.289
12/16/2013  10:03:00       51.501      -15.096       22.538       52.349       61.618       43.095     2740.434     3796.762     1857.188        0.589        0.420       53.668       44.724        0.694      331.670       -0.163      874.278
12/16/2013  10:04:00       29.346       60.153       85.503       35.962       33.772       20.535     1293.272     1140.572      421.706        0.732        0.143       66.929       16.986        0.064      331.760       -0.015      874.267
12/16/2013  10:05:00       12.471       61.853       77.977       23.795       37.880       19.679      566.216     1434.908      387.248        0.622        0.119       63.098       13.593        0.046      331.682       -0.145      874.252
12/16/2013  10:06:00       -0.234       -4.540       47.271       43.164       61.354       39.836     1863.107     3764.331     1586.882        0.473        0.361        4.546       37.097       66.585      331.832        0.102      874.238
12/16/2013  10:07:00       49.620      -16.603       44.574       47.199       55.163       45.339     2227.709     3042.907     2055.662        0.602        0.366       52.324       42.191        0.650      331.755       -0.025      874.226
12/16/2013  10:08:00       45.712      -10.717       30.747       45.567       57.832       44.571     2076.331     3344.486     1986.585        0.528        0.370       46.952       49.056        1.092      331.585       -0.305      874.204
12/16/2013  10:09:00       36.705       56.828       57.834       41.687       39.385       24.235     1737.773     1551.143      587.337        0.590        0.194       67.651       21.208        0.098      331.895        0.204      874.178
12/16/2013  10:10:00       30.094       33.789       57.404       48.209       57.292       41.287     2324.151     3282.374     1704.641        0.633        0.366       45.248       25.489        0.317      332.003        0.383      874.164
12/16/2013  10:11:00       31.367       85.897       87.995       46.769       48.894       31.588     2187.293     2390.634      997.820        1.084        0.279       91.445       30.857        0.114      331.658       -0.184      874.158
12/16/2013  10:12:00      117.181       49.211       37.354       38.826       51.008       45.289     1507.448     2601.824     2051.112        1.185        0.308      127.095       42.894        0.114      331.479       -0.477      874.155
12/16/2013  10:13:00       74.179      124.149      106.346       70.236       50.205       40.450     4933.075     2520.501     1636.195        2.066        0.454      144.622       36.797        0.065      331.560       -0.346      874.146
12/16/2013  10:14:00      151.101      110.706       54.335       55.087       38.536       43.866     3034.541     1485.045     1924.218        2.224        0.322      187.316       31.822        0.029      331.473       -0.490      874.136
12/16/2013  10:15:00       54.594        2.515       44.271       52.886       78.462       42.217     2796.946     6156.230     1782.245        0.784        0.537       54.652       43.527        0.634      331.841        0.118      874.144
12/16/2013  10:16:00       46.040      -33.531       18.667       49.732       63.634       52.681     2473.242     4049.336     2775.286        0.644        0.465       56.957       37.749        0.439      332.033        0.433      874.143
12/16/2013  10:17:00       -2.281       84.070      120.008       36.175       59.445       29.871     1308.627     3533.703      892.252        1.360        0.287       84.101       32.097        0.146      331.995        0.370      874.154
12/16/2013  10:18:00       64.734       65.002       78.150       45.438       54.000       38.491     2064.611     2916.040     1481.560        1.049        0.323       91.738       38.607        0.177      331.611       -0.262      874.160
12/16/2013  10:19:00       25.893       44.199       73.198       48.508       56.836       40.829     2352.983     3230.347     1667.006        0.761        0.363       51.225       33.890        0.438      331.889        0.194      874.155
12/16/2013  10:20:00       32.783       -5.883       48.328       47.533       50.616       35.599     2259.394     2562.007     1267.254        0.477        0.304       33.307       36.899        1.227      332.001        0.380      874.154
12/16/2013  10:21:00       45.428       -5.742       48.209       58.406       89.737       51.732     3411.263     8052.698     2676.158        0.928        0.707       45.789       56.111        1.502      332.017        0.407      874.145
12/16/2013  10:22:00       80.982      -75.316       12.411       59.024      103.222       55.572     3483.805    10654.723     3088.229        1.480        0.861      110.592       63.049        0.325      331.827        0.092      874.145
12/16/2013  10:23:00       39.191        7.195       33.694       54.088       80.180       67.534     2925.507     6428.813     4560.829        0.832        0.696       39.846       59.199        2.207      331.963        0.318      874.144
12/16/2013  10:24:00       56.974       38.868       63.278       60.572       59.028       53.823     3668.949     3484.280     2896.897        0.940        0.503       68.969       44.523        0.417      331.883        0.187      874.138
12/16/2013  10:25:00       30.498       55.012       74.010       36.132       36.977       23.251     1305.528     1367.283      540.593        0.632        0.161       62.901       14.412        0.052      331.945        0.287      874.110
12/16/2013  10:26:00       71.604       69.537       59.409       55.550       36.531       29.711     3085.799     1334.521      882.763        0.940        0.265       99.812       30.499        0.093      331.891        0.198      874.094
12/16/2013  10:27:00       38.629      -21.044       31.264       56.875       67.775       42.071     3234.733     4593.514     1769.991        0.625        0.480       43.989       52.828        1.442      332.054        0.468      874.078
12/16/2013  10:28:00       29.356       25.698       54.236       51.295       43.837       38.378     2631.226     1921.714     1472.877        0.524        0.301       39.015       36.848        0.892      332.125        0.583      874.059
12/16/2013  10:29:00       49.832       38.761       46.320       34.184       34.283       32.927     1168.533     1175.316     1084.179        0.478        0.171       63.132       15.590        0.061      331.658       -0.185      874.042
12/16/2013  10:30:00       42.419       96.299       87.895       46.182       45.822       43.986     2132.740     2099.642     1934.737        1.248        0.308      105.228       34.175        0.105      331.905        0.223      874.030
12/16/2013  10:31:00       92.952       65.301       53.696       46.122       39.168       48.475     2127.224     1534.130     2349.808        1.090        0.301      113.597       32.366        0.081      331.709       -0.100      874.015
12/16/2013  10:32:00       13.998       25.654       57.948       29.731       36.758       20.641      883.918     1351.121      426.066        0.344        0.133       29.224       17.140        0.344      332.092        0.530      873.997
12/16/2013  10:33:00       24.174       42.726       61.764       42.828       32.796       40.208     1834.251     1075.592     1616.721        0.537        0.226       49.090       26.801        0.298      332.168        0.656      873.976
12/16/2013  10:34:00       65.073       87.643       85.073       53.373       30.557       38.947     2848.643      933.715     1516.891        1.223        0.265      109.160       27.812        0.065      331.771        0.001      873.959
12/16/2013  10:35:00       92.252       61.264       35.489       58.040       46.269       46.896     3368.678     2140.812     2199.200        1.061        0.385      110.742       29.886        0.073      331.797        0.045      873.942
12/16/2013  10:36:00      141.815       97.375       38.771       33.902       24.135       33.967     1149.335      582.492     1153.767        1.699        0.144      172.027       24.176        0.020      331.542       -0.375      873.924
12/16/2013  10:37:00      162.911       90.055        4.577       46.677       41.524       37.433     2178.789     1724.222     1401.202        1.999        0.265      186.145       21.975        0.014      331.621       -0.248      873.907
12/16/2013  10:38:00      142.307      113.635       43.625       49.150       43.019       50.909     2415.715     1850.638     2591.743        2.096        0.343      182.110       18.807        0.011      331.727       -0.071      873.890
12/16/2013  10:39:00      145.937      105.185       41.103       38.419       27.592       40.081     1476.044      761.303     1606.492        1.895        0.192      179.894       12.765        0.005      331.549       -0.364      873.879
12/16/2013  10:40:00      126.044      105.566       32.292       54.696       34.576       33.746     2991.634     1195.492     1138.813        1.670        0.266      164.412       17.415        0.011      331.595       -0.289      873.862
12/16/2013  10:41:00       68.918       86.234       37.487       28.298       34.412       43.170      800.799     1184.180     1863.608        0.872        0.192      110.390       23.461        0.045      331.897        0.210      873.850
12/16/2013  10:42:00       93.116       72.180       36.136       74.517       37.666       44.987     5552.817     1418.712     2023.839        1.209        0.450      117.815       38.666        0.108      331.929        0.260      873.827
12/16/2013  10:43:00       92.507       86.889       43.700       66.698       58.467       46.839     4448.660     3418.408     2193.936        1.404        0.503      126.914       39.353        0.096      331.859        0.146      873.812
12/16/2013  10:44:00       86.443       59.596        0.620       54.617       49.925       33.491     2982.976     2492.479     1121.658        0.881        0.330      104.995       25.030        0.057      331.884        0.186      873.785
12/16/2013  10:45:00      106.210       72.411       -4.701       47.017       40.582       37.457     2210.610     1646.907     1403.048        1.090        0.263      128.546       26.930        0.044      331.914        0.236      873.778
12/16/2013  10:46:00      119.433       93.350       12.206       46.765       38.990       32.712     2186.987     1520.199     1070.087        1.395        0.239      151.587       25.967        0.029      331.766       -0.008      873.767
12/16/2013  10:47:00       81.849       40.210       -0.491       36.065       32.620       27.463     1300.667     1064.076      754.198        0.572        0.156       91.193       14.971        0.027      331.713       -0.093      873.756
12/16/2013  10:48:00      112.328       71.370       13.070       27.845       32.488       27.341      775.354     1055.466      747.544        1.023        0.129      133.084       15.162        0.013      331.804        0.056      873.720
12/16/2013  10:49:00      122.068       48.198       11.385       51.268       36.752       35.342     2628.373     1350.692     1249.054        1.129        0.261      131.239       27.580        0.044      332.199        0.706      873.688
12/16/2013  10:50:00      106.104       63.056       22.456       68.880       50.531       44.881     4744.395     2553.366     2014.274        1.252        0.466      123.427       38.375        0.097      332.173        0.664      873.666
12/16/2013  10:51:00      121.933      100.619        3.675       46.958       36.319       28.066     2205.025     1319.069      787.707        1.466        0.216      158.088        3.837        0.001      331.790        0.031      873.642
12/16/2013  10:52:00       78.735       36.327        0.682       28.045       24.517       20.317      786.498      601.107      412.780        0.466        0.090       86.711        8.704        0.010      331.878        0.176      873.624
12/16/2013  10:53:00       69.167       76.734       46.918       68.068       36.432       37.752     4633.286     1327.324     1425.242        1.013        0.369      103.307       35.836        0.120      332.311        0.891      873.592
12/16/2013  10:54:00       79.462       65.212       43.515       86.128       42.629       37.152     7418.101     1817.246     1380.269        1.154        0.531      102.794       31.175        0.092      332.285        0.847      873.574
12/16/2013  10:55:00      117.326       82.851       28.757       36.618       27.721       25.155     1340.869      768.480      632.751        1.210        0.137      143.631       13.861        0.009      331.894        0.203      873.554
12/16/2013  10:56:00      126.578       98.808       14.484       27.383       25.709       27.679      749.851      660.931      766.135        1.409        0.109      160.577       16.320        0.010      331.942        0.283      873.535
12/16/2013  10:57:00      118.837       72.880       16.189       39.347       46.446       31.045     1548.197     2157.269      963.810        1.218        0.233      139.405        9.235        0.004      332.216        0.734      873.516
12/16/2013  10:58:00       79.999       75.017       18.840       34.189       29.861       36.346     1168.890      891.688     1321.052        0.788        0.169      109.669       11.937        0.012      332.177        0.669      873.502
12/16/2013  10:59:00       64.819       71.191       54.946       53.085       39.254       38.997     2818.031     1540.872     1520.797        0.908        0.294       96.279       29.510        0.094      332.348        0.953      873.488
12/16/2013  11:00:00       73.808       74.362       45.250       27.840       30.748       26.787      775.048      945.429      717.524        0.773        0.122      104.773       15.958        0.023      332.383        1.008      873.477
12/16/2013  11:01:00       59.580       43.170       32.211       51.227       42.156       31.584     2624.223     1777.112      997.574        0.592        0.270       73.576       20.191        0.075      332.608        1.381      873.469
12/16/2013  11:02:00       61.902       66.123       66.012       45.453       44.207       30.118     2065.939     1954.252      907.118        0.874        0.246       90.577       19.297        0.045      332.661        1.467      873.454
12/16/2013  11:03:00       43.991       90.804       69.666       62.338       45.006       53.817     3886.088     2025.516     2896.278        1.192        0.440      100.898       47.336        0.220      332.424        1.077      873.451
12/16/2013  11:04:00       42.772       70.769        8.986       64.745       50.220       39.386     4191.916     2522.000     1551.236        0.759        0.413       82.690       22.374        0.073      332.404        1.043      873.445
12/16/2013  11:05:00       61.149       43.570        7.498       44.229       34.356       30.602     1956.215     1180.314      936.481        0.488        0.204       75.084       16.807        0.050      332.277        0.836      873.445
12/16/2013  11:06:00       31.684       29.402       33.868       43.420       46.983       31.436     1885.269     2207.381      988.223        0.405        0.254       43.224       26.512        0.376      332.741        1.600      873.439
12/16/2013  11:07:00       93.109       93.635       75.049       67.525       51.007       49.403     4559.596     2601.677     2440.636        1.633        0.480      132.048       42.016        0.101      332.523        1.241      873.431
12/16/2013  11:08:00      116.136       94.764       58.293       36.424       35.280       39.321     1326.673     1244.696     1546.174        1.499        0.206      149.892       28.023        0.035      332.232        0.759      873.416
12/16/2013  11:09:00      124.966       80.295       45.006       56.061       39.354       46.912     3142.825     1548.728     2200.712        1.549        0.345      148.539       33.252        0.050      332.446        1.113      873.382
12/16/2013  11:10:00       97.484       67.698       51.652       28.848       32.476       39.611      832.229     1054.691     1569.030        1.010        0.173      118.685       21.895        0.034      332.369        0.986      873.376
12/16/2013  11:11:00       61.420       86.870       48.361       46.048       34.618       45.733     2120.449     1198.440     2091.469        0.953        0.271      106.390       26.648        0.063      332.424        1.077      873.357
12/16/2013  11:12:00       53.052       74.953       89.107       43.681       37.601       26.316     1907.996     1413.854      692.546        1.019        0.201       91.829       20.552        0.050      332.668        1.479      873.352
12/16/2013  11:13:00       27.708       65.239       79.515       53.192       41.272       34.984     2829.402     1703.376     1223.869        0.855        0.288       70.879       32.915        0.216      332.843        1.770      873.346
12/16/2013  11:14:00       37.911       52.682       72.641       65.593       49.619       39.118     4302.404     2462.005     1530.250        0.889        0.415       64.905       24.794        0.146      332.978        1.993      873.334
12/16/2013  11:15:00      107.951       56.946       39.628       53.674       48.249       47.971     2880.901     2328.007     2301.236        1.199        0.376      122.050       28.861        0.056      332.402        1.042      873.322
12/16/2013  11:16:00      143.667       87.206       22.172       41.859       34.968       34.710     1752.141     1222.779     1204.772        1.646        0.209      168.062       24.647        0.022      332.319        0.904      873.317
12/16/2013  11:17:00       94.037       92.244       27.239       56.623       44.884       42.277     3206.167     2014.535     1787.306        1.255        0.350      131.726       23.294        0.031      332.477        1.164      873.304
12/16/2013  11:18:00       72.690       47.334       22.285       45.687       34.797       35.309     2087.314     1210.816     1246.691        0.628        0.227       86.743       17.949        0.043      332.826        1.741      873.294
12/16/2013  11:19:00       80.995       81.223       -1.858       65.289       46.947       33.659     4262.605     2204.050     1132.900        1.038        0.380      114.706       28.142        0.060      332.578        1.332      873.292
12/16/2013  11:20:00       77.854       61.045       38.735       37.698       32.043       35.983     1421.153     1026.783     1294.811        0.751        0.187       98.932       22.589        0.052      332.677        1.495      873.274
12/16/2013  11:21:00       39.944       54.452       46.767       48.240       43.988       57.690     2327.145     1934.960     3328.151        0.717        0.380       67.532       49.694        0.541      332.978        1.992      873.257
12/16/2013  11:22:00       67.871       68.763       99.473       83.468       70.724       58.134     6966.887     5001.932     3379.565        1.729        0.767       96.617       68.434        0.502      332.736        1.592      873.221
12/16/2013  11:23:00      122.984      103.014       73.895       56.744       43.239       55.434     3219.893     1869.609     3072.873        1.968        0.408      160.428       42.504        0.070      332.543        1.274      873.208
12/16/2013  11:24:00       95.129       68.383       38.772       40.247       34.265       40.824     1619.812     1174.077     1666.639        0.984        0.223      117.156       33.662        0.083      332.614        1.391      873.191
12/16/2013  11:25:00       39.356       76.745       80.145       49.452       35.223       33.747     2445.462     1240.647     1138.877        0.934        0.241       86.248       28.014        0.105      332.880        1.830      873.163
12/16/2013  11:26:00       85.884      112.902       95.851       49.154       42.204       31.853     2416.117     1781.154     1014.642        1.726        0.261      141.855       25.424        0.032      332.839        1.762      873.146
12/16/2013  11:27:00       42.668       -5.701       32.937       44.228       97.672       45.156     1956.134     9539.722     2039.091        0.823        0.677       43.047       60.811        1.996      332.840        1.764      873.137
12/16/2013  11:28:00       17.360      -46.542       23.617       45.790       61.222       42.671     2096.709     3748.090     1820.773        0.534        0.383       49.674       37.042        0.556      333.086        2.170      873.131
12/16/2013  11:29:00       56.001        9.809       49.951       60.668       59.212       40.127     3680.657     3506.096     1610.216        0.726        0.440       56.853       38.911        0.468      333.093        2.183      873.128
12/16/2013  11:30:00       69.589       52.107       71.335       78.185       66.882       53.173     6112.915     4473.181     2827.332        1.303        0.671       86.935       59.998        0.476      333.056        2.121      873.111
12/16/2013  11:31:00      106.654       26.229       53.988       73.470       48.283       42.078     5397.867     2331.227     1770.565        1.224        0.475      109.832       38.823        0.125      332.900        1.864      873.108
12/16/2013  11:32:00      102.876       95.004       57.554       63.894       58.072       58.227     4082.499     3372.377     3390.409        1.688        0.542      140.033       48.692        0.121      332.803        1.703      873.090
12/16/2013  11:33:00       70.845      103.080      101.487       66.089       49.582       42.922     4367.814     2458.364     1842.323        1.730        0.433      125.078       25.744        0.042      332.888        1.843      873.087
12/16/2013  11:34:00       88.895       65.804       56.327       75.758       56.187       46.762     5739.219     3156.979     2186.717        1.324        0.554      110.601       35.300        0.102      332.868        1.810      873.077
12/16/2013  11:35:00       58.796      -18.977       45.761       35.686       58.999       37.864     1273.526     3480.902     1433.646        0.605        0.309       61.782       36.785        0.354      333.098        2.190      873.066
12/16/2013  11:36:00       77.094       62.380       65.279       30.965       34.756       29.707      958.823     1207.985      882.499        0.857        0.152       99.170       19.067        0.037      333.103        2.200      873.066
12/16/2013  11:37:00      109.097      106.119       51.255       44.200       34.621       26.869     1953.613     1198.612      721.925        1.483        0.194      152.195        6.829        0.002      332.805        1.705      873.051
12/16/2013  11:38:00       15.970       42.539       48.876       35.045       39.742       36.460     1228.118     1579.452     1329.367        0.429        0.207       45.438       23.458        0.267      333.382        2.661      873.031
12/16/2013  11:39:00       56.716       78.081       84.786       57.404       48.420       48.407     3295.216     2344.470     2343.193        1.224        0.399       96.505       37.160        0.148      333.161        2.295      873.023
12/16/2013  11:40:00       31.613       63.966       90.069       36.723       34.455       23.779     1348.580     1187.152      565.458        0.815        0.155       71.351       20.537        0.083      333.073        2.149      873.014
12/16/2013  11:41:00       31.890       55.154       77.065       31.349       38.446       22.636      982.729     1478.058      512.373        0.648        0.149       63.710       23.949        0.141      333.159        2.291      872.990
12/16/2013  11:42:00       39.425      110.902       97.844       38.265       34.572       21.837     1464.219     1195.245      476.838        1.328        0.157      117.701       16.234        0.019      333.187        2.339      872.980
12/16/2013  11:43:00       68.772       76.920       92.981       48.222       38.174       28.065     2325.367     1457.276      787.630        1.193        0.229      103.181       19.183        0.035      333.098        2.191      872.967
12/16/2013  11:44:00       46.446       15.154       47.498       34.057       54.015       42.217     1159.898     2917.584     1782.279        0.525        0.293       48.856       41.424        0.719      333.123        2.231      872.965
12/16/2013  11:45:00        6.497       10.685       50.844       19.989       29.885       27.059      399.561      893.101      732.208        0.238        0.101       12.505       26.105        4.358      333.622        3.058      872.950
12/16/2013  11:46:00       45.651      -33.691       17.268       47.592       48.067       38.774     2265.020     2310.421     1503.391        0.480        0.304       56.738       36.900        0.423      333.385        2.665      872.928
12/16/2013  11:47:00       62.988       78.355       73.309       58.532       49.865       46.308     3426.006     2486.515     2144.405        1.177        0.403      100.534       38.988        0.150      333.346        2.600      872.923
12/16/2013  11:48:00       78.178        2.305       40.083       29.094       59.021       29.265      846.472     3483.474      856.415        0.645        0.259       78.212       29.416        0.141      333.069        2.143      872.931
12/16/2013  11:49:00       37.942       52.699       55.077       60.829       56.589       44.464     3700.153     3202.291     1977.065        0.806        0.444       64.937       18.370        0.080      333.470        2.807      872.915
12/16/2013  11:50:00       68.614       48.728       47.804       60.391       50.091       39.885     3647.120     2509.074     1590.821        0.856        0.387       84.156       36.036        0.183      333.263        2.464      872.912
12/16/2013  11:51:00       45.079       69.558       32.587       45.052       43.177       42.475     2029.647     1864.232     1804.142        0.681        0.285       82.888       23.328        0.079      333.349        2.606      872.910
12/16/2013  11:52:00       17.452       48.665       78.709       31.939       46.527       29.656     1020.130     2164.796      879.484        0.647        0.203       51.700       31.264        0.366      333.628        3.067      872.900
12/16/2013  11:53:00       74.489       30.772       59.293       34.932       40.227       43.218     1220.264     1618.245     1867.810        0.736        0.235       80.595       33.262        0.170      333.237        2.419      872.886
12/16/2013  11:54:00       55.821      -29.264       31.788       39.005       57.868       45.716     1521.419     3348.730     2089.986        0.597        0.348       63.027       42.897        0.463      333.414        2.712      872.871
12/16/2013  11:55:00       42.494       65.378       74.240       39.836       41.845       32.775     1586.927     1750.992     1074.186        0.800        0.221       77.975       29.520        0.143      333.480        2.820      872.843
12/16/2013  11:56:00        5.021        5.359       31.646       29.486       44.335       24.700      869.427     1965.628      610.099        0.225        0.172        7.343       25.902       12.442      333.906        3.527      872.820
12/16/2013  11:57:00       56.840        8.045       44.028       53.205       68.773       42.292     2830.722     4729.703     1788.639        0.729        0.467       57.407       39.761        0.480      333.740        3.252      872.808
12/16/2013  11:58:00       28.944       56.440       65.906       40.395       51.895       32.019     1631.716     2693.089     1025.191        0.686        0.267       63.429       28.778        0.206      333.818        3.381      872.776
12/16/2013  11:59:00       39.362      -40.646       27.371       40.790       55.942       31.686     1663.811     3129.500     1003.982        0.487        0.290       56.582       27.997        0.245      333.653        3.109      872.771
12/16/2013  12:00:00       64.356      -76.237       11.536       48.111       69.518       40.432     2314.670     4832.771     1634.757        0.943        0.439       99.768       35.105        0.124      333.587        2.999      872.760
12/16/2013  12:01:00       64.447     -102.174        2.598       39.501       53.665       34.113     1560.290     2879.984     1163.730        1.010        0.280      120.801       22.494        0.035      333.495        2.847      872.747
12/16/2013  12:02:00       42.478      -29.836       17.169       45.405       52.286       31.957     2061.645     2733.786     1021.234        0.440        0.291       51.909       33.956        0.428      333.666        3.131      872.740
12/16/2013  12:03:00       88.587       72.878       36.549       38.987       30.168       42.535     1519.996      910.126     1809.212        0.937        0.212      114.712       23.429        0.042      333.503        2.860      872.728
12/16/2013  12:04:00       45.798        5.035       33.339       51.912       33.866       27.836     2694.860     1146.922      774.831        0.392        0.231       46.074       16.855        0.134      333.779        3.318      872.702
12/16/2013  12:05:00       33.379       23.395       53.407       38.663       33.831       21.110     1494.794     1144.528      445.619        0.380        0.154       40.761       21.320        0.274      333.915        3.544      872.690
12/16/2013  12:06:00       36.673      -21.668       21.381       28.894       38.010       25.688      834.883     1444.770      659.849        0.260        0.147       42.596       26.938        0.400      333.633        3.075      872.671
12/16/2013  12:07:00       50.786       -1.471       23.224       39.088       52.917       26.951     1527.901     2800.170      726.375        0.409        0.253       50.807       29.785        0.344      333.899        3.516      872.639
12/16/2013  12:08:00       51.369       34.217       14.968       50.887       37.651       30.501     2589.445     1417.567      930.282        0.448        0.247       61.722       25.273        0.168      333.926        3.563      872.626
12/16/2013  12:09:00       31.895       23.954        0.666       36.698       31.603       27.281     1346.738      998.737      744.228        0.234        0.154       39.888       12.320        0.095      333.904        3.526      872.606
12/16/2013  12:10:00        2.756       15.554       36.175       20.660       32.320       25.384      426.837     1044.586      644.341        0.184        0.106       15.796       18.907        1.433      334.217        4.043      872.596
12/16/2013  12:11:00       17.144      -20.479        7.519       37.436       57.072       24.747     1401.421     3257.262      612.438        0.302        0.264       26.707       17.803        0.444      334.064        3.790      872.590
12/16/2013  12:12:00       99.008      -94.423      -17.966       57.968       62.209       44.146     3360.248     3869.997     1948.845        1.411        0.459      136.815       41.215        0.091      333.804        3.357      872.554
12/16/2013  12:13:00      110.567     -144.567      -25.276       68.052       58.660       32.215     4631.042     3440.965     1037.817        2.143        0.455      182.002       29.267        0.026      333.631        3.070      872.546
12/16/2013  12:14:00       69.713      -45.488        4.786       60.206       63.918       46.693     3624.741     4085.512     2180.244        0.842        0.495       83.241       33.484        0.162      333.939        3.582      872.534
12/16/2013  12:15:00       15.071        4.494       76.876       40.613       73.475       51.573     1649.443     5398.606     2659.747        0.793        0.485       15.727       47.479        9.115      334.206        4.026      872.516
12/16/2013  12:16:00       36.883        8.364       47.891       43.946       81.790       66.335     1931.251     6689.616     4400.380        0.837        0.651       37.820       70.312        3.456      333.983        3.656      872.526
12/16/2013  12:17:00       53.833      -82.366        6.653       46.929       27.841       23.354     2202.286      775.119      545.420        0.662        0.176       98.398       15.680        0.025      333.882        3.490      872.518
12/16/2013  12:18:00       15.932      -84.934       12.137       42.559       39.155       35.437     1811.256     1533.125     1255.781        0.611        0.230       86.416       29.144        0.114      334.120        3.883      872.508
12/16/2013  12:19:00       49.312      -30.213        5.792       47.400       67.606       44.986     2246.733     4570.588     2023.774        0.611        0.442       57.831       48.395        0.700      334.087        3.828      872.514
12/16/2013  12:20:00       66.702      -36.399       20.162       63.216       69.398       43.031     3996.241     4816.080     1851.625        0.842        0.533       75.987       50.828        0.447      333.946        3.594      872.495
12/16/2013  12:21:00       90.208      -64.575       10.951       44.008       57.051       37.456     1936.710     3254.842     1402.960        0.951        0.330      110.939       35.880        0.105      333.859        3.450      872.489
12/16/2013  12:22:00       28.096       68.236       81.308       38.460       38.068       24.152     1479.202     1449.179      583.297        0.778        0.176       73.794       24.294        0.108      334.105        3.859      872.471
12/16/2013  12:23:00       43.555      -15.931       23.880       48.997       68.776       33.696     2400.728     4730.137     1135.417        0.549        0.413       46.377       29.794        0.413      334.093        3.839      872.452
12/16/2013  12:24:00       45.483      -16.052       29.182       51.933       74.259       45.064     2697.056     5514.458     2030.793        0.671        0.512       48.232       52.106        1.167      334.202        4.019      872.458
12/16/2013  12:25:00       28.476       41.134       59.314       44.688       37.455       27.041     1997.011     1402.842      731.190        0.508        0.207       50.029       29.402        0.345      334.407        4.359      872.449
12/16/2013  12:26:00       93.350       78.704       47.335       55.941       39.255       45.199     3129.375     1540.944     2042.992        1.193        0.336      122.101       27.927        0.052      334.046        3.759      872.442
12/16/2013  12:27:00       86.873       63.656       35.750       48.273       34.779       40.503     2330.312     1209.550     1640.524        0.903        0.259      107.698       28.482        0.070      333.982        3.653      872.443
12/16/2013  12:28:00       53.851       60.413       44.437       45.479       39.756       39.179     2068.346     1580.500     1534.972        0.685        0.259       80.930       27.408        0.115      334.320        4.215      872.436
12/16/2013  12:29:00       31.718       42.383       42.500       49.832       43.267       33.401     2483.189     1872.003     1115.638        0.504        0.274       52.937       28.331        0.286      334.600        4.679      872.420
12/16/2013  12:30:00       38.511       75.141       67.692       53.206       51.232       32.136     2830.858     2624.730     1032.696        0.910        0.324       84.436       24.052        0.081      334.479        4.479      872.414
12/16/2013  12:31:00       15.950      -15.237       27.107       37.843       66.135       36.613     1432.102     4373.772     1340.524        0.418        0.357       22.059       34.135        2.395      334.421        4.382      872.395
12/16/2013  12:32:00       28.288       48.987       57.932       45.945       50.589       53.968     2110.920     2559.206     2912.524        0.707        0.379       56.568       41.049        0.527      334.484        4.487      872.379
12/16/2013  12:33:00       74.767       82.270       92.631       61.162       47.692       45.008     3740.837     2274.535     2025.735        1.449        0.402      111.169       34.716        0.098      334.159        3.947      872.371
12/16/2013  12:34:00      109.595       62.498       24.708       52.616       57.385       43.285     2768.428     3293.032     1873.601        1.223        0.397      126.163       31.831        0.064      334.157        3.944      872.361
12/16/2013  12:35:00       33.760       89.957      103.258       45.992       46.587       38.544     2115.256     2170.381     1485.611        1.283        0.289       96.084       34.305        0.127      334.206        4.025      872.352
12/16/2013  12:36:00       84.318       -5.956       26.713       40.430       44.269       31.974     1634.606     1959.713     1022.307        0.624        0.231       84.528       28.703        0.115      334.026        3.727      872.349
12/16/2013  12:37:00       92.873       97.555       73.659       56.940       33.652       32.515     3242.116     1132.477     1057.196        1.450        0.272      134.694       12.632        0.009      334.169        3.963      872.336
12/16/2013  12:38:00       36.416       47.936       64.958       45.667       33.857       22.160     2085.500     1146.265      491.068        0.578        0.186       60.200       22.537        0.140      334.279        4.146      872.311
12/16/2013  12:39:00       28.939       41.196       34.397       23.463       25.776       23.902      550.496      664.420      571.283        0.275        0.089       50.345       18.974        0.142      334.295        4.174      872.289
12/16/2013  12:40:00       27.071       52.204        1.723       21.939       27.266       23.595      481.340      743.442      556.715        0.262        0.089       58.806       21.148        0.129      334.233        4.072      872.267
12/16/2013  12:41:00       26.831       66.868       46.657       43.039       46.204       56.042     1852.396     2134.833     3140.734        0.725        0.356       72.050       37.192        0.266      334.408        4.360      872.243
12/16/2013  12:42:00       63.159       78.885       70.684       43.068       33.922       32.371     1854.846     1150.669     1047.895        0.963        0.203      101.054       28.240        0.078      334.167        3.961      872.223
12/16/2013  12:43:00       90.405       88.754       55.170       32.153       28.546       35.433     1033.827      814.898     1255.525        1.110        0.155      126.690       24.259        0.037      334.052        3.771      872.202
12/16/2013  12:44:00       22.776      -23.351       36.341       33.276       96.578       35.068     1107.293     9327.372     1229.788        0.702        0.583       32.619       43.431        1.773      334.332        4.235      872.184
12/16/2013  12:45:00       45.072        5.337       35.403       38.957       59.369       35.927     1517.671     3524.671     1290.725        0.482        0.317       45.387       27.949        0.379      334.465        4.455      872.168
12/16/2013  12:46:00        1.819       -3.498       -2.540       18.802       38.410       12.129      353.529     1475.297      147.104        0.100        0.099        3.943        6.421        2.652      334.569        4.629      872.153
12/16/2013  12:47:00       23.255     -102.952       -4.207       48.578       64.694       35.672     2359.800     4185.250     1272.466        0.949        0.391      105.545       25.309        0.057      334.397        4.342      872.122
12/16/2013  12:48:00       25.073       20.848       65.298       38.025       48.508       37.402     1445.921     2352.981     1398.879        0.526        0.260       32.608       28.860        0.783      334.833        5.066      872.109
12/16/2013  12:49:00       10.891       61.915       82.095       33.001       51.273       30.073     1089.078     2628.957      904.364        0.766        0.231       62.865       29.602        0.222      334.563        4.618      872.107
12/16/2013  12:50:00       41.337       -2.107       26.519       42.050       52.283       41.712     1768.163     2733.535     1739.876        0.433        0.312       41.391       39.574        0.914      334.499        4.513      872.090
12/16/2013  12:51:00       27.075       -0.231       22.311       25.510       38.362       25.253      650.759     1471.634      637.720        0.199        0.138       27.076       19.012        0.493      334.562        4.617      872.082
12/16/2013  12:52:00        4.430      -40.198      -21.480       14.292       12.630       10.452      204.257      159.518      109.234        0.128        0.024       40.441        8.414        0.043      334.329        4.231      872.063
12/16/2013  12:53:00        7.891      -26.302       17.592       31.050       42.097       21.089      964.122     1772.131      444.740        0.212        0.159       27.460       20.954        0.582      334.814        5.035      872.037
12/16/2013  12:54:00       19.231       12.908       29.625       56.079       43.726       37.606     3144.886     1911.990     1414.201        0.394        0.324       23.161       27.028        1.362      334.582        4.651      872.018
12/16/2013  12:55:00       14.018       32.446       28.500       35.103       30.219       22.203     1232.204      913.165      492.978        0.235        0.132       35.345       14.585        0.170      334.739        4.911      872.002
12/16/2013  12:56:00        3.055        9.667       33.546       23.924       27.857       16.976      572.337      776.022      288.180        0.143        0.082       10.138       11.874        1.372      335.031        5.395      871.972
12/16/2013  12:57:00       63.621       10.998       45.502       53.617       55.168       30.337     2874.804     3043.459      920.353        0.654        0.342       64.565       30.910        0.229      334.661        4.781      871.955
12/16/2013  12:58:00       23.014       53.579       48.980       37.153       35.522       26.356     1380.334     1261.804      694.643        0.457        0.167       58.313       22.197        0.145      334.894        5.167      871.938
12/16/2013  12:59:00       29.435       54.628       49.620       48.040       33.248       28.418     2307.829     1105.419      807.608        0.527        0.211       62.053       26.921        0.188      334.976        5.304      871.910
12/16/2013  13:00:00       23.406       29.234       29.666       44.556       45.112       40.486     1985.235     2035.109     1639.112        0.397        0.283       37.450       31.992        0.730      334.845        5.086      871.899
12/16/2013  13:01:00       29.964       34.028       67.541       50.879       46.392       40.582     2588.640     2152.215     1646.884        0.650        0.319       45.341       40.207        0.786      334.819        5.043      871.869
12/16/2013  13:02:00       50.638       44.802       20.437       35.428       52.915       30.121     1255.109     2800.026      907.249        0.497        0.248       67.612        9.356        0.019      334.498        4.511      871.860
12/16/2013  13:03:00       62.389       62.666       -0.473       25.037       20.729       22.879      626.844      429.686      523.439        0.470        0.079       88.428        8.422        0.009      334.501        4.515      871.864
12/16/2013  13:04:00       77.879       53.425       14.454       35.557       43.264       25.605     1264.301     1871.771      655.640        0.646        0.190       94.442       14.212        0.023      334.514        4.537      871.856
12/16/2013  13:05:00      111.018       76.276       29.437       31.554       34.129       31.194      995.645     1164.774      973.074        1.107        0.157      134.696       15.989        0.014      334.540        4.580      871.849
12/16/2013  13:06:00       61.662       40.860       26.676       33.453       40.135       25.741     1119.120     1610.786      662.576        0.479        0.170       73.971       14.184        0.037      334.673        4.801      871.846
12/16/2013  13:07:00       54.366       43.385       44.292       56.027       48.604       21.087     3138.995     2362.381      444.641        0.637        0.297       69.555       16.744        0.058      334.799        5.010      871.834
12/16/2013  13:08:00        4.380       33.550       51.685       29.493       23.036       17.712      869.812      530.669      313.727        0.276        0.086       33.835       13.246        0.153      334.996        5.336      871.833
12/16/2013  13:09:00       19.488       29.263       35.677       26.980       23.656       21.707      727.918      559.624      471.202        0.213        0.088       35.159       14.881        0.179      335.032        5.395      871.826
12/16/2013  13:10:00       50.399       55.488       30.176       37.893       34.282       46.694     1435.882     1175.252     2180.351        0.566        0.240       74.960       34.465        0.211      334.613        4.700      871.820
12/16/2013  13:11:00       -1.943       35.319        1.957       11.142       14.589       11.393      124.137      212.824      129.792        0.086        0.023       35.372        6.644        0.035      334.721        4.882      871.811
12/16/2013  13:12:00       41.473       47.524       38.825       42.847       32.834       41.834     1835.875     1078.052     1750.058        0.507        0.233       63.075       26.077        0.171      334.703        4.851      871.800
12/16/2013  13:13:00       70.623       40.931       32.733       47.587       39.657       44.026     2264.567     1572.660     1938.262        0.675        0.289       81.626       32.287        0.156      334.712        4.865      871.789
12/16/2013  13:14:00       32.254       88.195       75.803       38.889       37.215       41.652     1512.326     1384.937     1734.884        0.960        0.232       93.908       25.423        0.073      334.825        5.052      871.776
12/16/2013  13:15:00       50.821       56.199       20.130       29.199       23.782       34.785      852.584      565.587     1209.983        0.439        0.131       75.770        8.515        0.013      334.652        4.766      871.757
12/16/2013  13:16:00       50.721       31.690       18.937       31.347       28.706       25.998      982.647      824.049      675.911        0.321        0.124       59.807       19.370        0.105      334.882        5.148      871.748
12/16/2013  13:17:00       72.875       30.495        4.059       45.123       47.286       31.669     2036.076     2235.997     1002.945        0.577        0.264       78.999       25.280        0.102      334.787        4.989      871.733
12/16/2013  13:18:00       67.951       83.437        5.754       46.779       51.266       32.564     2188.284     2628.253     1060.437        0.874        0.294      107.606       22.520        0.044      334.749        4.927      871.713
12/16/2013  13:19:00       47.947       58.668        1.825       48.812       36.997       34.586     2382.654     1368.806     1196.168        0.534        0.247       75.769       22.645        0.089      334.694        4.836      871.726
12/16/2013  13:20:00       -0.710        1.921       17.888       31.003       19.713       17.496      961.176      388.615      306.095        0.099        0.083        2.048       14.557       50.539      335.013        5.366      871.724
12/16/2013  13:21:00       74.155       33.272       26.097       59.702       32.105       36.518     3564.350     1030.736     1333.577        0.661        0.296       81.277       24.717        0.092      334.900        5.178      871.706
12/16/2013  13:22:00       73.495       76.306       23.933       45.705       26.257       29.535     2088.912      689.445      872.294        0.772        0.183      105.944       29.613        0.078      334.718        4.875      871.702
12/16/2013  13:23:00       17.192       73.008       75.004       40.304       26.608       25.517     1624.446      708.000      651.116        0.712        0.149       75.005       22.161        0.087      334.923        5.217      871.679
12/16/2013  13:24:00       83.016       53.387       22.716       44.107       34.954       35.807     1945.396     1221.776     1282.116        0.735        0.222       98.700       29.614        0.090      334.749        4.927      871.665
12/16/2013  13:25:00       64.227       34.672       18.671       18.026       34.737       17.259      324.950     1206.647      297.876        0.375        0.091       72.988        5.172        0.005      334.717        4.873      871.656
12/16/2013  13:26:00       36.001       25.984       13.181       33.076       26.165       17.481     1094.050      684.598      305.583        0.211        0.104       44.399       19.666        0.196      335.007        5.355      871.633
12/16/2013  13:27:00       30.298       77.416       77.722       34.387       32.764       24.663     1182.464     1073.488      608.274        0.791        0.143       83.134       18.129        0.048      335.030        5.394      871.629
12/16/2013  13:28:00       11.421       64.785       89.124       33.823       39.980       19.956     1143.995     1598.385      398.226        0.771        0.157       65.784       18.101        0.076      335.193        5.665      871.623
12/16/2013  13:29:00       51.925      102.184      107.814       46.893       39.065       23.764     2198.990     1526.059      564.737        1.452        0.214      114.620       19.371        0.029      334.948        5.258      871.611
12/16/2013  13:30:00       76.832       11.204       44.000       42.424       49.041       38.214     1799.792     2405.013     1460.300        0.681        0.283       77.645       38.023        0.240      334.835        5.070      871.620
12/16/2013  13:31:00       36.596        3.054       13.233       29.818       33.511       22.762      889.113     1122.997      518.120        0.203        0.127       36.723       13.824        0.142      334.907        5.190      871.617
12/16/2013  13:32:00       27.559       36.834        0.931       32.554       21.115       18.146     1059.763      445.842      329.264        0.198        0.092       46.003        8.581        0.035      334.972        5.298      871.609
12/16/2013  13:33:00       -4.302       39.087        7.291       20.239       39.608       17.581      409.609     1568.819      309.106        0.194        0.114       39.323       21.264        0.292      335.130        5.560      871.586
12/16/2013  13:34:00       -8.574       45.768        2.675       18.078       32.327       15.210      326.814     1045.026      231.330        0.189        0.080       46.565       17.732        0.145      335.219        5.708      871.570
12/16/2013  13:35:00        1.081        1.902       -9.532       12.088       11.117        9.498      146.114      123.588       90.203        0.023        0.018        2.188        8.781       16.099      335.305        5.849      871.551
12/16/2013  13:36:00        1.793       -6.581        6.515        8.956       12.452       11.199       80.209      155.057      125.411        0.022        0.018        6.821        8.739        1.642      335.448        6.090      871.524
12/16/2013  13:37:00       30.347       17.343       20.757       29.529       19.821       19.017      871.951      392.860      361.642        0.164        0.081       34.953       18.605        0.283      335.232        5.728      871.512
12/16/2013  13:38:00       56.257       26.672       22.944       39.163       32.135       29.604     1533.762     1032.659      876.388        0.392        0.172       62.259       21.176        0.116      335.151        5.596      871.491
12/16/2013  13:39:00       93.213       37.816        1.260       42.824       36.471       44.006     1833.926     1330.101     1936.493        0.761        0.255      100.592       32.309        0.103      335.164        5.616      871.463
12/16/2013  13:40:00       22.001       65.043       83.580       54.265       49.124       41.875     2944.687     2413.202     1753.535        0.940        0.356       68.663       37.037        0.291      335.269        5.790      871.448
12/16/2013  13:41:00       57.530       97.439       79.307       52.302       55.713       40.920     2735.454     3103.939     1674.469        1.330        0.376      113.155       31.936        0.080      335.087        5.489      871.433
12/16/2013  13:42:00       -0.328      100.272      103.799       26.806       45.219       30.495      718.582     2044.759      929.963        1.226        0.185      100.272       30.334        0.092      335.147        5.589      871.407
12/16/2013  13:43:00       91.603      104.775       84.490       35.683       41.683       32.551     1273.282     1737.462     1059.543        1.529        0.204      139.173       26.445        0.036      334.967        5.290      871.404
12/16/2013  13:44:00       84.389       83.081       58.208       49.589       46.117       38.614     2459.072     2126.738     1491.065        1.174        0.304      118.423       36.096        0.093      334.930        5.227      871.399
12/16/2013  13:45:00       48.448      -11.061       30.673       33.212       22.501       18.163     1103.014      506.316      329.888        0.267        0.097       49.694       16.534        0.111      335.091        5.496      871.386
12/16/2013  13:46:00       46.214       65.485       76.244       47.575       58.134       40.093     2263.354     3379.546     1607.430        0.974        0.363       80.150       42.832        0.286      335.181        5.644      871.367
12/16/2013  13:47:00       58.831       63.811       78.023       56.510       52.515       36.458     3193.420     2757.819     1329.168        1.045        0.364       86.792       38.237        0.194      335.150        5.595      871.359
12/16/2013  13:48:00       51.220       59.312       55.743       45.975       36.864       34.360     2113.681     1358.971     1180.611        0.695        0.233       78.367       28.350        0.131      335.122        5.547      871.350
12/16/2013  13:49:00       38.492       63.406       66.009       50.115       37.438       28.544     2511.467     1401.567      814.762        0.729        0.236       74.175       29.321        0.156      335.290        5.825      871.339
12/16/2013  13:50:00       90.690       83.801       52.191       57.187       32.549       42.866     3270.355     1059.415     1837.510        1.207        0.308      123.480       42.135        0.116      335.118        5.540      871.332
12/16/2013  13:51:00       13.348       24.989       56.065       33.224       47.855       29.638     1103.849     2290.088      878.391        0.411        0.214       28.330       27.389        0.935      335.481        6.142      871.336
12/16/2013  13:52:00       -1.900       -6.705       57.562       30.792       52.395       32.981      948.121     2745.218     1087.726        0.407        0.239        6.969       30.490       19.142      335.528        6.222      871.328
12/16/2013  13:53:00       51.027       -5.337       24.405       45.954       74.271       34.536     2111.794     5516.171     1192.742        0.602        0.441       51.305       35.577        0.481      335.365        5.948      871.322
12/16/2013  13:54:00       22.015       33.947       58.478       31.231       30.055       20.838      975.360      903.274      434.206        0.368        0.116       40.461       13.411        0.110      335.492        6.161      871.320
12/16/2013  13:55:00       65.098       59.906       41.053       46.545       34.216       26.852     2166.400     1170.750      721.021        0.678        0.203       88.467       22.914        0.067      335.351        5.926      871.314
12/16/2013  13:56:00       88.856       66.777        9.105       36.919       25.367       40.851     1363.047      643.503     1668.784        0.806        0.184      111.151       22.701        0.042      335.250        5.759      871.313
12/16/2013  13:57:00       96.840       67.099       -1.020       44.100       28.055       21.921     1944.836      787.064      480.509        0.855        0.161      117.815       10.793        0.008      335.107        5.522      871.318
12/16/2013  13:58:00       29.030       50.170        4.810       26.264       37.792       25.212      689.815     1428.241      635.623        0.307        0.138       57.963       18.900        0.106      335.282        5.812      871.312
12/16/2013  13:59:00       10.454       39.141        5.322       29.117       26.876       23.510      847.812      722.320      552.729        0.190        0.106       40.513       14.148        0.122      335.358        5.938      871.306
12/16/2013  14:00:00       75.570       71.714        3.118       33.503       21.652       24.280     1122.464      468.822      589.520        0.652        0.109      104.181       22.908        0.048      335.152        5.596      871.291
12/16/2013  14:01:00       26.497       16.290        7.698       29.965       24.640       24.041      897.883      607.111      577.988        0.155        0.104       31.104       16.892        0.295      335.390        5.992      871.286
12/16/2013  14:02:00       87.699       62.525        2.430       49.778       38.547       28.370     2477.840     1485.901      804.883        0.819        0.238      107.706       19.034        0.031      335.262        5.778      871.282
12/16/2013  14:03:00       61.616       43.752       11.472       36.452       27.109       29.756     1328.751      734.918      885.423        0.440        0.147       75.569       17.400        0.053      335.350        5.925      871.269
12/16/2013  14:04:00       28.012       39.747       56.582       36.722       40.708       37.876     1348.510     1657.181     1434.573        0.500        0.222       48.626       35.814        0.542      335.608        6.355      871.264
12/16/2013  14:05:00       45.787       28.109       33.976       28.279       21.710       25.838      799.699      471.309      667.594        0.299        0.097       53.726       18.615        0.120      335.325        5.884      871.257
12/16/2013  14:06:00       15.340       34.063       39.640       34.929       44.805       36.308     1220.027     2007.492     1318.252        0.376        0.227       37.357       35.406        0.898      335.626        6.385      871.238
12/16/2013  14:07:00      105.198       55.662       19.432       34.103       31.993       25.193     1163.047     1023.578      634.696        0.868        0.141      119.016       23.270        0.038      335.167        5.624      871.219
12/16/2013  14:08:00       53.567       20.625       12.281       35.934       27.209       27.200     1291.219      740.320      739.860        0.311        0.139       57.400       11.085        0.037      335.354        5.932      871.207
12/16/2013  14:09:00       78.904       17.452       17.539       50.439       34.306       39.140     2544.126     1176.915     1531.956        0.604        0.263       80.811       37.747        0.218      335.347        5.920      871.203
12/16/2013  14:10:00      144.629       84.853       33.286       51.281       64.229       39.590     2629.737     4125.329     1567.392        1.877        0.416      167.683       27.671        0.027      335.222        5.711      871.198
12/16/2013  14:11:00       41.530       72.884       62.542       62.409       48.143       41.570     3894.865     2317.702     1728.077        0.944        0.397       83.885       43.216        0.265      335.473        6.128      871.185
12/16/2013  14:12:00       54.406       36.668       53.623       53.766       39.031       29.299     2890.788     1523.438      858.416        0.623        0.264       65.609       29.651        0.204      335.386        5.984      871.188
12/16/2013  14:13:00       87.654       62.250       30.106       47.219       44.736       41.098     2229.653     2001.352     1689.063        0.919        0.296      107.509       18.462        0.029      335.395        6.000      871.199
12/16/2013  14:14:00      101.059       88.776       22.328       46.559       34.548       50.805     2167.707     1193.593     2581.123        1.227        0.297      134.514       31.936        0.056      335.354        5.932      871.203
12/16/2013  14:15:00       83.011       69.453       -0.935       42.530       43.063       33.790     1808.773     1854.410     1141.773        0.826        0.240      108.234       27.574        0.065      335.252        5.761      871.203
12/16/2013  14:16:00       20.494       48.300       44.769       47.480       33.485       36.722     2254.351     1121.233     1348.530        0.474        0.236       52.468       20.516        0.153      335.375        5.965      871.196
12/16/2013  14:17:00       37.476       34.746       59.091       37.888       47.234       34.128     1435.515     2231.090     1164.750        0.547        0.242       51.105       36.560        0.512      335.365        5.949      871.207
12/16/2013  14:18:00        6.658       42.413       70.995       27.347       44.229       27.356      747.867     1956.246      748.369        0.517        0.173       42.932       29.064        0.458      335.531        6.226      871.208
12/16/2013  14:19:00       41.767       63.178       60.303       35.700       40.987       28.461     1274.491     1679.955      810.040        0.657        0.188       75.736       27.094        0.128      335.428        6.053      871.221
12/16/2013  14:20:00       36.532       44.020        3.854       36.797       38.067       30.253     1354.053     1449.103      915.237        0.350        0.186       57.204       21.413        0.140      335.416        6.034      871.223
12/16/2013  14:21:00       70.413       61.167        1.818       39.283       25.822       20.671     1543.131      666.770      427.277        0.567        0.132       93.270        6.968        0.006      335.361        5.944      871.234
12/16/2013  14:22:00       32.335       53.159       13.765       26.235       27.459       22.401      688.261      754.004      501.792        0.300        0.097       62.221       13.890        0.050      335.404        6.015      871.237
12/16/2013  14:23:00       16.296       53.275       57.611       31.969       33.753       34.466     1022.034     1139.286     1187.873        0.489        0.167       55.712       23.988        0.185      335.446        6.085      871.239
12/16/2013  14:24:00       76.248      113.052       92.261       72.495       34.714       41.565     5255.595     1205.036     1727.624        1.765        0.409      136.361       45.349        0.111      335.369        5.956      871.233
12/16/2013  14:25:00       38.935       97.062       82.199       34.198       32.876       36.350     1169.533     1080.820     1321.358        1.063        0.179      104.580       23.249        0.049      335.467        6.120      871.234
12/16/2013  14:26:00        5.006       94.436      101.272       20.787       41.382       25.117      432.108     1712.487      630.846        1.099        0.139       94.569       27.225        0.083      335.441        6.077      871.226
12/16/2013  14:27:00       25.399       89.296       94.226       35.601       34.730       30.813     1267.402     1206.184      949.449        1.046        0.171       92.838       25.320        0.074      335.389        5.991      871.227
12/16/2013  14:28:00       49.032       22.184       37.631       38.076       30.652       29.381     1449.760      939.526      863.226        0.378        0.163       53.817       19.486        0.131      335.414        6.031      871.232
12/16/2013  14:29:00       74.452       49.319       65.599       44.294       38.871       32.182     1961.960     1510.945     1035.656        0.839        0.225       89.306       31.117        0.121      335.375        5.966      871.231
12/16/2013  14:30:00       43.188       13.295       38.284       43.417       37.874       27.260     1885.032     1434.467      743.126        0.378        0.203       45.188       33.802        0.560      335.517        6.204      871.225
12/16/2013  14:31:00       33.852       53.263       75.179       49.923       49.382       29.862     2492.273     2438.564      891.730        0.773        0.291       63.110       35.169        0.311      335.605        6.351      871.211
12/16/2013  14:32:00       79.286       70.150        7.387       45.083       25.354       35.408     2032.460      642.829     1253.719        0.759        0.196      105.865       22.301        0.044      335.373        5.964      871.198
12/16/2013  14:33:00        7.356       36.236       16.867       17.675       24.757       23.322      312.406      612.911      543.895        0.156        0.073       36.975       13.772        0.139      335.484        6.147      871.193
12/16/2013  14:34:00        9.234       51.864       75.491       39.509       38.441       27.805     1560.992     1477.705      773.120        0.614        0.191       52.679       25.220        0.229      335.506        6.184      871.197
12/16/2013  14:35:00       53.604       50.905       63.309       43.272       44.722       36.121     1872.489     2000.033     1304.712        0.732        0.259       73.923       37.300        0.255      335.472        6.126      871.194
12/16/2013  14:36:00        7.488       41.745       53.281       26.452       31.682       29.038      699.713     1003.732      843.179        0.359        0.127       42.412       23.069        0.296      335.600        6.344      871.192
12/16/2013  14:37:00       75.147       56.943       44.805       56.579       37.690       44.907     3201.192     1420.534     2016.645        0.877        0.332       94.284       39.592        0.176      335.545        6.251      871.182
12/16/2013  14:38:00       43.859       17.126       45.472       52.333       37.989       36.280     2738.758     1443.194     1316.234        0.489        0.275       47.084       32.277        0.470      335.474        6.131      871.173
12/16/2013  14:39:00       12.943      -16.015       49.361       23.393       47.309       26.259      547.252     2238.139      689.523        0.317        0.174       20.591       31.155        2.289      335.609        6.358      871.175
12/16/2013  14:40:00        8.107       40.753        0.380       37.247       19.669       35.448     1387.349      386.853     1256.562        0.238        0.152       41.552       22.601        0.296      335.423        6.046      871.178
12/16/2013  14:41:00       -7.301       15.899       15.600       24.496       14.709       22.983      600.052      216.356      528.222        0.095        0.067       17.495       20.288        1.345      335.621        6.378      871.170
12/16/2013  14:42:00       23.364       47.094       21.982       25.022       17.201       30.351      626.095      295.885      921.157        0.254        0.092       52.571       13.015        0.061      335.608        6.355      871.173
12/16/2013  14:43:00      -15.108       20.837       38.783       23.173       25.199       20.539      536.984      634.994      421.841        0.188        0.080       25.737       18.319        0.507      335.761        6.610      871.170
12/16/2013  14:44:00       -3.327      -13.104       27.110       13.388       31.087       20.172      179.230      966.425      406.907        0.123        0.078       13.519       19.750        2.134      335.842        6.745      871.173
12/16/2013  14:45:00       14.776       39.554       52.938       27.506       37.394       22.625      756.578     1398.312      511.885        0.363        0.133       42.224       20.557        0.237      335.718        6.540      871.170
12/16/2013  14:46:00       24.095       30.338       34.094       33.223       31.151       35.351     1103.762      970.396     1249.661        0.299        0.166       38.742       29.482        0.579      335.648        6.421      871.167
12/16/2013  14:47:00       21.530      -25.717       -4.175       13.916       15.199       11.665      193.649      231.021      136.079        0.085        0.028       33.539        8.996        0.072      335.526        6.219      871.179
12/16/2013  14:48:00       34.099       11.617       15.063       15.375       12.513       11.538      236.404      156.568      133.127        0.103        0.026       36.023        7.295        0.041      335.583        6.313      871.182
12/16/2013  14:49:00        3.349       49.166       66.424       33.987       31.448       29.994     1155.117      989.006      899.626        0.494        0.152       49.280       29.571        0.360      335.725        6.551      871.182
12/16/2013  14:50:00       -2.274       45.591       65.505       24.468       35.001       24.727      598.666     1225.104      611.405        0.440        0.122       45.648       20.504        0.202      335.802        6.678      871.190
12/16/2013  14:51:00       36.343       54.267       47.030       32.982       30.429       17.831     1087.843      925.902      317.956        0.440        0.117       65.313        5.400        0.007      335.672        6.463      871.208
12/16/2013  14:52:00       -0.179       60.789       74.329       25.997       42.040       33.687      675.829     1767.325     1134.817        0.640        0.179       60.789       34.293        0.318      335.660        6.441      871.217
12/16/2013  14:53:00       85.955       83.414       46.828       37.517       27.774       37.580     1407.529      771.413     1412.264        1.006        0.180      119.775       25.195        0.044      335.506        6.185      871.217
12/16/2013  14:54:00       13.718        3.942       20.350       26.354       25.363       16.967      694.539      643.307      287.869        0.112        0.081       14.273       17.866        1.567      335.715        6.533      871.222
12/16/2013  14:55:00       29.409       39.787        5.954       45.001       31.523       26.684     2025.085      993.673      712.029        0.311        0.187       49.476       12.142        0.060      335.624        6.383      871.216
12/16/2013  14:56:00       56.980       65.323       62.612       51.654       42.950       34.196     2668.096     1844.712     1169.342        0.856        0.284       86.682       29.139        0.113      335.562        6.279      871.216
12/16/2013  14:57:00       81.706       46.774       10.790       60.866       31.356       30.987     3704.620      983.207      960.195        0.731        0.282       94.147       31.703        0.113      335.553        6.263      871.223
12/16/2013  14:58:00       73.350       64.760        4.155       33.264       28.628       26.336     1106.480      819.548      693.592        0.610        0.131       97.847        9.536        0.009      335.567        6.287      871.226
12/16/2013  14:59:00       70.116       58.205        7.403       41.388       31.374       31.555     1712.980      984.300      995.689        0.603        0.185       91.126       20.086        0.049      335.575        6.300      871.228
12/16/2013  15:00:00       51.935       31.152       11.091       23.101       29.334       16.149      533.645      860.495      260.792        0.272        0.083       60.562       10.869        0.032      335.592        6.327      871.229
12/16/2013  15:01:00       18.147       55.455       14.671       30.906       30.515       22.285      955.152      931.174      496.630        0.300        0.119       58.349       19.249        0.109      335.621        6.377      871.230
12/16/2013  15:02:00       44.005       64.944       45.882       48.756       34.048       41.393     2377.192     1159.300     1713.401        0.675        0.262       78.449       36.699        0.219      335.552        6.262      871.229
12/16/2013  15:03:00       46.233       52.448       37.082       44.527       21.238       27.972     1982.646      451.063      782.455        0.474        0.161       69.917       27.778        0.158      335.603        6.346      871.237
12/16/2013  15:04:00       59.864       68.952       65.402       56.696       52.744       40.606     3214.451     2781.941     1648.830        1.013        0.382       91.313       38.261        0.176      335.583        6.312      871.237
12/16/2013  15:05:00       17.104       65.480       89.650       36.795       56.234       34.133     1353.867     3162.214     1165.046        0.915        0.284       67.677       39.667        0.344      335.664        6.449      871.246
12/16/2013  15:06:00       33.309       68.575       65.768       51.322       26.992       21.974     2633.927      728.566      482.842        0.699        0.192       76.236       22.266        0.085      335.640        6.408      871.247
12/16/2013  15:07:00       93.623       75.053       13.602       32.134       29.141       32.305     1032.583      849.223     1043.596        0.875        0.146      119.992       20.006        0.028      335.533        6.230      871.250
12/16/2013  15:08:00       50.500       59.901       36.373       39.927       26.618       38.151     1594.192      708.544     1455.511        0.561        0.188       78.348       30.993        0.156      335.624        6.382      871.244
12/16/2013  15:09:00       73.558       37.695       20.936       24.701       29.257       23.883      610.117      855.964      570.377        0.465        0.102       82.654       22.291        0.073      335.510        6.191      871.249
12/16/2013  15:10:00       19.940       -4.242        6.248       11.851       22.200       12.190      140.440      492.848      148.589        0.062        0.039       20.386        5.747        0.079      335.588        6.322      871.242
12/16/2013  15:11:00       42.327       41.627       25.084       40.117       26.334       25.043     1609.347      693.457      627.169        0.354        0.146       59.367       25.068        0.178      335.625        6.384      871.239
12/16/2013  15:12:00       41.221       36.190       13.760       45.225       21.385       25.482     2045.344      457.303      649.315        0.317        0.158       54.853       26.095        0.226      335.619        6.373      871.237
12/16/2013  15:13:00      105.632       66.551       33.704       42.553       36.486       32.564     1810.775     1331.220     1060.439        1.046        0.210      124.848       20.130        0.026      335.479        6.140      871.240
12/16/2013  15:14:00      110.233       49.661       22.768       49.103       33.341       33.791     2411.081     1111.635     1141.812        0.990        0.233      120.903       25.361        0.044      335.501        6.177      871.233
12/16/2013  15:15:00       64.085       42.517       22.768       20.498       18.975       23.106      420.186      360.052      533.887        0.387        0.066       76.906       10.314        0.018      335.514        6.199      871.232
12/16/2013  15:16:00       55.080       55.132       19.106       30.292       21.502       21.780      917.598      462.351      474.347        0.415        0.093       77.932       10.566        0.018      335.598        6.338      871.237
12/16/2013  15:17:00       45.077       35.919       23.884       28.831       18.845       19.325      831.220      355.151      373.445        0.273        0.078       57.638       13.569        0.055      335.611        6.359      871.242
12/16/2013  15:18:00       95.889       44.133       15.593       26.012       23.334       20.904      676.639      544.491      436.981        0.652        0.083      105.557       13.060        0.015      335.499        6.173      871.238
12/16/2013  15:19:00       81.428       36.431       13.879       22.896       27.695       22.851      524.243      767.009      522.158        0.498        0.091       89.207       15.009        0.028      335.557        6.269      871.241
12/16/2013  15:20:00       54.330       36.477       34.337       24.619       24.004       18.986      606.074      576.186      360.479        0.350        0.077       65.439       16.423        0.063      335.573        6.298      871.236
12/16/2013  15:21:00       21.815       64.362       69.171       33.492       42.203       33.096     1121.695     1781.080     1095.343        0.670        0.200       67.958       32.495        0.229      335.647        6.420      871.229
12/16/2013  15:22:00       63.552       91.425       67.573       40.168       28.942       40.830     1613.495      837.653     1667.067        1.054        0.206      111.343       31.390        0.079      335.535        6.234      871.224
12/16/2013  15:23:00       49.240       73.630       71.397       41.182       41.415       28.946     1695.997     1715.179      837.853        0.860        0.212       88.577       17.722        0.040      335.600        6.343      871.220
12/16/2013  15:24:00       29.862       72.366       67.962       48.160       35.129       37.639     2319.374     1234.078     1416.713        0.786        0.249       78.285       37.501        0.229      335.641        6.410      871.223
12/16/2013  15:25:00       77.343       72.529       46.669       38.401       29.676       39.048     1474.674      880.646     1524.777        0.865        0.194      106.030       32.702        0.095      335.611        6.360      871.232
12/16/2013  15:26:00       72.539       57.663       20.630       28.636       28.486       26.223      820.038      811.462      687.640        0.567        0.116       92.665       19.251        0.043      335.563        6.280      871.245
12/16/2013  15:27:00       17.253       34.340       36.074       24.507       23.739       12.687      600.578      563.543      160.964        0.205        0.066       38.431        9.376        0.060      335.651        6.427      871.252
12/16/2013  15:28:00       64.497       41.208       24.248       46.767       38.544       33.021     2187.168     1485.622     1090.375        0.560        0.238       76.537       17.312        0.051      335.572        6.295      871.265
12/16/2013  15:29:00       74.464       65.862       39.914       33.740       32.511       32.064     1138.375     1056.997     1028.100        0.735        0.161       99.412       21.195        0.045      335.549        6.257      871.266
12/16/2013  15:30:00       37.067       35.753       44.142       25.499       27.708       21.209      650.210      767.723      449.826        0.323        0.093       51.500       12.642        0.060      335.603        6.347      871.267
12/16/2013  15:31:00       24.282       55.556       62.185       41.879       31.727       32.924     1753.842     1006.624     1083.985        0.569        0.192       60.631       27.295        0.203      335.647        6.421      871.260
12/16/2013  15:32:00       49.258       81.849       75.658       43.636       30.337       27.072     1904.113      920.346      732.893        0.920        0.178       95.528        6.261        0.004      335.651        6.428      871.251
12/16/2013  15:33:00       30.447       74.004       71.530       27.430       25.766       17.144      752.422      663.867      293.902        0.661        0.086       80.023       13.712        0.029      335.599        6.341      871.241
12/16/2013  15:34:00       50.566       55.309       49.814       34.914       23.660       32.990     1218.966      559.798     1088.347        0.548        0.143       74.940       27.118        0.131      335.568        6.289      871.239
12/16/2013  15:35:00       11.967       26.293       44.608       26.578       39.913       27.834      706.378     1593.067      774.727        0.295        0.154       28.888       26.974        0.872      335.671        6.460      871.233
12/16/2013  15:36:00        7.796       60.893       66.546       31.656       37.581       21.805     1002.087     1412.359      475.462        0.554        0.144       61.390       19.521        0.101      335.619        6.373      871.234
12/16/2013  15:37:00        6.442       63.966       74.415       23.131       26.959       16.244      535.046      726.795      263.883        0.560        0.076       64.289       15.648        0.059      335.630        6.392      871.242
12/16/2013  15:38:00       20.725       54.059       60.975       27.135       32.316       19.990      736.335     1044.316      399.616        0.462        0.109       57.896       15.065        0.068      335.559        6.272      871.251
12/16/2013  15:39:00       21.166       35.420       31.304       23.848       21.931       23.642      568.736      480.956      558.960        0.215        0.080       41.262       13.027        0.100      335.535        6.234      871.263
12/16/2013  15:40:00       34.049       34.528       36.459       32.131       33.224       23.420     1032.431     1103.821      548.480        0.318        0.134       48.492       27.834        0.329      335.561        6.277      871.278
12/16/2013  15:41:00       49.391       48.148       36.323       38.047       20.274       19.842     1447.580      411.023      393.703        0.416        0.113       68.976       20.144        0.085      335.610        6.358      871.299
12/16/2013  15:42:00       52.039       49.994       45.038       27.211       30.322       26.600      740.418      919.440      707.574        0.480        0.118       72.163       20.098        0.078      335.585        6.316      871.311
12/16/2013  15:43:00       58.377       38.439       25.962       31.624       17.111       19.584     1000.077      292.791      383.523        0.362        0.084       69.896       14.019        0.040      335.515        6.200      871.318
12/16/2013  15:44:00       52.313      -31.412        5.947       42.607       38.314       26.617     1815.314     1468.001      708.482        0.387        0.200       61.019       32.593        0.285      335.522        6.212      871.326
12/16/2013  15:45:00       40.568      -33.772        3.259       23.318       26.945       16.132      543.712      726.035      260.227        0.216        0.076       52.785       12.685        0.058      335.577        6.302      871.320
12/16/2013  15:46:00       28.497       19.761       14.710       16.991       16.605       16.874      288.696      275.724      284.729        0.113        0.042       34.678        6.209        0.032      335.580        6.308      871.308
12/16/2013  15:47:00       19.467       11.084        6.306       21.409       12.636       12.738      458.350      159.676      162.245        0.066        0.039       22.402        4.877        0.047      335.546        6.252      871.313
12/16/2013  15:48:00       37.306       20.845       11.866       23.355       16.468       18.754      545.468      271.187      351.716        0.157        0.058       42.735       12.285        0.083      335.469        6.124      871.307
12/16/2013  15:49:00       46.370       21.768       29.177       44.059       31.035       27.896     1941.200      963.200      778.173        0.358        0.184       51.225       21.519        0.176      335.521        6.210      871.300
12/16/2013  15:50:00       72.520       20.779       35.574       27.678       42.643       24.357      766.080     1818.466      593.251        0.507        0.159       75.438       19.594        0.067      335.566        6.284      871.294
12/16/2013  15:51:00       20.309      -22.173        9.731       17.926       10.412       11.673      321.333      108.406      136.249        0.078        0.028       30.068        4.858        0.026      335.618        6.371      871.287
12/16/2013  15:52:00       30.178       13.429       14.540       25.371       32.543       12.044      643.670     1059.023      145.060        0.157        0.092       33.031       10.171        0.095      335.620        6.373      871.283
12/16/2013  15:53:00       53.507       -8.063        5.616       17.250       18.553       12.484      297.554      344.222      155.860        0.188        0.040       54.111        9.825        0.033      335.560        6.276      871.283
12/16/2013  15:54:00       35.612       20.548        4.568        9.304       13.750       13.109       86.559      189.056      171.838        0.108        0.022       41.115        7.498        0.033      335.540        6.240      871.290
12/16/2013  15:55:00       78.705       41.695       15.268       30.429       18.352       15.133      925.943      336.799      229.007        0.483        0.075       89.068        9.620        0.012      335.504        6.182      871.292
12/16/2013  15:56:00       14.911       41.653       44.294       27.660       23.710       24.441      765.053      562.147      597.362        0.292        0.096       44.242       19.892        0.202      335.635        6.400      871.298
12/16/2013  15:57:00       10.581       46.652       59.992       21.524       25.547       11.585      463.291      652.652      134.222        0.357        0.063       47.837       12.545        0.069      335.655        6.434      871.296
12/16/2013  15:58:00       -6.297       64.369       76.365       14.670       24.409       17.743      215.197      595.782      314.811        0.557        0.056       64.677       16.798        0.067      335.579        6.307      871.297
12/16/2013  15:59:00       42.320       45.291       36.822       44.069       18.756       21.359     1942.038      351.803      456.199        0.397        0.138       61.986       24.770        0.160      335.525        6.218      871.303
12/16/2013  16:00:00       87.086       45.261       20.082       17.864       17.457       16.321      319.115      304.752      266.387        0.546        0.045       98.145        9.730        0.010      335.491        6.159      871.300
12/16/2013  16:01:00       90.488       51.272       26.978       16.328       12.644       20.462      266.591      159.862      418.711        0.619        0.042      104.004       10.618        0.010      335.439        6.071      871.309
12/16/2013  16:02:00       71.639       36.568       13.125       18.814       11.800       16.751      353.984      139.248      280.582        0.371        0.039       80.433        5.043        0.004      335.478        6.139      871.304
12/16/2013  16:03:00       68.377       41.294       12.447       10.685        9.350       13.391      114.170       87.420      179.309        0.346        0.019       79.879        7.835        0.010      335.449        6.089      871.297
12/16/2013  16:04:00       48.134       28.185       10.948       15.989       15.932       16.478      255.652      253.828      271.539        0.201        0.039       55.779       12.265        0.048      335.425        6.050      871.293
12/16/2013  16:05:00       40.438       28.897       14.394       11.957       10.380       11.509      142.981      107.753      132.451        0.153        0.019       49.702        7.396        0.022      335.505        6.183      871.296
12/16/2013  16:06:00       57.857       29.343        9.831       16.471       14.034       15.986      271.293      196.960      255.546        0.251        0.036       64.873        7.421        0.013      335.493        6.163      871.294
12/16/2013  16:07:00       53.705       28.339        5.543       15.909       10.762       13.661      253.081      115.830      186.623        0.214        0.028       60.723        4.922        0.007      335.407        6.019      871.299
12/16/2013  16:08:00       62.102       30.726        4.667       18.343       11.610       13.116      336.479      134.793      172.041        0.273        0.032       69.287        4.499        0.004      335.432        6.061      871.296
12/16/2013  16:09:00       37.777       26.910        9.437       17.874       14.160       14.697      319.495      200.492      216.006        0.149        0.037       46.382       11.540        0.062      335.387        5.984      871.290
12/16/2013  16:10:00       34.775       37.481        3.053       14.042       18.341       12.717      197.185      336.401      161.721        0.166        0.035       51.128       13.075        0.065      335.407        6.021      871.290
12/16/2013  16:11:00       42.064       34.652       -1.117        5.193        6.755        4.758       26.968       45.630       22.639        0.153        0.005       54.499        4.011        0.005      335.430        6.060      871.302
12/16/2013  16:12:00       35.369       21.125        5.821        6.045        6.241        6.104       36.543       38.956       37.253        0.092        0.006       41.197        3.673        0.008      335.430        6.057      871.317
12/16/2013  16:13:00       51.505       31.554       12.770       15.678       11.461       11.704      245.815      131.352      136.972        0.216        0.026       60.402        7.157        0.014      335.360        5.940      871.321
12/16/2013  16:14:00       53.444       25.933       11.554       17.894       10.666       13.911      320.180      113.757      193.526        0.214        0.031       59.404        8.468        0.020      335.369        5.957      871.324
12/16/2013  16:15:00       44.193       29.762       25.413       23.917       14.884       18.267      572.001      221.538      333.695        0.231        0.056       53.281       14.597        0.075      335.400        6.007      871.339
12/16/2013  16:16:00       33.683       29.121       34.960       27.134       24.965       15.839      736.262      623.264      250.868        0.241        0.081       44.526       16.863        0.143      335.421        6.043      871.340
12/16/2013  16:17:00       19.643       31.859       38.911       20.532       19.059       19.081      421.568      363.243      364.103        0.203        0.057       37.428       14.539        0.151      335.456        6.101      871.338
12/16/2013  16:18:00       11.354       40.791       39.710       19.382       19.064       14.505      375.676      363.418      210.403        0.216        0.047       42.341        7.360        0.030      335.401        6.009      871.329
12/16/2013  16:19:00       34.104       59.638       54.066       29.352       22.098       20.715      861.527      488.313      429.120        0.471        0.089       68.700       15.546        0.051      335.488        6.154      871.334
12/16/2013  16:20:00       42.275       52.919       43.916       28.147       19.720       14.772      792.235      388.876      218.204        0.396        0.070       67.732       13.759        0.041      335.422        6.046      871.329
12/16/2013  16:21:00       45.319       36.401       35.561       27.213       25.097       19.875      740.552      629.847      395.013        0.320        0.088       58.127       17.586        0.092      335.384        5.981      871.332
12/16/2013  16:22:00       42.996       23.399       32.281       19.278       18.651       19.342      371.659      347.861      374.103        0.227        0.055       48.951       13.198        0.073      335.350        5.924      871.336
12/16/2013  16:23:00       61.308       32.157       15.814       21.106       14.285       15.911      445.474      204.074      253.173        0.297        0.045       69.230       10.712        0.024      335.338        5.905      871.337
12/16/2013  16:24:00       56.986       49.361       19.415       15.835       11.605       15.775      250.742      134.680      248.861        0.335        0.032       75.392        9.944        0.017      335.254        5.766      871.352
12/16/2013  16:25:00       63.619       47.446       17.201       25.887       13.329       18.272      670.120      177.674      333.884        0.389        0.059       79.363        9.360        0.014      335.308        5.855      871.353
12/16/2013  16:26:00       69.468       41.901       15.114       17.247       13.380       13.904      297.442      179.029      193.308        0.374        0.033       81.126        7.916        0.010      335.306        5.851      871.356
12/16/2013  16:27:00       77.796       34.289        9.777       18.766       18.747       13.725      352.165      351.455      188.385        0.411        0.045       85.017        8.189        0.009      335.292        5.829      871.370
12/16/2013  16:28:00       87.360       47.489       17.281       18.345       13.569       14.470      336.553      184.120      209.370        0.546        0.037       99.433        7.275        0.005      335.255        5.766      871.378
12/16/2013  16:29:00       57.998       35.070       16.507       15.617       15.262       14.803      243.899      232.919      219.139        0.278        0.035       67.777        7.380        0.012      335.248        5.754      871.388
12/16/2013  16:30:00       60.380       46.056       10.986       14.163       14.180       11.585      200.601      201.084      134.218        0.321        0.027       75.940        2.087        0.001      335.216        5.701      871.404
12/16/2013  16:31:00       64.023       25.617        7.598       17.641       13.956       13.481      311.212      194.784      181.736        0.275        0.034       68.958        6.824        0.010      335.199        5.674      871.410
12/16/2013  16:32:00       73.612       36.962       12.338       15.517       10.911        9.559      240.763      119.055       91.375        0.369        0.023       82.371        6.503        0.006      335.212        5.695      871.416
12/16/2013  16:33:00       79.955       34.289       12.213       16.048       16.545       14.993      257.554      273.748      224.783        0.424        0.038       86.998        7.069        0.007      335.229        5.724      871.414
12/16/2013  16:34:00       90.784       43.135       11.698       13.623       13.214       10.888      185.584      174.603      118.558        0.536        0.024      100.511        3.404        0.001      335.276        5.801      871.412
12/16/2013  16:35:00       80.344       31.691        5.440       27.105       20.098       19.185      734.685      403.934      368.060        0.450        0.075       86.368       16.095        0.035      335.229        5.724      871.412
12/16/2013  16:36:00       89.270       46.610        5.559       14.414       11.180       11.858      207.776      124.982      140.607        0.532        0.024      100.706        5.355        0.003      335.219        5.707      871.416
12/16/2013  16:37:00       79.742       47.914       15.488       20.754       12.636       11.805      430.749      159.662      139.363        0.481        0.036       93.030        8.443        0.008      335.168        5.621      871.409
12/16/2013  16:38:00       77.435       39.612       10.871       21.411       17.994       17.300      458.430      323.779      299.278        0.438        0.054       86.979       10.518        0.015      335.149        5.591      871.415
12/16/2013  16:39:00       69.784       40.461        7.845       25.855       22.245       14.985      668.479      494.861      224.539        0.398        0.069       80.666       11.521        0.020      335.119        5.540      871.428
12/16/2013  16:40:00       67.612       36.053       19.039       28.594       18.644       17.833      817.611      347.582      317.998        0.386        0.074       76.623       16.813        0.048      335.062        5.447      871.436
12/16/2013  16:41:00       77.044       41.597       10.889       16.482       15.750       13.655      271.660      248.067      186.472        0.425        0.035       87.556        6.747        0.006      335.032        5.397      871.435
12/16/2013  16:42:00       80.854       49.541       14.338       25.161       16.198       17.819      633.076      262.372      317.530        0.520        0.061       94.824        8.951        0.009      334.994        5.336      871.435
12/16/2013  16:43:00       77.024       46.158       12.065       23.045       21.731       11.497      531.092      472.224      132.172        0.467        0.057       89.796       10.591        0.014      335.009        5.359      871.434
12/16/2013  16:44:00       81.233       57.943        9.265       18.869       22.336       18.548      356.042      498.902      344.021        0.562        0.060       99.781       10.101        0.010      334.992        5.331      871.432
12/16/2013  16:45:00       72.205       55.699        9.533       16.810       23.184       19.068      282.571      537.497      363.597        0.479        0.059       91.192        9.308        0.010      334.929        5.227      871.437
12/16/2013  16:46:00       38.580       27.836        6.445       17.795       12.134       14.420      316.649      147.235      207.938        0.149        0.034       47.574       11.127        0.055      334.852        5.098      871.444
12/16/2013  16:47:00       62.527       38.841       18.224       20.970       14.025       16.375      439.726      196.689      268.144        0.333        0.045       73.608       10.461        0.020      334.872        5.130      871.447
12/16/2013  16:48:00       48.928       34.813        8.045       20.349       16.936       14.100      414.069      286.819      198.801        0.228        0.045       60.049        9.367        0.024      334.852        5.098      871.449
12/16/2013  16:49:00       72.782       47.970        4.904       20.372       17.629       15.974      415.011      310.793      255.181        0.430        0.049       87.168        9.589        0.012      334.838        5.074      871.445
12/16/2013  16:50:00       69.333       40.799       15.738       34.330       20.552       22.909     1178.540      422.397      524.817        0.442        0.106       80.446       17.175        0.046      334.804        5.019      871.451
12/16/2013  16:51:00      105.236       65.820       25.449       20.646       17.514       19.470      426.257      306.743      379.082        0.858        0.056      124.125        9.794        0.006      334.813        5.032      871.457
12/16/2013  16:52:00      126.942       90.322       16.207       28.518       24.996       21.974      813.261      624.808      482.849        1.323        0.096      155.796       12.463        0.006      334.791        4.996      871.468
12/16/2013  16:53:00       80.415       67.213       10.866       34.063       27.880       23.510     1160.311      777.315      552.741        0.680        0.125      104.806       14.909        0.020      334.738        4.909      871.468
12/16/2013  16:54:00       56.408       39.465       12.669       35.311       19.978       19.094     1246.873      399.129      364.582        0.345        0.101       68.842       10.395        0.023      334.643        4.751      871.471
12/16/2013  16:55:00       49.774       63.591        9.567       29.123       43.480       25.331      848.137     1890.507      641.678        0.500        0.169       80.754       21.344        0.070      334.653        4.769      871.483
12/16/2013  16:56:00       97.879       63.522        9.527       35.714       37.716       29.639     1275.475     1422.490      878.492        0.864        0.179      116.684       19.956        0.029      334.650        4.764      871.483
12/16/2013  16:57:00      110.361       67.877       15.814       42.132       34.339       21.974     1775.064     1179.151      482.856        1.024        0.172      129.564       15.725        0.015      334.581        4.648      871.491
12/16/2013  16:58:00       56.312       54.578       12.360       25.926       31.292       22.191      672.140      979.212      492.426        0.422        0.107       78.420       14.755        0.035      334.504        4.520      871.500
12/16/2013  16:59:00       89.775       56.731       15.957       31.678       20.337       25.374     1003.519      413.575      643.816        0.680        0.103      106.198       14.724        0.019      334.504        4.519      871.512
12/16/2013  17:00:00       55.726       54.663        3.022       31.826       29.062       24.280     1012.925      844.602      589.499        0.427        0.122       78.061       16.274        0.043      334.441        4.416      871.522
12/16/2013  17:01:00       49.580       74.023       -1.742       46.671       51.103       36.162     2178.217     2611.545     1307.687        0.702        0.305       89.093       31.754        0.127      334.456        4.440      871.540
12/16/2013  17:02:00       65.545       79.460       -2.368       47.805       48.819       41.006     2285.283     2383.302     1681.489        0.848        0.318      103.005       34.401        0.112      334.395        4.339      871.551
12/16/2013  17:03:00      107.720       76.222        6.465       44.377       31.724       31.319     1969.330     1006.385      980.890        1.071        0.198      131.959       22.756        0.030      334.319        4.215      871.556
12/16/2013  17:04:00       62.787       52.107        8.390       41.450       42.968       35.948     1718.074     1846.206     1292.270        0.579        0.243       81.593       18.770        0.053      334.285        4.158      871.565
12/16/2013  17:05:00       99.490       61.758        7.672       46.994       31.059       34.688     2208.452      964.650     1203.243        0.907        0.219      117.100       21.319        0.033      334.286        4.159      871.573
12/16/2013  17:06:00       86.762       80.381        4.148       50.297       31.246       29.741     2529.794      976.284      884.515        0.920        0.220      118.275       21.409        0.033      334.273        4.137      871.578
12/16/2013  17:07:00       89.835       76.390        2.093       41.989       36.620       40.342     1763.054     1341.004     1627.515        0.932        0.237      117.923       23.754        0.041      334.247        4.094      871.582
12/16/2013  17:08:00      102.381       75.976       14.700       56.490       32.399       33.114     3191.128     1049.726     1096.570        1.090        0.267      127.492       31.078        0.059      334.206        4.024      871.583
12/16/2013  17:09:00       62.543       47.046        5.796       37.776       36.555       26.797     1427.030     1336.258      718.058        0.482        0.174       78.262       16.235        0.043      334.144        3.921      871.589
12/16/2013  17:10:00       61.679       41.999       -9.901       36.824       21.617       19.590     1355.995      467.304      383.753        0.394        0.110       74.621       14.448        0.037      334.133        3.904      871.588
12/16/2013  17:11:00       66.467       40.001        6.559       23.793       16.097       14.749      566.088      259.112      217.536        0.355        0.052       77.575        4.625        0.004      334.122        3.886      871.599
12/16/2013  17:12:00       77.099       46.530       19.422       38.267       29.688       25.719     1464.396      881.381      661.484        0.575        0.150       90.051       13.391        0.022      334.095        3.841      871.607
12/16/2013  17:13:00       69.290       67.394        2.845       31.267       24.796       23.946      977.648      614.860      573.432        0.576        0.108       96.660       15.856        0.027      334.132        3.901      871.613
12/16/2013  17:14:00       75.104       42.462        9.131       28.843       20.015       18.684      831.893      400.596      349.095        0.455        0.079       86.276        9.320        0.012      334.092        3.835      871.632
12/16/2013  17:15:00       44.212       53.802       -6.900       24.622       21.902       15.864      606.263      479.715      251.678        0.312        0.067       69.637       13.420        0.037      334.106        3.859      871.650
12/16/2013  17:16:00       36.412       34.756        0.543       27.276       24.344       21.548      743.954      592.633      464.327        0.217        0.090       50.337       17.026        0.114      334.092        3.835      871.661
12/16/2013  17:17:00       64.864       57.690        1.677       23.474       17.775       16.119      551.030      315.940      259.818        0.433        0.056       86.807        8.386        0.009      334.105        3.857      871.660
12/16/2013  17:18:00       38.579       34.510        3.561       23.387       21.709       17.597      546.956      471.281      309.667        0.201        0.066       51.762       17.439        0.114      334.076        3.811      871.658
12/16/2013  17:19:00       39.136       16.765        8.302       14.077       12.388        7.602      198.165      153.472       57.796        0.115        0.020       42.576        6.309        0.022      334.070        3.800      871.669
12/16/2013  17:20:00       18.090       16.480        1.600       12.435        8.636        7.321      154.625       74.578       53.600        0.044        0.014       24.471        6.283        0.066      334.043        3.756      871.680
12/16/2013  17:21:00       20.724       17.320       -2.043       10.304       10.653        8.776      106.167      113.491       77.023        0.052        0.015       27.009        4.592        0.029      334.070        3.800      871.689
12/16/2013  17:22:00       26.572       32.422       -2.527       17.290       19.793       10.366      298.958      391.753      107.457        0.128        0.040       41.920       10.879        0.067      334.042        3.753      871.695
12/16/2013  17:23:00       27.947       34.550        2.859       15.050       20.280       10.716      226.518      411.258      114.829        0.137        0.038       44.438        5.122        0.013      334.081        3.819      871.708
12/16/2013  17:24:00       32.407       24.897        2.010       17.392       13.556       14.638      302.469      183.772      214.275        0.119        0.035       40.866        8.914        0.048      334.045        3.757      871.711
12/16/2013  17:25:00       30.359       23.000        7.636       11.642       12.006       12.701      135.528      144.153      161.315        0.097        0.022       38.087        8.783        0.053      334.090        3.832      871.717
12/16/2013  17:26:00       21.257       13.490        6.054       11.004       11.723       10.090      121.078      137.432      101.805        0.052        0.018       25.176        5.085        0.041      334.052        3.769      871.716
12/16/2013  17:27:00       17.866       31.351       -3.057       11.281       11.208        5.604      127.270      125.623       31.405        0.080        0.014       36.084        2.795        0.006      334.078        3.812      871.720
12/16/2013  17:28:00       18.191       26.193       -5.453       11.141       17.986        9.594      124.112      323.501       92.039        0.079        0.027       31.890        7.298        0.052      334.073        3.806      871.721
12/16/2013  17:29:00       10.854        7.351       -0.333        7.861       16.047        9.747       61.791      257.504       95.007        0.029        0.021       13.109        5.813        0.197      334.073        3.806      871.724
12/16/2013  17:30:00       18.166        1.227        5.747       12.377        7.037        8.972      153.185       49.522       80.492        0.032        0.014       18.208        4.253        0.055      334.092        3.837      871.724
12/16/2013  17:31:00       22.985       22.543       22.057       14.244       12.010       10.790      202.880      144.228      116.417        0.099        0.023       32.194        7.870        0.060      334.052        3.771      871.710
12/16/2013  17:32:00       -3.132       14.365       16.350       16.185       16.907       16.931      261.953      285.835      286.675        0.066        0.042       14.702       13.576        0.853      334.033        3.738      871.710
12/16/2013  17:33:00       -1.096       -2.674       14.818        7.159        6.699        5.907       51.250       44.870       34.895        0.018        0.007        2.890        3.204        1.229      333.951        3.605      871.705
12/16/2013  17:34:00       -1.881       -2.492        5.933        5.572       11.223       10.219       31.046      125.958      104.436        0.015        0.013        3.122        7.297        5.463      333.858        3.450      871.712
12/16/2013  17:35:00      -28.841       -6.130       -1.011       11.764        5.457        6.027      138.403       29.781       36.324        0.054        0.010       29.485        7.021        0.057      333.815        3.377      871.700
12/16/2013  17:36:00      -33.109      -31.605       -3.576       11.965       11.700        7.200      143.163      136.880       51.838        0.122        0.017       45.772        5.502        0.014      333.619        3.052      871.698
12/16/2013  17:37:00      -61.700       -9.325       -8.951        9.679       14.557        5.759       93.689      211.904       33.171        0.216        0.017       62.400        1.700        0.001      333.567        2.966      871.706
12/16/2013  17:38:00      -45.079      -14.462       -9.503       11.485       14.757       10.070      131.915      217.756      101.403        0.139        0.023       47.342        7.907        0.028      333.359        2.621      871.715
12/16/2013  17:39:00      -61.664        2.026      -12.906       16.269       15.979       12.107      264.686      255.337      146.582        0.232        0.033       61.698       10.511        0.029      333.308        2.538      871.735
12/16/2013  17:40:00      -46.396       -5.422       -9.319       32.754       23.393       15.025     1072.831      547.223      225.737        0.206        0.092       46.711       12.493        0.072      333.246        2.432      871.747
12/16/2013  17:41:00      -83.480        0.059       -7.781       32.139       26.088       18.546     1032.885      680.607      343.958        0.454        0.103       83.480       14.458        0.030      333.197        2.352      871.754
12/16/2013  17:42:00      -72.802      -14.553       -5.130       33.250       24.204       19.150     1105.573      585.834      366.740        0.380        0.103       74.242       16.199        0.048      333.178        2.321      871.752
12/16/2013  17:43:00      -21.975        0.243        1.313       31.048       28.235       18.695      963.991      797.239      349.509        0.130        0.106       21.977       19.310        0.772      333.131        2.246      871.763
12/16/2013  17:44:00      -37.681      -17.267        7.197       29.179       35.642       25.386      851.438     1270.380      644.449        0.227        0.138       41.449       21.026        0.257      333.157        2.288      871.773
12/16/2013  17:45:00      -48.981        1.954       -1.203       51.141       26.753       19.828     2615.365      715.722      393.147        0.306        0.186       49.020       20.469        0.174      333.038        2.092      871.793
12/16/2013  17:46:00      -87.784       -6.266       -5.304       38.461       31.709       25.287     1479.237     1005.469      639.452        0.545        0.156       88.007       22.117        0.063      333.089        2.176      871.803
12/16/2013  17:47:00      -61.617      -11.696       -0.393       28.253       21.019       17.114      798.221      441.791      292.895        0.273        0.077       62.717       15.227        0.059      333.005        2.036      871.813
12/16/2013  17:48:00      -75.079      -17.708      -11.112       26.166       17.587       16.208      684.684      309.309      262.685        0.367        0.063       77.139        8.505        0.012      333.058        2.124      871.820
12/16/2013  17:49:00      -66.256      -25.784       -6.792       25.348       13.256       10.971      642.521      175.722      120.364        0.302        0.047       71.096        7.294        0.011      333.050        2.112      871.833
12/16/2013  17:50:00       -3.754      -13.193        6.067       25.706       10.212       10.243      660.789      104.279      104.928        0.055        0.043       13.717        9.979        0.529      333.108        2.209      871.844
12/16/2013  17:51:00        1.930      -20.012        1.357        8.015       11.977        7.791       64.242      143.448       60.705        0.034        0.013       20.105        3.882        0.037      333.240        2.427      871.859
12/16/2013  17:52:00      -28.376       13.483       -5.420       10.458       11.596        9.947      109.366      134.461       98.939        0.068        0.017       31.417        6.460        0.042      333.218        2.386      871.869
12/16/2013  17:53:00      -31.432       28.259      -10.642       11.934        6.523        4.769      142.413       42.547       22.739        0.105        0.010       42.268        4.227        0.010      333.164        2.299      871.880
12/16/2013  17:54:00       -9.984       28.784       -8.883       13.682       11.837       10.921      187.201      140.106      119.264        0.073        0.022       30.466        7.230        0.056      333.280        2.490      871.894
12/16/2013  17:55:00        2.563       26.319       -0.878       20.603       12.317       12.811      424.495      151.718      164.124        0.072        0.037       26.443        9.438        0.127      333.323        2.564      871.906
12/16/2013  17:56:00       25.466       34.859       -0.356       14.426       11.810        7.903      208.095      139.484       62.458        0.114        0.021       43.170        5.425        0.016      333.352        2.609      871.927
12/16/2013  17:57:00       42.811       32.895       13.512       28.046       12.158       16.865      786.591      147.815      284.411        0.216        0.061       53.990       18.206        0.114      333.278        2.489      871.934
12/16/2013  17:58:00       51.858       17.525       14.651       31.123       22.903       16.765      968.611      524.549      281.055        0.249        0.089       54.739       12.727        0.054      333.277        2.485      871.946
12/16/2013  17:59:00       60.730       34.608        4.346       19.030       15.516       13.912      362.149      240.739      193.549        0.285        0.040       69.899        3.985        0.003      333.306        2.534      871.948
12/16/2013  18:00:00       68.622       49.261       12.327       15.321       11.167       11.110      234.730      124.694      123.437        0.389        0.024       84.472        6.496        0.006      333.193        2.346      871.958
12/16/2013  18:01:00       48.420       43.899        7.226        9.321       11.992        7.163       86.881      143.819       51.304        0.230        0.014       65.358        6.024        0.008      333.210        2.373      871.957
12/16/2013  18:02:00       40.452       38.333        4.076        9.508        8.771        9.956       90.396       76.931       99.117        0.169        0.013       55.730        6.565        0.014      333.164        2.297      871.967
12/16/2013  18:03:00       52.112       31.261       13.142       10.528        9.356        8.672      110.838       87.529       75.208        0.207        0.014       60.770        6.145        0.010      333.126        2.236      871.966
12/16/2013  18:04:00       49.474       33.457        5.106       12.448       11.001       11.076      154.957      121.020      122.672        0.200        0.020       59.725        8.138        0.019      333.114        2.216      871.973
12/16/2013  18:05:00       35.180       25.495       17.556       21.619       13.228       15.348      467.375      174.972      235.566        0.154        0.044       43.447       13.415        0.095      333.105        2.201      871.969
12/16/2013  18:06:00       -2.516        2.778       21.533        7.715       14.861        9.925       59.515      220.842       98.498        0.043        0.019        3.748        9.546        6.486      333.078        2.159      871.976
12/16/2013  18:07:00       -6.327      -18.830       16.633       11.971       22.954       10.832      143.302      526.895      117.327        0.073        0.039       19.865        5.730        0.083      333.136        2.252      871.964
12/16/2013  18:08:00      -25.241       -4.495       -5.898        7.050        6.010        5.683       49.700       36.125       32.301        0.041        0.006       25.638        3.685        0.021      332.910        1.881      871.972
12/16/2013  18:09:00      -23.488      -25.318       -2.829       16.104       15.852        8.344      259.340      251.297       69.618        0.089        0.029       34.536        6.403        0.034      332.995        2.020      871.978
12/16/2013  18:10:00       -6.144      -26.693        6.236       21.354       21.131       12.542      455.973      446.511      157.311        0.092        0.053       27.391       10.426        0.145      333.067        2.138      871.991
12/16/2013  18:11:00      -28.830      -22.292        0.460       11.163       12.722       11.930      124.603      161.853      142.326        0.088        0.021       36.443       10.477        0.083      333.038        2.091      871.998
12/16/2013  18:12:00       -0.651      -55.248       -6.239       23.970       25.372       13.835      574.574      643.753      191.407        0.225        0.070       55.252       10.998        0.040      333.144        2.265      871.988
12/16/2013  18:13:00       10.333      -44.601       -0.978       21.000       21.314       18.957      441.006      454.282      359.362        0.168        0.063       45.782       17.199        0.141      333.085        2.170      871.991
12/16/2013  18:14:00        5.882      -23.652       17.387       20.119       26.513       16.333      404.790      702.934      266.755        0.114        0.069       24.373       16.074        0.435      333.036        2.090      871.988
12/16/2013  18:15:00       12.231      -27.544       11.910       22.376       23.980       19.018      500.700      575.019      361.687        0.124        0.072       30.137       11.910        0.156      333.005        2.038      871.991
12/16/2013  18:16:00       -5.132      -24.204        6.792       17.271       23.569       11.183      298.274      555.517      125.052        0.082        0.049       24.743        7.030        0.081      332.995        2.021      872.001
12/16/2013  18:17:00        7.621      -63.052       -6.190       23.137       15.076       10.971      535.299      227.294      120.371        0.248        0.044       63.511        8.175        0.017      333.015        2.054      872.014
12/16/2013  18:18:00      -22.039      -35.484       15.513       23.720       18.857       18.225      562.638      355.573      332.135        0.162        0.063       41.772       10.846        0.067      332.977        1.988      872.014
12/16/2013  18:19:00       -7.802      -10.938        8.637        8.168       10.582        7.054       66.711      111.976       49.765        0.024        0.011       13.435        5.153        0.147      332.841        1.767      872.031
12/16/2013  18:20:00       -2.121        9.467       10.280       10.342        8.488        8.374      106.962       72.051       70.131        0.022        0.012        9.702        6.006        0.383      332.779        1.664      872.043
12/16/2013  18:21:00       24.569       15.705       15.438       27.466       18.818       14.041      754.387      354.126      197.159        0.120        0.065       29.160       11.147        0.146      332.746        1.610      872.059
12/16/2013  18:22:00       -9.198      -13.658       14.302       10.846       21.403       12.398      117.629      458.074      153.708        0.060        0.036       16.466        6.874        0.174      332.808        1.714      872.069
12/16/2013  18:23:00      -13.593      -24.129       14.813       16.701       27.635       13.009      278.921      763.719      169.233        0.110        0.061       27.694        6.930        0.063      332.703        1.538      872.086
12/16/2013  18:24:00       21.905      -48.325        6.957       20.273       25.947       14.710      410.991      673.231      216.387        0.208        0.065       53.058       14.366        0.073      332.811        1.719      872.088
12/16/2013  18:25:00       18.373      -56.306        5.140       22.316       21.155       16.951      498.012      447.536      287.326        0.238        0.062       59.228       15.162        0.066      332.816        1.726      872.107
12/16/2013  18:26:00       -1.754      -23.787       11.081       12.256       26.366       14.919      150.203      695.189      222.585        0.088        0.053       23.851       13.491        0.320      332.798        1.696      872.128
12/16/2013  18:27:00       -1.736      -20.790        5.981       11.741       20.236       10.760      137.841      409.478      115.770        0.057        0.033       20.862       11.918        0.326      332.744        1.607      872.133
12/16/2013  18:28:00       -1.877      -10.975       13.953       13.906       24.322       12.311      193.388      591.554      151.562        0.063        0.047       11.134       11.523        1.071      332.731        1.585      872.145
12/16/2013  18:29:00      -10.035       -6.543       11.058        9.766       12.550        5.934       95.367      157.497       35.216        0.028        0.014       11.980        4.698        0.154      332.610        1.384      872.150
12/16/2013  18:30:00       10.710       20.933       11.170       11.166        4.628       10.476      124.689       21.419      109.753        0.047        0.013       23.514        7.337        0.097      332.589        1.350      872.162
12/16/2013  18:31:00       28.351       20.990        3.661        8.074       11.264        9.129       65.196      126.882       83.342        0.077        0.014       35.276        2.511        0.005      332.591        1.354      872.167
12/16/2013  18:32:00       12.605       16.659       12.428       18.047       18.010       14.613      325.705      324.365      213.529        0.073        0.043       20.890       14.526        0.484      332.528        1.247      872.168
12/16/2013  18:33:00       10.380        0.454        9.724       20.341       13.161        9.749      413.766      173.205       95.039        0.044        0.034       10.390        7.253        0.487      332.575        1.327      872.173
12/16/2013  18:34:00       -9.918        4.054       10.989        8.431       12.200        6.532       71.075      148.830       42.665        0.025        0.013       10.714        3.751        0.123      332.569        1.316      872.169
12/16/2013  18:35:00       -4.373      -29.305        7.714        8.342       11.371       13.430       69.583      129.305      180.374        0.066        0.019       29.630        9.449        0.102      332.650        1.451      872.175
12/16/2013  18:36:00       -6.881      -14.693        9.257        7.515       14.867        9.467       56.469      221.025       89.624        0.036        0.018       16.225        5.795        0.128      332.534        1.258      872.178
12/16/2013  18:37:00       -5.688      -20.339        4.574       13.358       10.119       11.019      178.442      102.399      121.413        0.043        0.020       21.120        7.964        0.142      332.495        1.194      872.180
12/16/2013  18:38:00       -8.529      -15.039        6.299       14.430        9.917        9.481      208.236       98.339       89.891        0.037        0.020       17.289        9.753        0.318      332.470        1.153      872.191
12/16/2013  18:39:00      -30.718        1.732       -3.323        6.238        7.179        5.531       38.910       51.541       30.588        0.054        0.006       30.767        3.365        0.012      332.476        1.163      872.196
12/16/2013  18:40:00      -30.572      -13.827       -5.914        9.035        9.995        6.962       81.628       99.904       48.464        0.070        0.011       33.553        4.716        0.020      332.491        1.186      872.192
12/16/2013  18:41:00        2.331      -18.514        1.467       13.580        7.871       10.719      184.421       61.959      114.905        0.036        0.018       18.660        6.387        0.117      332.453        1.124      872.195
12/16/2013  18:42:00      -29.969      -23.229        0.711       17.176        9.051       10.216      295.031       81.922      104.372        0.096        0.024       37.918        7.667        0.041      332.385        1.012      872.197
12/16/2013  18:43:00      -47.184       -2.589       -3.885       15.651       10.200       10.263      244.950      104.044      105.322        0.135        0.023       47.255        7.730        0.027      332.249        0.789      872.189
12/16/2013  18:44:00      -48.472       -2.012       -4.891       10.597       11.435        7.423      112.305      130.760       55.104        0.134        0.015       48.514        5.564        0.013      332.204        0.717      872.191
12/16/2013  18:45:00      -63.997       -8.044       -6.314       17.608       14.303        8.067      310.025      204.587       65.076        0.239        0.029       64.501        7.422        0.013      332.176        0.669      872.186
12/16/2013  18:46:00      -47.421        2.659       -8.030       17.635       14.240       10.833      310.992      202.778      117.356        0.148        0.032       47.496       10.671        0.050      332.248        0.786      872.176
12/16/2013  18:47:00      -29.231        1.064       -1.531       13.023       12.930        8.767      169.604      167.187       76.852        0.064        0.021       29.250        6.687        0.052      332.275        0.832      872.179
12/16/2013  18:48:00      -42.134       -1.075       -2.732       23.986       11.970       11.641      575.331      143.275      135.512        0.132        0.043       42.148       14.303        0.115      332.235        0.766      872.176
12/16/2013  18:49:00      -25.471       -8.502       -0.723       17.764       22.237       13.653      315.574      494.464      186.403        0.086        0.050       26.853        9.125        0.115      332.134        0.600      872.168
12/16/2013  18:50:00      -52.500       -5.678       -4.440       23.917       19.346       14.463      572.046      374.277      209.187        0.198        0.058       52.807       12.290        0.054      332.049        0.459      872.163
12/16/2013  18:51:00      -96.104       -5.409       -8.632       41.242       23.315       15.553     1700.868      543.588      241.886        0.591        0.124       96.257       16.881        0.031      332.021        0.412      872.169
12/16/2013  18:52:00      -99.434      -22.753        1.730       37.268       31.898       19.120     1388.931     1017.507      365.571        0.659        0.139      102.004       19.069        0.035      332.044        0.450      872.175
12/16/2013  18:53:00     -104.607       -4.815       -4.782       47.816       28.774       23.085     2286.409      827.971      532.895        0.732        0.182      104.718       24.199        0.053      332.002        0.380      872.172
12/16/2013  18:54:00     -110.245       -9.181       -1.875       40.622       31.494       20.258     1650.167      991.854      410.376        0.765        0.153      110.627       19.389        0.031      331.961        0.314      872.174
12/16/2013  18:55:00     -111.054      -16.243       -3.539       45.662       25.881       20.911     2085.028      669.824      437.250        0.790        0.160      112.236       20.587        0.034      331.933        0.267      872.193
12/16/2013  18:56:00      -88.816      -22.751       -1.696       33.815       38.192       22.268     1143.427     1458.599      495.877        0.575        0.155       91.684       21.427        0.055      331.978        0.341      872.188
12/16/2013  18:57:00     -111.558      -30.686      -12.386       27.461       27.430       18.585      754.093      752.420      345.406        0.770        0.093      115.701       14.480        0.016      332.016        0.406      872.191
12/16/2013  18:58:00      -95.819      -13.790        2.547       48.115       32.620       25.786     2315.088     1064.094      664.915        0.671        0.202       96.806       26.703        0.076      331.955        0.303      872.202
12/16/2013  18:59:00      -81.964      -13.203       -0.145       45.716       34.205       20.938     2089.979     1169.963      438.392        0.529        0.185       83.021       19.462        0.055      331.948        0.292      872.211
12/16/2013  19:00:00     -109.106      -25.338       -2.898       35.409       25.871       20.355     1253.810      669.327      414.315        0.745        0.117      112.010       16.788        0.022      331.922        0.249      872.216
12/16/2013  19:01:00     -139.657      -27.592      -16.066       24.180       33.461       20.532      584.685     1119.619      421.571        1.132        0.106      142.357       16.984        0.014      331.927        0.256      872.235
12/16/2013  19:02:00     -121.348      -27.455      -10.370       35.191       25.408       22.672     1238.430      645.572      514.013        0.899        0.120      124.415       20.762        0.028      331.930        0.262      872.240
12/16/2013  19:03:00     -150.515       -4.386      -21.876       26.436       26.598       20.980      698.839      707.439      440.177        1.250        0.092      150.579       12.721        0.007      331.899        0.211      872.245
12/16/2013  19:04:00     -141.623      -12.599      -15.932       37.671       31.611       19.382     1419.067      999.259      375.649        1.163        0.140      142.183       18.404        0.017      331.870        0.164      872.255
12/16/2013  19:05:00     -150.063        4.855      -19.345       40.368       30.119       26.608     1629.585      907.152      707.990        1.308        0.162      150.141       25.857        0.030      331.873        0.169      872.262
12/16/2013  19:06:00     -138.250       -3.125      -11.196       56.110       29.898       28.334     3148.281      893.894      802.835        1.205        0.242      138.285       30.747        0.049      331.870        0.165      872.260
12/16/2013  19:07:00     -136.235      -13.871       -9.535       46.053       42.015       23.119     2120.895     1765.225      534.510        1.163        0.221      136.939       20.887        0.023      331.877        0.176      872.268
12/16/2013  19:08:00     -164.459       -3.995      -19.640       38.229       37.082       26.930     1461.494     1375.104      725.217        1.550        0.178      164.507       20.678        0.016      331.929        0.261      872.276
12/16/2013  19:09:00     -115.923      -33.344       -7.323       27.901       26.580       19.048      778.455      706.482      362.844        0.823        0.092      120.624       15.154        0.016      331.861        0.149      872.283
12/16/2013  19:10:00      -84.171       -7.595        2.059       53.784       35.917       27.842     2892.758     1290.019      775.157        0.605        0.248       84.513       25.424        0.090      331.848        0.127      872.289
12/16/2013  19:11:00     -112.194        7.240       -5.439       46.856       42.136       25.856     2195.458     1775.476      668.541        0.865        0.232      112.427       24.255        0.047      331.899        0.211      872.287
12/16/2013  19:12:00     -131.334       29.528       -8.077       56.859       39.411       27.131     3232.916     1553.201      736.098        1.185        0.276      134.613       27.977        0.043      331.861        0.150      872.287
12/16/2013  19:13:00     -136.366       12.381       -9.414       32.738       34.279       23.050     1071.787     1175.063      531.302        1.081        0.139      136.927       18.886        0.019      331.905        0.221      872.297
12/16/2013  19:14:00     -104.154       26.070       -6.800       55.735       40.954       26.484     3106.359     1677.190      701.377        0.853        0.274      107.367       14.751        0.019      331.929        0.261      872.298
12/16/2013  19:15:00     -165.540       42.583       -9.077       60.181       35.950       31.147     3621.704     1292.405      970.114        1.759        0.294      170.929       31.588        0.034      331.853        0.136      872.300
12/16/2013  19:16:00     -140.908       15.633      -15.223       65.483       43.740       26.878     4288.033     1913.169      722.422        1.363        0.346      141.773       26.359        0.035      331.816        0.074      872.316
12/16/2013  19:17:00     -148.860       20.666      -12.843       38.373       32.542       22.678     1472.471     1058.981      514.296        1.290        0.152      150.287       16.035        0.011      331.820        0.082      872.326
12/16/2013  19:18:00     -116.577        1.047       -7.749       45.245       41.765       25.932     2047.075     1744.296      672.466        0.906        0.223      116.582       14.307        0.015      331.819        0.080      872.340
12/16/2013  19:19:00     -130.684       17.915      -13.330       35.071       37.188       19.687     1229.941     1382.975      387.587        1.029        0.150      131.906       17.376        0.017      331.792        0.036      872.357
12/16/2013  19:20:00     -135.029      -18.725      -16.838       30.698       30.325       21.346      942.377      919.597      455.633        1.059        0.116      136.321       16.091        0.014      331.818        0.079      872.371
12/16/2013  19:21:00     -128.410      -19.862      -22.474       25.763       18.031       15.273      663.709      325.127      233.272        0.931        0.061      129.937        6.441        0.002      331.879        0.178      872.390
12/16/2013  19:22:00     -104.970      -66.408      -11.476       26.970       25.184       22.835      727.401      634.243      521.449        0.872        0.094      124.213       16.716        0.018      331.933        0.267      872.402
12/16/2013  19:23:00      -87.517      -61.624       -4.174       38.355       24.304       25.255     1471.134      590.700      637.798        0.709        0.135      107.036       22.877        0.046      331.927        0.258      872.406
12/16/2013  19:24:00     -101.238      -42.372       -6.793       21.793       23.319       16.212      474.933      543.763      262.816        0.669        0.064      109.747       10.684        0.009      331.987        0.358      872.423
12/16/2013  19:25:00     -109.281      -36.118       -9.862       19.620       26.747       18.809      384.927      715.377      353.796        0.740        0.073      115.095       11.923        0.011      331.971        0.329      872.428
12/16/2013  19:26:00      -96.770      -17.512      -10.260       27.616       33.767       16.908      762.654     1140.177      285.882        0.598        0.109       98.342       11.339        0.013      331.967        0.323      872.429
12/16/2013  19:27:00     -115.244       12.951       -4.323       39.094       28.858       22.723     1528.344      832.806      516.323        0.817        0.144      115.969       19.363        0.028      331.878        0.179      872.443
12/16/2013  19:28:00     -150.729       24.638      -13.404       41.964       35.499       22.994     1761.015     1260.154      528.731        1.353        0.177      152.730       20.609        0.018      331.871        0.166      872.448
12/16/2013  19:29:00     -157.325       21.456      -10.144       16.270       19.003       11.693      264.720      361.111      136.721        1.304        0.038      158.782        8.761        0.003      331.890        0.196      872.455
12/16/2013  19:30:00     -109.625        2.768       -7.242       40.474       34.173       20.721     1638.164     1167.815      429.378        0.766        0.162      109.660       18.255        0.028      331.821        0.084      872.457
12/16/2013  19:31:00     -141.190       22.061      -18.988       35.763       22.807       15.309     1279.009      520.147      234.381        1.141        0.102      142.903       10.116        0.005      331.767       -0.004      872.460
12/16/2013  19:32:00     -115.713      -12.943       -9.655       43.013       28.798       18.101     1850.155      829.341      327.650        0.833        0.150      116.434       17.050        0.021      331.748       -0.036      872.463
12/16/2013  19:33:00      -63.245      -22.637       -5.324       40.752       25.781       14.721     1660.760      664.661      216.716        0.354        0.127       67.174       16.553        0.061      331.712       -0.095      872.488
12/16/2013  19:34:00      -93.778      -16.960       -9.081       26.168       22.128       15.691      684.740      489.645      246.207        0.529        0.071       95.299       13.067        0.019      331.743       -0.044      872.496
12/16/2013  19:35:00     -116.261      -26.687      -15.293       14.586       19.074       13.819      212.737      363.830      190.957        0.761        0.038      119.285       11.672        0.010      331.717       -0.086      872.504
12/16/2013  19:36:00      -82.025      -21.269       -2.144       31.520       24.870       16.534      993.502      618.517      273.371        0.453        0.094       84.738       16.822        0.039      331.774        0.006      872.513
12/16/2013  19:37:00     -128.988      -12.081      -10.118       26.103       22.816       17.790      681.365      520.562      316.477        0.920        0.076      129.553       12.708        0.010      331.694       -0.125      872.521
12/16/2013  19:38:00     -115.241      -14.155       -8.328       26.706       25.150       18.040      713.225      632.518      325.451        0.761        0.084      116.107       15.830        0.019      331.727       -0.070      872.519
12/16/2013  19:39:00     -101.633        1.869      -14.810       31.910       16.126       20.423     1018.231      260.058      417.113        0.612        0.085      101.651       20.698        0.041      331.719       -0.083      872.526
12/16/2013  19:40:00     -110.864       -0.634      -12.418       27.817       18.968       21.169      773.799      359.787      448.137        0.701        0.079      110.866       16.539        0.022      331.683       -0.142      872.525
12/16/2013  19:41:00      -93.899       -1.106      -12.540       25.555       21.418       17.874      653.054      458.728      319.469        0.520        0.072       93.905       13.349        0.020      331.706       -0.106      872.517
12/16/2013  19:42:00     -106.261       -0.748      -13.818       22.739       17.773       15.275      517.077      315.870      233.313        0.627        0.053      106.264       11.742        0.012      331.672       -0.163      872.515
12/16/2013  19:43:00      -83.650       -4.238      -16.673       21.796       23.818       16.566      475.084      567.290      274.416        0.430        0.066       83.757       10.783        0.017      331.744       -0.041      872.518
12/16/2013  19:44:00      -98.962       -7.232       -6.423       21.529       23.873       19.961      463.505      569.943      398.461        0.566        0.072       99.226       14.872        0.022      331.758       -0.019      872.518
12/16/2013  19:45:00     -118.891       -3.785      -14.290       27.036       17.670       18.330      730.970      312.217      335.987        0.787        0.069      118.952       17.399        0.021      331.721       -0.082      872.518
12/16/2013  19:46:00     -127.660      -16.045      -12.799       18.150       15.901       12.302      329.412      252.838      151.349        0.873        0.037      128.664        8.931        0.005      331.774        0.007      872.528
12/16/2013  19:47:00     -114.301      -23.215       -8.854       28.410       24.527       17.962      807.133      601.571      322.623        0.771        0.087      116.634       16.392        0.020      331.813        0.069      872.549
12/16/2013  19:48:00     -127.014      -17.295      -10.635       27.912       16.822       16.843      779.084      282.982      283.689        0.894        0.067      128.186       15.615        0.015      331.819        0.080      872.552
12/16/2013  19:49:00     -128.886      -26.367      -12.625       28.803       19.439       13.876      829.638      377.861      192.532        0.943        0.070      131.556        9.204        0.005      331.861        0.148      872.562
12/16/2013  19:50:00      -97.797      -24.234       -3.074       30.171       21.978       17.774      910.260      483.046      315.902        0.593        0.085      100.755       14.991        0.022      331.859        0.146      872.572
12/16/2013  19:51:00      -90.786      -17.006        1.170       33.331       25.721       18.112     1110.933      661.575      328.038        0.532        0.105       92.365       18.434        0.040      331.777        0.010      872.594
12/16/2013  19:52:00     -125.639       -7.613      -12.063       28.903       18.823       15.612      835.368      354.319      243.747        0.871        0.072      125.869       12.889        0.010      331.769       -0.002      872.596
12/16/2013  19:53:00      -99.443       -1.639      -13.463       35.338       20.981       18.775     1248.776      440.221      352.492        0.606        0.102       99.457       16.890        0.029      331.731       -0.063      872.591
12/16/2013  19:54:00     -150.412       -4.784      -12.680       29.280       20.298       21.340      857.337      411.989      455.380        1.227        0.086      150.489       16.540        0.012      331.661       -0.178      872.577
12/16/2013  19:55:00     -128.331      -19.984      -11.670       30.564       22.503       19.299      934.169      506.377      372.467        0.941        0.091      129.877       19.049        0.022      331.651       -0.196      872.577
12/16/2013  19:56:00     -118.579      -35.711       -8.765       21.310       24.152       15.278      454.133      583.317      233.429        0.834        0.064      123.840        8.497        0.005      331.588       -0.300      872.578
12/16/2013  19:57:00     -121.972      -29.602       -8.209       32.874       30.062       19.881     1080.695      903.717      395.259        0.910        0.119      125.513       15.175        0.015      331.592       -0.292      872.570
12/16/2013  19:58:00     -103.720      -34.319       -7.457       34.271       27.675       22.726     1174.486      765.910      516.471        0.722        0.123      109.250       20.271        0.034      331.593       -0.293      872.566
12/16/2013  19:59:00     -128.042      -12.186      -11.586       27.568       22.674       17.904      759.977      514.113      320.556        0.914        0.080      128.621       11.550        0.008      331.578       -0.316      872.572
12/16/2013  20:00:00     -100.415      -31.802      -11.586       31.212       22.845       15.686      974.174      521.889      246.037        0.649        0.087      105.330        2.594        0.001      331.554       -0.356      872.581
12/16/2013  20:01:00     -120.510      -39.743      -14.041       22.164       31.325       16.627      491.246      981.245      276.470        0.902        0.087      126.894        8.706        0.005      331.541       -0.379      872.587
12/16/2013  20:02:00     -104.648       -1.427      -17.823       21.882       16.667       13.897      478.809      277.777      193.118        0.611        0.047      104.658        6.725        0.004      331.546       -0.370      872.596
12/16/2013  20:03:00      -89.849      -12.058       -4.262       35.783       19.257       15.142     1280.391      370.814      229.281        0.506        0.094       90.654       18.449        0.041      331.540       -0.381      872.605
12/16/2013  20:04:00     -125.352      -23.493      -12.698       28.667       30.133       18.231      821.770      908.018      332.360        0.924        0.103      127.535       15.001        0.014      331.429       -0.560      872.617
12/16/2013  20:05:00      -94.293      -13.127       -9.533       30.950       16.551       18.260      957.881      273.925      333.436        0.536        0.078       95.203       15.459        0.026      331.471       -0.494      872.620
12/16/2013  20:06:00      -84.418      -18.652      -16.625       22.414       29.667       13.536      502.369      880.158      183.225        0.466        0.078       86.454        7.797        0.008      331.516       -0.420      872.614
12/16/2013  20:07:00      -78.470      -11.759      -13.256       20.413       22.661       13.484      416.674      513.521      181.822        0.379        0.056       79.346        6.990        0.008      331.549       -0.365      872.604
12/16/2013  20:08:00     -101.211        8.633      -14.215       31.051       26.058       16.721      964.161      679.025      279.598        0.622        0.096      101.579        9.976        0.010      331.451       -0.526      872.607
12/16/2013  20:09:00      -63.765      -20.011        0.303       38.824       29.734       20.940     1507.324      884.134      438.499        0.365        0.141       66.831       20.541        0.094      331.553       -0.359      872.613
12/16/2013  20:10:00      -67.703      -19.169       -4.886       26.420       23.725       19.854      698.035      562.859      394.179        0.331        0.083       70.364       11.120        0.025      331.518       -0.416      872.617
12/16/2013  20:11:00     -107.754      -23.649      -17.078       15.517       22.593       17.595      240.771      510.424      309.596        0.676        0.053      110.318        8.392        0.006      331.560       -0.347      872.611
12/16/2013  20:12:00      -95.565       -2.553      -10.185       24.389       25.349       14.742      594.805      642.587      217.338        0.535        0.073       95.600        8.737        0.008      331.478       -0.483      872.608
12/16/2013  20:13:00     -105.241        4.545      -13.681       18.082       24.058       15.510      326.948      578.792      240.570        0.621        0.057      105.339        9.979        0.009      331.464       -0.507      872.604
12/16/2013  20:14:00     -123.082       -8.088      -13.339       24.895       17.140       16.403      619.763      293.795      269.063        0.829        0.059      123.347        9.235        0.006      331.430       -0.561      872.605
12/16/2013  20:15:00     -152.390       -4.145      -16.572       18.818       19.201       14.570      354.131      368.669      212.299        1.222        0.047      152.447       11.459        0.006      331.402       -0.604      872.611
12/16/2013  20:16:00     -123.740      -10.879       -9.082       22.282       25.410       16.503      496.496      645.652      272.352        0.846        0.071      124.217       14.202        0.013      331.440       -0.545      872.609
12/16/2013  20:17:00      -70.517       -7.226       -6.664       35.055       30.929       18.281     1228.884      956.602      334.207        0.379        0.126       70.886       14.688        0.043      331.411       -0.591      872.610
12/16/2013  20:18:00      -75.477       -7.307      -11.545       21.268       22.477       13.568      452.328      505.233      184.095        0.351        0.057       75.830       10.755        0.020      331.433       -0.555      872.605
12/16/2013  20:19:00      -81.106       -8.049      -12.880       16.433       16.131       13.819      270.034      260.213      190.954        0.376        0.036       81.504        8.227        0.010      331.425       -0.568      872.621
12/16/2013  20:20:00      -84.751      -21.670      -17.868       20.166       10.954        9.549      406.655      119.983       91.187        0.429        0.031       87.478        5.191        0.004      331.441       -0.542      872.627
12/16/2013  20:21:00     -119.412       -9.440      -15.279       19.526       15.577       13.161      381.254      242.636      173.221        0.769        0.040      119.785        5.155        0.002      331.394       -0.617      872.624
12/16/2013  20:22:00     -127.573       -1.167      -21.355       26.511       19.494       11.984      702.844      380.005      143.615        0.898        0.061      127.579       12.295        0.009      331.397       -0.613      872.612
12/16/2013  20:23:00     -130.661       -3.114      -16.871       15.428       15.017       13.409      238.008      225.500      179.809        0.900        0.032      130.698        8.405        0.004      331.334       -0.718      872.605
12/16/2013  20:24:00     -114.025      -19.931      -15.465       22.997       22.108       17.724      528.851      488.776      314.135        0.748        0.067      115.754       10.390        0.008      331.356       -0.682      872.613
12/16/2013  20:25:00      -95.278      -17.524      -12.026       17.330       22.570       15.629      300.315      509.413      244.269        0.529        0.053       96.877        9.623        0.010      331.413       -0.587      872.611
12/16/2013  20:26:00      -81.806      -35.801      -10.300       20.450       31.443       17.732      418.185      988.639      314.418        0.490        0.086       89.297       12.087        0.018      331.393       -0.622      872.590
12/16/2013  20:27:00      -77.088      -15.585       -9.196       21.561       17.255       15.188      464.865      297.746      230.669        0.363        0.050       78.648        8.392        0.011      331.352       -0.688      872.580
12/16/2013  20:28:00      -81.239      -17.811      -10.202       19.868       20.163       18.012      394.730      406.562      324.430        0.407        0.056       83.169       13.025        0.025      331.327       -0.728      872.577
12/16/2013  20:29:00     -111.985      -12.996      -15.383       28.998       17.744       12.895      840.869      314.865      166.278        0.713        0.066      112.737        5.381        0.002      331.297       -0.778      872.585
12/16/2013  20:30:00      -90.180      -20.110       -9.893       17.654       22.615       12.101      311.656      511.439      146.435        0.480        0.048       92.395        5.882        0.004      331.303       -0.768      872.580
12/16/2013  20:31:00      -65.586      -18.056       -6.491       23.214       16.597       15.313      538.883      275.452      234.475        0.286        0.052       68.026       13.228        0.038      331.312       -0.753      872.575
12/16/2013  20:32:00      -68.627      -21.689       -6.936       14.365       14.475       13.041      206.357      209.520      170.073        0.291        0.029       71.973        7.626        0.011      331.304       -0.766      872.588
12/16/2013  20:33:00      -58.910      -19.263      -12.323       13.520       16.508       11.051      182.781      272.519      122.124        0.229        0.029       61.980        3.422        0.003      331.343       -0.702      872.595
12/16/2013  20:34:00      -65.261      -19.772      -10.045       16.015       19.396       11.544      256.473      376.187      133.260        0.276        0.038       68.190        7.264        0.011      331.376       -0.649      872.594
12/16/2013  20:35:00      -60.730      -24.005      -14.616       13.411       16.200       12.329      179.856      262.449      152.007        0.254        0.030       65.302       10.941        0.028      331.329       -0.725      872.586
12/16/2013  20:36:00      -76.620       -4.669      -12.061       17.680       14.620       13.893      312.600      213.759      193.006        0.338        0.036       76.762        9.984        0.017      331.235       -0.878      872.583
12/16/2013  20:37:00      -86.572       -5.487      -12.358       14.887       14.786       12.173      221.617      218.627      148.175        0.413        0.029       86.746        7.050        0.007      331.239       -0.874      872.581
12/16/2013  20:38:00      -76.301       -6.812       -9.564       26.262       17.092       16.240      689.701      292.125      263.751        0.360        0.062       76.605       16.190        0.045      331.245       -0.864      872.591
12/16/2013  20:39:00      -97.917       -9.821      -14.425       19.223       18.165       14.435      369.535      329.964      208.377        0.540        0.045       98.408        8.591        0.008      331.280       -0.806      872.595
12/16/2013  20:40:00      -85.662      -10.872      -11.543       17.149       19.526       13.683      294.072      381.273      187.235        0.423        0.043       86.349        6.467        0.006      331.258       -0.842      872.591
12/16/2013  20:41:00      -93.171        0.737      -13.661       12.885       13.551       15.978      166.015      183.625      255.283        0.474        0.030       93.174       10.651        0.013      331.218       -0.908      872.575
12/16/2013  20:42:00      -84.622      -13.067      -13.283       15.826       18.976       11.338      250.451      360.101      128.558        0.412        0.037       85.625        5.572        0.004      331.194       -0.946      872.575
12/16/2013  20:43:00      -91.069       -1.654       -9.572       29.502       15.159       13.320      870.347      229.781      177.423        0.483        0.064       91.084       11.005        0.015      331.178       -0.974      872.588
12/16/2013  20:44:00     -105.363      -15.769      -13.107       22.874       23.692       13.810      523.198      561.296      190.715        0.640        0.064      106.537        8.707        0.007      331.191       -0.951      872.586
12/16/2013  20:45:00      -88.168       -5.350       -9.643       20.748       17.224       15.515      430.477      296.649      240.720        0.443        0.048       88.330       10.099        0.013      331.220       -0.905      872.590
12/16/2013  20:46:00      -62.170      -26.289       -8.930       15.971       18.643       10.534      255.065      347.578      110.955        0.267        0.036       67.500        8.072        0.014      331.223       -0.901      872.604
12/16/2013  20:47:00      -86.436       -3.180       -8.090       17.032       12.946       12.778      290.090      167.597      163.276        0.408        0.031       86.495        8.567        0.010      331.199       -0.938      872.623
12/16/2013  20:48:00      -93.885        0.978      -10.155       16.305       14.416       15.624      265.840      207.827      244.121        0.482        0.036       93.890        8.207        0.008      331.218       -0.908      872.629
12/16/2013  20:49:00      -61.865      -11.515      -15.076       12.585       11.622       13.901      158.373      135.069      193.243        0.234        0.024       62.928        4.419        0.005      331.266       -0.829      872.639
12/16/2013  20:50:00      -68.560      -10.727      -11.204       13.290       16.541        8.809      176.626      273.619       77.593        0.273        0.026       69.394        4.560        0.004      331.244       -0.864      872.654
12/16/2013  20:51:00      -55.070       -5.447       -9.854       11.897       15.844       13.774      141.538      251.026      189.717        0.187        0.029       55.339        7.491        0.018      331.289       -0.790      872.655
12/16/2013  20:52:00      -67.333       -4.954       -8.155       16.097        8.301        8.517      259.111       68.912       72.534        0.251        0.020       67.515        3.911        0.003      331.226       -0.895      872.673
12/16/2013  20:53:00      -54.014       -8.228       -7.044       11.674        9.060        7.568      136.279       82.076       57.272        0.166        0.014       54.637        5.412        0.010      331.254       -0.849      872.674
12/16/2013  20:54:00      -47.822       -7.911      -14.525        8.770        7.577        6.092       76.921       57.408       37.118        0.137        0.009       48.472        4.238        0.008      331.290       -0.791      872.669
12/16/2013  20:55:00      -42.147      -12.094      -13.921        9.998       12.700        6.392       99.970      161.285       40.859        0.121        0.015       43.848        4.264        0.009      331.367       -0.662      872.663
12/16/2013  20:56:00      -44.333      -19.346      -11.108        6.985        7.324        5.944       48.792       53.647       35.328        0.130        0.007       48.370        1.986        0.002      331.347       -0.698      872.652
12/16/2013  20:57:00      -54.763      -10.950       -9.744        7.807        7.774        8.892       60.946       60.431       79.068        0.171        0.010       55.847        3.018        0.003      331.320       -0.740      872.664
12/16/2013  20:58:00      -47.720      -18.768      -11.872        9.828        8.781        6.644       96.592       77.104       44.144        0.149        0.011       51.278        1.735        0.001      331.307       -0.762      872.673
12/16/2013  20:59:00      -48.442      -17.940       -5.342        9.479       11.553        6.763       89.852      133.476       45.736        0.148        0.013       51.658        3.071        0.004      331.276       -0.812      872.670
12/16/2013  21:00:00      -50.562       -6.962       -5.433        9.709        8.943        8.593       94.269       79.975       73.841        0.144        0.012       51.039        7.141        0.020      331.255       -0.844      872.677
12/16/2013  21:01:00      -44.494      -13.663       -7.151        7.746        8.385        6.609       60.008       70.311       43.680        0.120        0.009       46.544        3.429        0.005      331.271       -0.818      872.686
12/16/2013  21:02:00      -44.822      -12.866       -7.773        6.074        7.954        5.702       36.890       63.271       32.518        0.118        0.007       46.632        1.388        0.001      331.231       -0.886      872.700
12/16/2013  21:03:00      -30.902      -13.926       -6.216        9.373        7.702        5.514       87.852       59.319       30.405        0.068        0.009       33.895        2.730        0.006      331.350       -0.693      872.712
12/16/2013  21:04:00      -18.450       -9.721       -3.869       11.776        7.449        6.350      138.676       55.490       40.325        0.034        0.012       20.854        3.506        0.028      331.350       -0.691      872.723
12/16/2013  21:05:00      -20.341      -15.348       -2.119       12.550        8.567        6.888      157.499       73.387       47.441        0.047        0.014       25.482        6.058        0.057      331.280       -0.803      872.721
12/16/2013  21:06:00      -11.362       -7.689        2.247        6.623        6.629        7.352       43.869       43.941       54.046        0.017        0.007       13.720        4.645        0.115      331.269       -0.824      872.711
12/16/2013  21:07:00      -30.420       -7.577      -10.667        8.039        6.396        6.143       64.623       40.904       37.741        0.062        0.007       31.350        3.531        0.013      331.284       -0.799      872.709
12/16/2013  21:08:00      -32.224       -2.866       -4.304       10.733       12.145        6.704      115.189      147.494       44.944        0.069        0.015       32.351        1.944        0.004      331.168       -0.990      872.703
12/16/2013  21:09:00      -47.984       -4.439       -8.339       14.461        9.160        8.194      209.116       83.912       67.148        0.138        0.018       48.189        4.595        0.009      331.118       -1.072      872.691
12/16/2013  21:10:00      -39.573       -5.455       -9.744       10.463        7.050        7.462      109.472       49.698       55.679        0.095        0.011       39.947        5.982        0.022      331.199       -0.941      872.688
12/16/2013  21:11:00      -29.768       -7.050       -7.376        9.993        6.729        7.641       99.866       45.283       58.386        0.060        0.010       30.591        6.132        0.040      331.164       -0.998      872.693
12/16/2013  21:12:00      -26.339       -3.671      -10.465       11.011        5.603        6.953      121.238       31.391       48.339        0.051        0.010       26.593        6.466        0.059      331.262       -0.836      872.692
12/16/2013  21:13:00       -0.031       -7.494        0.831        7.804        9.305        6.926       60.909       86.590       47.970        0.013        0.010        7.494        6.919        0.853      331.409       -0.594      872.691
12/16/2013  21:14:00      -41.915      -15.834       -4.942       17.413        9.367        7.217      303.230       87.743       52.079        0.124        0.022       44.806        7.146        0.025      331.208       -0.925      872.699
12/16/2013  21:15:00      -72.972       -3.267       -7.056       17.865        9.299       10.272      319.169       86.470      105.522        0.295        0.026       73.045        9.106        0.016      331.012       -1.247      872.711
12/16/2013  21:16:00      -65.063      -15.694       -8.047       14.539       13.819       10.455      211.389      190.973      109.315        0.253        0.026       66.929        7.241        0.012      331.023       -1.229      872.721
12/16/2013  21:17:00      -93.655       -5.038       -9.977       18.020       12.569        9.380      324.721      157.992       87.988        0.473        0.029       93.791        5.316        0.003      330.985       -1.293      872.731
12/16/2013  21:18:00      -88.320       -7.837       -9.060       18.142       18.412       10.102      329.136      339.013      102.057        0.436        0.039       88.668        6.171        0.005      331.002       -1.263      872.738
12/16/2013  21:19:00      -94.890       -5.105      -10.537       20.494       14.875       12.994      420.004      221.279      168.840        0.498        0.041       95.028       11.612        0.015      331.003       -1.263      872.742
12/16/2013  21:20:00      -85.024      -10.537       -8.995       28.439       16.139       15.157      808.780      260.478      229.738        0.436        0.065       85.674       15.040        0.031      331.034       -1.212      872.748
12/16/2013  21:21:00      -97.008      -10.154      -14.762       18.890       15.821       15.191      356.843      250.298      230.769        0.528        0.042       97.538       10.491        0.012      330.991       -1.283      872.749
12/16/2013  21:22:00      -89.509      -12.706       -9.842       22.674       15.625       12.089      514.110      244.143      146.155        0.459        0.045       90.407       10.244        0.013      330.977       -1.305      872.757
12/16/2013  21:23:00      -85.341       -6.442      -10.059       16.386       16.011       13.352      268.510      256.350      178.278        0.406        0.035       85.584       10.279        0.014      330.980       -1.301      872.749
12/16/2013  21:24:00      -90.955       -5.860       -8.777       33.187       19.641       16.077     1101.362      385.759      258.455        0.506        0.087       91.143       15.511        0.029      330.992       -1.280      872.746
12/16/2013  21:25:00      -83.369       -6.560      -14.323       20.040       20.308       14.306      401.605      412.408      204.656        0.411        0.051       83.627        7.964        0.009      330.976       -1.307      872.734
12/16/2013  21:26:00      -87.743      -10.031      -10.500       28.212       21.735       17.943      795.937      472.426      321.937        0.475        0.080       88.315       12.756        0.021      330.974       -1.311      872.723
12/16/2013  21:27:00      -73.987      -13.375       -7.963       26.291       26.822       16.129      691.209      719.409      260.133        0.369        0.084       75.186       16.067        0.046      330.926       -1.388      872.727
12/16/2013  21:28:00      -89.112       -9.448      -14.535       16.350       16.065        9.824      267.318      258.070       96.510        0.443        0.031       89.612        4.861        0.003      330.965       -1.324      872.740
12/16/2013  21:29:00      -84.078      -12.677      -16.444       10.839       10.298       10.729      117.489      106.043      115.114        0.392        0.017       85.029        4.228        0.002      330.976       -1.307      872.757
12/16/2013  21:30:00      -74.896      -27.686       -6.140       16.795       18.702       15.446      282.079      349.760      238.586        0.364        0.044       79.849       10.129        0.016      330.959       -1.335      872.782
12/16/2013  21:31:00     -102.907      -22.441       -9.561       17.560       20.882       14.367      308.351      436.059      206.396        0.607        0.048      105.325        9.251        0.008      330.958       -1.336      872.800
12/16/2013  21:32:00      -69.282      -30.402       -7.790       16.598       20.661       12.410      275.479      426.879      154.001        0.332        0.043       75.659        8.301        0.012      330.996       -1.273      872.809
12/16/2013  21:33:00      -70.435      -29.735      -11.673       19.908       18.440       14.296      396.348      340.018      204.364        0.346        0.047       76.454        8.034        0.011      331.037       -1.208      872.810
12/16/2013  21:34:00      -76.818       -8.213      -11.221       16.677       19.925       15.522      278.111      397.002      240.927        0.351        0.046       77.256        9.009        0.014      331.000       -1.266      872.815
12/16/2013  21:35:00     -122.787      -13.848      -15.471       25.187       20.715       17.373      634.364      429.119      301.823        0.844        0.068      123.566       14.327        0.013      331.002       -1.263      872.817
12/16/2013  21:36:00      -87.910      -22.136      -18.523       16.191       16.852       10.456      262.157      284.001      109.319        0.461        0.033       90.654        3.840        0.002      331.019       -1.236      872.810
12/16/2013  21:37:00     -122.104      -10.334      -12.136       17.781       16.296       14.346      316.172      265.546      205.800        0.798        0.039      122.541       10.249        0.007      330.967       -1.320      872.793
12/16/2013  21:38:00      -82.214      -29.103      -10.280       20.702       18.956       10.273      428.568      359.338      105.529        0.430        0.045       87.213       10.333        0.014      331.012       -1.248      872.781
12/16/2013  21:39:00      -72.755       -8.693       -9.891       23.313       17.392       15.955      543.475      302.488      254.548        0.328        0.055       73.272       13.444        0.034      330.960       -1.331      872.771
12/16/2013  21:40:00      -93.156      -11.876      -13.347       16.174       16.755       12.158      261.594      280.736      147.817        0.484        0.035       93.910        8.414        0.008      330.917       -1.404      872.760
12/16/2013  21:41:00      -98.471       -6.056      -12.147       25.029       16.963       16.453      626.462      287.730      270.703        0.553        0.059       98.657       14.175        0.021      330.898       -1.433      872.747
12/16/2013  21:42:00     -109.896       -7.845      -12.681       21.585       12.916       13.858      465.919      166.830      192.050        0.656        0.041      110.176       10.439        0.009      330.934       -1.375      872.739
12/16/2013  21:43:00     -113.735      -17.264      -12.474       19.114       18.541       14.504      365.347      343.754      210.375        0.715        0.046      115.038       13.499        0.014      330.883       -1.458      872.723
12/16/2013  21:44:00     -132.416       -5.530      -14.911       19.122       17.868       14.460      365.641      319.252      209.099        0.934        0.045      132.531        8.207        0.004      330.867       -1.483      872.714
12/16/2013  21:45:00     -131.385      -11.055      -12.176       24.359       18.350       16.650      593.382      336.734      277.235        0.937        0.060      131.849       11.349        0.007      330.854       -1.505      872.710
12/16/2013  21:46:00     -115.046      -10.065      -10.778       24.088       21.206       15.775      580.246      449.695      248.842        0.737        0.064      115.486       12.678        0.012      330.851       -1.511      872.713
12/16/2013  21:47:00     -136.733       -4.394      -13.115       18.919       18.766       15.836      357.933      352.159      250.789        0.992        0.048      136.804        8.919        0.004      330.831       -1.545      872.711
12/16/2013  21:48:00     -128.612        0.405      -18.368       20.203       17.210       13.977      408.151      296.200      195.355        0.889        0.045      128.613        8.148        0.004      330.839       -1.532      872.713
12/16/2013  21:49:00     -120.975       -2.960      -14.620       26.971       24.630       17.986      727.432      606.615      323.479        0.826        0.083      121.011       16.343        0.018      330.845       -1.522      872.690
12/16/2013  21:50:00     -120.056        5.361      -16.085       27.396       16.575       18.055      750.531      274.734      325.993        0.803        0.068      120.176       12.425        0.011      330.891       -1.446      872.670
12/16/2013  21:51:00     -108.158       -6.326      -14.645       26.617       14.545       15.227      708.474      211.548      231.876        0.655        0.058      108.342       10.260        0.009      330.869       -1.482      872.660
12/16/2013  21:52:00     -111.620       -7.077      -19.222       21.267       17.092       15.769      452.273      292.145      248.651        0.694        0.050      111.845       10.996        0.010      330.835       -1.537      872.659
12/16/2013  21:53:00     -107.164      -17.225      -15.807       34.636       20.736       13.758     1199.670      429.992      189.279        0.692        0.091      108.540       14.071        0.017      330.812       -1.576      872.655
12/16/2013  21:54:00     -134.333       -4.125      -21.350       21.327       18.413       17.671      454.823      339.051      312.252        0.981        0.055      134.397        7.505        0.003      330.797       -1.601      872.645
12/16/2013  21:55:00     -121.255      -17.131      -13.472       25.102       23.723       14.485      630.106      562.800      209.828        0.829        0.070      122.459        5.054        0.002      330.782       -1.626      872.654
12/16/2013  21:56:00     -105.972       -6.289      -18.190       31.308       16.481       18.226      980.212      271.626      332.172        0.659        0.079      106.158        8.531        0.006      330.804       -1.589      872.671
12/16/2013  21:57:00      -51.378      -30.827      -10.787       27.060       25.286       15.251      732.237      639.376      232.606        0.265        0.080       59.917        8.222        0.019      330.859       -1.497      872.680
12/16/2013  21:58:00      -38.282      -35.677       -6.367       31.824       19.912       17.368     1012.773      396.489      301.653        0.224        0.086       52.329       15.362        0.086      330.912       -1.410      872.684
12/16/2013  21:59:00      -60.977      -33.802       -9.365       14.552       16.471       10.913      211.751      271.303      119.092        0.278        0.030       69.719        6.931        0.010      330.950       -1.350      872.692
12/16/2013  22:00:00      -76.663      -42.112      -12.616       18.280       12.643       10.123      334.176      159.854      102.483        0.420        0.030       87.468        3.502        0.002      330.937       -1.369      872.703
12/16/2013  22:01:00      -84.084      -54.833       -9.986       14.117       14.310       13.852      199.285      204.775      191.870        0.539        0.030      100.384        9.623        0.009      330.879       -1.465      872.717
12/16/2013  22:02:00      -85.198      -36.112      -10.250       20.706       15.968       10.771      428.728      254.986      116.012        0.473        0.040       92.535        6.953        0.006      330.898       -1.434      872.717
12/16/2013  22:03:00      -79.874      -28.319       -3.687       21.601       22.494       13.221      466.608      505.976      174.804        0.417        0.057       84.746       10.819        0.016      330.966       -1.322      872.704
12/16/2013  22:04:00      -79.793      -39.846       -3.150       17.941       17.232       13.806      321.886      296.943      190.616        0.439        0.040       89.189       10.627        0.014      331.007       -1.255      872.695
12/16/2013  22:05:00      -85.283      -23.488       -4.571       23.167       16.476       13.403      536.732      271.451      179.646        0.442        0.049       88.459       10.770        0.015      331.036       -1.208      872.695
12/16/2013  22:06:00      -71.186      -32.697       -3.620       14.023       13.074        8.461      196.651      170.928       71.581        0.329        0.022       78.336        1.736        0.000      331.000       -1.267      872.683
12/16/2013  22:07:00      -58.650      -20.696       -5.158       12.232       11.826       10.334      149.620      139.858      106.792        0.215        0.020       62.194        5.619        0.008      330.993       -1.280      872.674
12/16/2013  22:08:00      -64.488      -24.094       -2.849       13.970       15.812       10.233      195.160      250.023      104.704        0.265        0.027       68.842        6.305        0.008      330.981       -1.300      872.675
12/16/2013  22:09:00      -61.709      -10.078       -3.931       19.969       21.445       10.070      398.766      459.887      101.399        0.244        0.048       62.527        6.977        0.012      331.026       -1.224      872.688
12/16/2013  22:10:00      -85.386       -1.834       -4.998       15.085        8.735        8.878      227.566       76.297       78.818        0.385        0.019       85.406        7.318        0.007      330.952       -1.346      872.707
12/16/2013  22:11:00      -90.558       -5.124       -8.494       25.189       23.268        9.870      634.482      541.393       97.410        0.479        0.064       90.703       10.020        0.012      330.943       -1.360      872.726
12/16/2013  22:12:00      -90.456        0.847      -13.107       26.170       13.833       16.422      684.870      191.362      269.682        0.475        0.057       90.460       16.194        0.032      330.833       -1.541      872.732
12/16/2013  22:13:00      -84.415        2.522       -9.630       23.198       18.188       14.315      538.134      330.818      204.933        0.415        0.054       84.453       10.438        0.015      330.768       -1.649      872.735
12/16/2013  22:14:00      -87.431        8.345       -7.078       23.498       16.368       15.195      552.166      267.899      230.902        0.441        0.053       87.828       13.076        0.022      330.774       -1.638      872.728
12/16/2013  22:15:00     -108.264        2.955      -14.782       17.297       13.929       13.155      299.180      194.009      173.066        0.631        0.033      108.304        8.996        0.007      330.745       -1.687      872.719
12/16/2013  22:16:00     -107.419      -10.958      -12.274       16.974       14.665       10.380      288.116      215.064      107.752        0.621        0.031      107.977        6.292        0.003      330.727       -1.716      872.706
12/16/2013  22:17:00      -97.941       -5.091      -13.009       19.181       14.190       11.765      367.901      201.344      138.421        0.525        0.035       98.073        9.540        0.009      330.684       -1.785      872.697
12/16/2013  22:18:00      -98.465       -2.358      -10.723       19.658       11.234        8.729      386.424      126.198       76.192        0.520        0.029       98.493        7.869        0.006      330.685       -1.784      872.687
12/16/2013  22:19:00      -88.757      -11.498      -11.385       17.671       17.578       12.564      312.261      308.983      157.844        0.446        0.039       89.499       10.444        0.014      330.635       -1.865      872.685
12/16/2013  22:20:00      -98.568      -15.244      -12.898       15.779       13.918       10.228      248.967      193.700      104.607        0.533        0.027       99.739        8.223        0.007      330.613       -1.901      872.680
12/16/2013  22:21:00     -104.168        2.786      -16.275       16.766       13.703       14.982      281.103      187.767      224.448        0.591        0.035      104.205        9.525        0.008      330.582       -1.952      872.675
12/16/2013  22:22:00     -111.956       -5.140      -15.542       19.292       11.808       11.354      372.182      139.436      128.918        0.672        0.032      112.074        4.988        0.002      330.571       -1.971      872.666
12/16/2013  22:23:00     -110.693       -1.616      -11.794       15.643       11.057       10.376      244.692      122.266      107.658        0.643        0.024      110.705        3.173        0.001      330.577       -1.961      872.660
12/16/2013  22:24:00     -105.960       -3.462      -10.837       13.536        8.998        9.625      183.227       80.963       92.646        0.586        0.018      106.017        4.006        0.001      330.586       -1.947      872.653
12/16/2013  22:25:00      -89.485        5.793       -6.411       17.592       11.991       11.475      309.471      143.785      131.670        0.433        0.029       89.672        8.648        0.009      330.600       -1.923      872.653
12/16/2013  22:26:00      -96.383        7.044       -9.336       14.873       10.845       12.926      221.219      117.608      167.092        0.497        0.025       96.640        4.741        0.002      330.589       -1.942      872.652
12/16/2013  22:27:00     -102.462       -0.397      -13.145       15.336       12.292       12.018      235.179      151.088      144.436        0.560        0.027      102.463        5.994        0.003      330.583       -1.951      872.666
12/16/2013  22:28:00      -74.936       -4.943       -9.128       25.602       15.052       14.173      655.452      226.564      200.877        0.340        0.054       75.099       10.749        0.020      330.570       -1.972      872.676
12/16/2013  22:29:00     -105.889       -6.817      -13.488       18.896       14.495       18.352      357.058      210.099      336.807        0.617        0.045      106.108       12.586        0.014      330.553       -2.002      872.687
12/16/2013  22:30:00     -103.398       -4.635      -11.071       20.343       13.963       14.270      413.829      194.974      203.636        0.582        0.041      103.502        9.625        0.009      330.535       -2.031      872.709
12/16/2013  22:31:00      -80.189       -7.935      -10.827       20.149       15.517       12.361      405.966      240.786      152.794        0.370        0.040       80.581        6.985        0.008      330.533       -2.034      872.723
12/16/2013  22:32:00      -67.736      -11.542       -7.746       19.686       14.725       10.093      387.549      216.838      101.861        0.274        0.035       68.713        8.132        0.014      330.539       -2.025      872.740
12/16/2013  22:33:00      -62.017       -9.277       -8.917       12.490       10.083       10.697      156.009      101.677      114.433        0.219        0.019       62.706        2.796        0.002      330.536       -2.031      872.761
12/16/2013  22:34:00      -52.872       -3.073       -6.938       12.374       16.877       10.599      153.117      284.847      112.342        0.170        0.028       52.961        7.971        0.023      330.582       -1.952      872.772
12/16/2013  22:35:00      -63.904      -13.664       -4.167       11.371        8.624        8.728      129.301       74.370       76.173        0.228        0.014       65.349        4.063        0.004      330.651       -1.837      872.778
12/16/2013  22:36:00      -67.000      -16.124      -10.044       13.549       11.244       10.940      183.565      126.428      119.676        0.264        0.021       68.913        5.998        0.008      330.592       -1.935      872.777
12/16/2013  22:37:00      -84.652      -14.374      -12.760       18.716       14.614       10.971      350.273      213.559      120.362        0.411        0.034       85.864       10.242        0.014      330.551       -2.005      872.774
12/16/2013  22:38:00      -84.127       -5.770      -10.803       27.676       10.892       15.654      765.962      118.627      245.058        0.418        0.056       84.325       16.760        0.040      330.517       -2.061      872.769
12/16/2013  22:39:00      -95.017        4.433      -12.498       17.456       15.654       12.640      304.727      245.039      159.766        0.496        0.035       95.120        9.818        0.011      330.497       -2.094      872.771
12/16/2013  22:40:00      -96.451       -1.546       -9.900       18.752       15.768       13.746      351.621      248.640      188.943        0.510        0.039       96.463        8.435        0.008      330.482       -2.118      872.770
12/16/2013  22:41:00      -52.393       -6.273       -8.211       14.420        9.235       10.038      207.937       85.292      100.753        0.162        0.020       52.768        6.066        0.013      330.517       -2.061      872.763
12/16/2013  22:42:00      -39.499      -15.765       -7.527       10.148       11.235        6.961      102.991      126.236       48.460        0.107        0.014       42.529        3.431        0.007      330.593       -1.933      872.766
12/16/2013  22:43:00      -42.214       -6.294       -4.888        6.435        6.990        7.479       41.414       48.855       55.934        0.100        0.007       42.681        4.719        0.012      330.578       -1.960      872.742
12/16/2013  22:44:00      -30.875       -6.635        3.932       11.518        7.832        7.218      132.653       61.346       52.097        0.063        0.012       31.580        5.937        0.035      330.654       -1.835      872.723
12/16/2013  22:45:00        1.497        4.124        6.100       18.061        5.422        8.207      326.194       29.396       67.355        0.024        0.021        4.387        9.551        4.739      330.799       -1.597      872.707
12/16/2013  22:46:00        3.945        9.675       -0.142       21.088       12.803       11.287      444.704      163.910      127.400        0.042        0.037       10.448       11.860        1.289      330.888       -1.450      872.713
12/16/2013  22:47:00        3.268       11.926        8.125       12.846       12.342        9.623      165.021      152.314       92.610        0.031        0.020       12.365        4.868        0.155      330.923       -1.391      872.728
12/16/2013  22:48:00        1.423        3.984       18.326       16.609        9.041       13.432      275.866       81.746      180.423        0.045        0.027        4.231        6.492        2.355      330.918       -1.401      872.751
12/16/2013  22:49:00      -24.721      -15.540        4.321       11.356       15.135        9.606      128.968      229.079       92.278        0.066        0.023       29.200        4.789        0.027      330.710       -1.742      872.776
12/16/2013  22:50:00      -63.127       -7.111       -6.427       14.534       14.355        8.286      211.229      206.063       68.657        0.228        0.024       63.526        6.488        0.010      330.548       -2.010      872.796
12/16/2013  22:51:00      -60.510       -2.128       -9.424       13.510       13.592       10.642      182.531      184.749      113.261        0.212        0.024       60.547        3.879        0.004      330.475       -2.128      872.803
12/16/2013  22:52:00      -71.720        1.665      -12.173       13.729       11.539        9.405      188.494      133.144       88.453        0.285        0.021       71.740        7.949        0.012      330.444       -2.180      872.800
12/16/2013  22:53:00      -49.313       -2.622       -7.051       17.522        9.160        9.538      307.027       83.907       90.977        0.149        0.024       49.382        3.392        0.005      330.439       -2.188      872.777
12/16/2013  22:54:00      -12.922       25.168       -8.797       26.822       28.260        9.418      719.405      798.609       88.703        0.124        0.080       28.292       14.893        0.277      330.722       -1.722      872.747
12/16/2013  22:55:00      -10.298       20.412        1.778       21.305       22.309       13.239      453.905      497.707      175.259        0.083        0.056       22.862       14.243        0.388      330.894       -1.441      872.709
12/16/2013  22:56:00        9.259       76.947       -8.405       11.997       17.266       12.896      143.940      298.113      166.310        0.334        0.030       77.502        4.091        0.003      331.138       -1.040      872.694
12/16/2013  22:57:00      -15.511        8.239       -1.456       22.882       20.762       16.344      523.580      431.060      267.135        0.077        0.061       17.563       17.449        0.987      330.834       -1.538      872.686
12/16/2013  22:58:00      -20.699      -16.368       -5.370       11.945       13.955        7.488      142.678      194.756       56.074        0.056        0.020       26.389        5.606        0.045      330.672       -1.806      872.689
12/16/2013  22:59:00      -38.613       -9.926       -7.030       17.211       10.790        8.918      296.227      116.417       79.524        0.107        0.025       39.868        6.691        0.028      330.581       -1.955      872.685
12/16/2013  23:00:00      -44.208      -15.265      -11.083       10.191        8.476        8.290      103.862       71.837       68.722        0.128        0.012       46.770        3.236        0.005      330.476       -2.126      872.688
12/16/2013  23:01:00      -64.444      -10.760       -4.274        9.198        8.026        7.590       84.610       64.414       57.615        0.225        0.010       65.336        5.105        0.006      330.453       -2.166      872.693
12/16/2013  23:02:00      -81.652      -15.575      -15.522        8.356        9.489        8.742       69.827       90.042       76.428        0.369        0.012       83.124        3.235        0.002      330.426       -2.208      872.703
12/16/2013  23:03:00      -58.548      -15.907      -12.716        9.982       16.558        9.136       99.631      274.152       83.469        0.215        0.023       60.670        6.214        0.010      330.485       -2.112      872.705
12/16/2013  23:04:00      -33.409      -16.623       -7.165       13.556       11.591       12.843      183.754      134.359      164.950        0.096        0.024       37.317        8.736        0.055      330.641       -1.856      872.701
12/16/2013  23:05:00      -26.648       -7.395        6.534       11.092       12.649        7.425      123.032      159.985       55.131        0.057        0.017       27.655        6.751        0.060      330.608       -1.910      872.693
12/16/2013  23:06:00      -13.385       -7.859        1.611        8.708        7.746        5.025       75.832       59.993       25.247        0.020        0.008       15.521        1.456        0.009      330.628       -1.876      872.685
12/16/2013  23:07:00       -0.636       29.190       -2.309       17.291       14.583        7.485      298.994      212.660       56.032        0.071        0.028       29.197        9.087        0.097      330.916       -1.405      872.676
12/16/2013  23:08:00        3.173       28.834        0.263       16.702        9.071        7.302      278.945       82.282       53.321        0.063        0.021       29.008        7.472        0.066      330.932       -1.381      872.667
12/16/2013  23:09:00      -17.858        7.317        6.312       25.044       10.897        9.792      627.210      118.751       95.876        0.063        0.042       19.299        6.369        0.109      330.713       -1.738      872.667
12/16/2013  23:10:00      -10.388        9.588        0.137        7.879        7.507        5.943       62.072       56.362       35.321        0.018        0.008       14.136        4.936        0.122      330.725       -1.717      872.664
12/16/2013  23:11:00       -1.112       25.016        0.766        9.096       12.088        6.384       82.741      146.112       40.762        0.045        0.013       25.040        5.015        0.040      330.921       -1.397      872.667
12/16/2013  23:12:00       -7.402        5.077        3.217       16.510        7.225        4.699      272.590       52.203       22.083        0.022        0.017        8.976        5.050        0.317      330.814       -1.570      872.655
12/16/2013  23:13:00       -5.676       13.629        2.769       12.983       10.733        5.509      168.559      115.198       30.344        0.027        0.016       14.764        5.171        0.123      330.864       -1.490      872.637
12/16/2013  23:14:00        7.250       34.110       -1.766       14.044        9.341        6.549      197.225       87.247       42.892        0.077        0.016       34.872        5.006        0.021      330.942       -1.361      872.624
12/16/2013  23:15:00       -1.659       17.581        3.415        9.598       14.279        7.752       92.119      203.883       60.095        0.034        0.018       17.659        7.718        0.191      330.876       -1.471      872.612
12/16/2013  23:16:00       -0.774       20.726        2.935       13.384       12.850        8.450      179.132      165.120       71.395        0.043        0.021       20.740        7.778        0.141      330.815       -1.569      872.596
12/16/2013  23:17:00        6.584       40.241       -1.690        8.842        9.704        5.152       78.183       94.163       26.547        0.093        0.010       40.776        4.225        0.011      330.927       -1.387      872.584
12/16/2013  23:18:00        6.241       36.117       -1.400       10.632       11.365        9.709      113.044      129.163       94.257        0.084        0.017       36.652        5.634        0.024      330.897       -1.435      872.576
12/16/2013  23:19:00       10.315        5.606       -1.958        6.590        7.950        6.191       43.430       63.201       38.329        0.014        0.007       11.740        5.229        0.198      330.907       -1.421      872.575
12/16/2013  23:20:00       10.392        2.020        2.468        4.781        6.300        6.006       22.859       39.691       36.067        0.011        0.005       10.586        4.042        0.146      330.935       -1.372      872.581
12/16/2013  23:21:00        2.888        8.837        2.172       12.643        6.850        7.238      159.836       46.916       52.392        0.018        0.013        9.297        8.851        0.906      330.841       -1.530      872.582
12/16/2013  23:22:00      -30.746       -7.426       -5.059        7.235        7.250        6.410       52.343       52.567       41.091        0.059        0.007       31.630        4.421        0.020      330.508       -2.073      872.582
12/16/2013  23:23:00      -21.592        0.370       -9.021       12.786        6.950        5.857      163.485       48.301       34.306        0.040        0.012       21.595        3.082        0.020      330.429       -2.205      872.579
12/16/2013  23:24:00       14.231       11.356       -3.139       12.084        9.115        8.907      146.027       83.075       79.336        0.032        0.015       18.206        5.177        0.081      330.783       -1.623      872.570
12/16/2013  23:25:00       24.747       13.222        3.044        6.511        5.317        4.292       42.392       28.270       18.420        0.044        0.004       28.058        3.270        0.014      330.843       -1.521      872.561
12/16/2013  23:26:00       17.190        7.184        5.018       11.030        9.365        7.016      121.664       87.700       49.224        0.032        0.013       18.631        6.954        0.139      330.843       -1.523      872.548
12/16/2013  23:27:00       15.526        8.391        6.215        8.162        7.349        5.590       66.611       54.011       31.247        0.025        0.008       17.648        4.725        0.072      330.870       -1.481      872.531
12/16/2013  23:28:00        0.390       -0.936        8.920        7.180        6.471        5.610       51.558       41.874       31.473        0.010        0.006        1.014        4.328       18.213      330.805       -1.587      872.521
12/16/2013  23:29:00        0.951        5.770        4.305        6.222        7.639        5.572       38.710       58.354       31.051        0.009        0.006        5.848        4.879        0.696      330.790       -1.612      872.525
12/16/2013  23:30:00        1.097        3.037        4.190        9.337        7.646        5.501       87.177       58.459       30.260        0.010        0.009        3.229        5.039        2.435      330.672       -1.807      872.526
12/16/2013  23:31:00      -19.017      -16.431       -0.949        8.518        7.591        4.305       72.560       57.619       18.531        0.039        0.007       25.132        1.725        0.005      330.525       -2.046      872.525
12/16/2013  23:32:00      -40.350      -14.438       -5.787        8.608        6.935        5.118       74.099       48.087       26.192        0.101        0.007       42.856        3.121        0.005      330.415       -2.228      872.521
12/16/2013  23:33:00      -40.509       -2.135       -3.770        7.983        7.603        8.416       63.725       57.807       70.834        0.093        0.010       40.566        5.688        0.020      330.379       -2.285      872.515
12/16/2013  23:34:00      -49.600       -5.890       -3.958        8.408        8.872        8.564       70.702       78.717       73.343        0.137        0.011       49.949        3.326        0.004      330.299       -2.418      872.506
12/16/2013  23:35:00      -65.321      -10.988       -9.203       18.507        9.924        9.827      342.506       98.479       96.564        0.250        0.027       66.239       10.040        0.023      330.328       -2.371      872.492
12/16/2013  23:36:00      -67.555       -9.993       -6.720       15.183       15.127       11.205      230.520      228.834      125.542        0.265        0.029       68.290        9.811        0.021      330.284       -2.440      872.480
12/16/2013  23:37:00      -79.004      -21.160      -12.360       11.308       11.412        8.689      127.866      130.243       75.499        0.359        0.017       81.789        1.081        0.000      330.276       -2.455      872.476
12/16/2013  23:38:00      -65.030      -18.241       -5.333       10.379       10.823       10.345      107.717      117.132      107.016        0.246        0.017       67.539        4.436        0.004      330.269       -2.465      872.470
12/16/2013  23:39:00      -69.061      -22.477       -8.278       15.007       11.980       10.378      225.205      143.525      107.693        0.291        0.024       72.627        5.519        0.006      330.227       -2.535      872.467
12/16/2013  23:40:00      -75.027      -11.699      -12.083       17.018       18.574       11.609      289.604      345.004      134.768        0.334        0.038       75.933        8.271        0.012      330.262       -2.479      872.468
12/16/2013  23:41:00      -74.082      -33.955      -15.120       16.867       14.150       11.115      284.493      200.227      123.534        0.374        0.030       81.493        4.833        0.004      330.290       -2.434      872.458
12/16/2013  23:42:00      -75.234      -20.099       -9.758       19.600       17.919       10.942      384.178      321.088      119.736        0.349        0.041       77.872        5.242        0.005      330.230       -2.530      872.444
12/16/2013  23:43:00      -87.600      -10.928      -10.509       19.354       13.828       11.253      374.562      191.223      126.619        0.430        0.035       88.279       10.015        0.013      330.222       -2.543      872.439
12/16/2013  23:44:00      -83.252       -7.288       -4.749       16.410       17.551       15.095      269.278      308.027      227.865        0.391        0.040       83.570       11.640        0.019      330.235       -2.521      872.439
12/16/2013  23:45:00      -88.028       -5.578       -7.435       17.167       16.832       12.289      294.691      283.327      151.013        0.428        0.036       88.205        7.212        0.007      330.247       -2.502      872.436
12/16/2013  23:46:00      -79.490      -14.523      -10.808       14.716       11.551       10.623      216.561      133.423      112.843        0.355        0.023       80.806        6.864        0.007      330.220       -2.547      872.429
12/16/2013  23:47:00      -85.442      -21.587      -13.528       12.364       15.470       10.769      152.863      239.334      115.961        0.423        0.025       88.127        7.593        0.007      330.147       -2.667      872.433
12/16/2013  23:48:00     -108.994      -22.860      -14.604       15.006       13.084       12.910      225.188      171.200      166.675        0.659        0.028      111.366        8.744        0.006      330.073       -2.787      872.441
12/16/2013  23:49:00      -71.246      -13.850       -9.731       25.339       16.608       12.923      642.056      275.820      167.008        0.322        0.054       72.579        5.333        0.005      330.029       -2.860      872.439
12/16/2013  23:50:00      -72.563      -11.874       -8.870       23.607       14.704       12.933      557.303      216.209      167.259        0.321        0.047       73.529        9.581        0.017      330.048       -2.826      872.429
12/16/2013  23:51:00      -44.515      -14.411       -9.924       10.264       12.668       10.175      105.348      160.485      103.522        0.133        0.018       46.789        6.478        0.019      330.127       -2.699      872.410
12/16/2013  23:52:00      -46.719      -18.414      -10.490       12.045        8.464       10.173      145.093       71.633      103.482        0.148        0.016       50.217        4.260        0.007      330.170       -2.631      872.394
12/16/2013  23:53:00      -61.074      -12.752       -2.305       10.162       11.447        8.999      103.258      131.036       80.984        0.211        0.016       62.391        4.756        0.006      330.160       -2.647      872.390
12/16/2013  23:54:00      -75.247      -13.395       -7.392       12.922       10.849        8.800      166.975      117.711       77.445        0.313        0.018       76.430        3.623        0.002      330.074       -2.786      872.386
12/16/2013  23:55:00      -70.062      -11.285      -10.468       18.078       12.308        8.780      326.802      151.491       77.086        0.285        0.028       70.965        5.274        0.006      330.001       -2.906      872.382
12/16/2013  23:56:00      -75.601       -2.924      -15.935       15.085       10.742       11.245      227.542      115.395      126.455        0.322        0.023       75.658        9.227        0.015      329.981       -2.938      872.401
12/16/2013  23:57:00      -67.298       -9.397       -7.716       19.267       16.470       12.715      371.220      271.274      161.668        0.274        0.040       67.951       11.019        0.026      329.979       -2.943      872.407
12/16/2013  23:58:00      -50.299       -2.930       -8.144       11.697        6.888        6.727      136.810       47.450       45.256        0.142        0.011       50.384        5.703        0.013      330.023       -2.870      872.415
12/16/2013  23:59:00      -38.344      -10.301       -4.777        7.183        8.127        6.432       51.590       66.052       41.370        0.088        0.008       39.704        3.921        0.010      330.031       -2.856      872.413
